<?xml version="1.0" encoding="UTF-8" standalone="no" ?>
<gpx xmlns="http://www.topografix.com/GPX/1/1" xmlns:xsi="http://www.w3.org/2001/XMLSchema-instance" xsi:schemaLocation="http://www.topografix.com/GPX/1/1 http://www.topografix.com/GPX/1/1/gpx.xsd" version="1.1" creator="VisuGPX - https://www.visugpx.com">
  <metadata>
    <name>Vacances 2021</name>
  </metadata>
  <trk>
    <name><![CDATA[Journal actif: 2021-07-18 11:01]]></name>
    <trkseg>
      <trkpt lat="46.32724" lon="2.60907">
        <ele>210.19</ele>
        <time>2021-07-18T13:01:09Z</time>
      </trkpt>
      <trkpt lat="46.32724" lon="2.60905">
        <ele>210.19</ele>
        <time>2021-07-18T13:02:09Z</time>
      </trkpt>
      <trkpt lat="46.32726" lon="2.60891">
        <ele>210.19</ele>
        <time>2021-07-18T13:02:26Z</time>
      </trkpt>
      <trkpt lat="46.32725" lon="2.60888">
        <ele>210.19</ele>
        <time>2021-07-18T13:04:01Z</time>
      </trkpt>
      <trkpt lat="46.32725" lon="2.60887">
        <ele>210.19</ele>
        <time>2021-07-18T13:04:02Z</time>
      </trkpt>
      <trkpt lat="46.32712" lon="2.60881">
        <ele>209.7</ele>
        <time>2021-07-18T13:04:20Z</time>
      </trkpt>
      <trkpt lat="46.3268" lon="2.60882">
        <ele>206.34</ele>
        <time>2021-07-18T13:04:36Z</time>
      </trkpt>
      <trkpt lat="46.32668" lon="2.60866">
        <ele>204.42</ele>
        <time>2021-07-18T13:04:48Z</time>
      </trkpt>
      <trkpt lat="46.32668" lon="2.60866">
        <ele>204.42</ele>
        <time>2021-07-18T13:04:49Z</time>
      </trkpt>
      <trkpt lat="46.32664" lon="2.60866">
        <ele>205.38</ele>
        <time>2021-07-18T13:05:05Z</time>
      </trkpt>
      <trkpt lat="46.32664" lon="2.60866">
        <ele>207.78</ele>
        <time>2021-07-18T13:05:12Z</time>
      </trkpt>
      <trkpt lat="46.32667" lon="2.60866">
        <ele>209.22</ele>
        <time>2021-07-18T13:05:14Z</time>
      </trkpt>
      <trkpt lat="46.32669" lon="2.60866">
        <ele>208.74</ele>
        <time>2021-07-18T13:05:15Z</time>
      </trkpt>
      <trkpt lat="46.32672" lon="2.60866">
        <ele>209.22</ele>
        <time>2021-07-18T13:05:17Z</time>
      </trkpt>
      <trkpt lat="46.32675" lon="2.60866">
        <ele>208.74</ele>
        <time>2021-07-18T13:05:18Z</time>
      </trkpt>
      <trkpt lat="46.32679" lon="2.60865">
        <ele>208.74</ele>
        <time>2021-07-18T13:05:19Z</time>
      </trkpt>
      <trkpt lat="46.3277" lon="2.60865">
        <ele>209.22</ele>
        <time>2021-07-18T13:05:34Z</time>
      </trkpt>
      <trkpt lat="46.32905" lon="2.60873">
        <ele>209.22</ele>
        <time>2021-07-18T13:05:50Z</time>
      </trkpt>
      <trkpt lat="46.33056" lon="2.60878">
        <ele>210.19</ele>
        <time>2021-07-18T13:06:08Z</time>
      </trkpt>
      <trkpt lat="46.33248" lon="2.60887">
        <ele>213.07</ele>
        <time>2021-07-18T13:06:28Z</time>
      </trkpt>
      <trkpt lat="46.33331" lon="2.60892">
        <ele>214.03</ele>
        <time>2021-07-18T13:06:39Z</time>
      </trkpt>
      <trkpt lat="46.33413" lon="2.60896">
        <ele>210.67</ele>
        <time>2021-07-18T13:06:51Z</time>
      </trkpt>
      <trkpt lat="46.33474" lon="2.609">
        <ele>209.7</ele>
        <time>2021-07-18T13:07:00Z</time>
      </trkpt>
      <trkpt lat="46.33479" lon="2.609">
        <ele>209.22</ele>
        <time>2021-07-18T13:07:03Z</time>
      </trkpt>
      <trkpt lat="46.33491" lon="2.60798">
        <ele>206.34</ele>
        <time>2021-07-18T13:07:14Z</time>
      </trkpt>
      <trkpt lat="46.33537" lon="2.60589">
        <ele>202.01</ele>
        <time>2021-07-18T13:07:33Z</time>
      </trkpt>
      <trkpt lat="46.33563" lon="2.60477">
        <ele>203.94</ele>
        <time>2021-07-18T13:07:44Z</time>
      </trkpt>
      <trkpt lat="46.33564" lon="2.60473">
        <ele>203.94</ele>
        <time>2021-07-18T13:07:59Z</time>
      </trkpt>
      <trkpt lat="46.33565" lon="2.60465">
        <ele>203.94</ele>
        <time>2021-07-18T13:08:03Z</time>
      </trkpt>
      <trkpt lat="46.33566" lon="2.60462">
        <ele>203.94</ele>
        <time>2021-07-18T13:08:04Z</time>
      </trkpt>
      <trkpt lat="46.33563" lon="2.60454">
        <ele>203.46</ele>
        <time>2021-07-18T13:08:05Z</time>
      </trkpt>
      <trkpt lat="46.33559" lon="2.60453">
        <ele>203.46</ele>
        <time>2021-07-18T13:08:06Z</time>
      </trkpt>
      <trkpt lat="46.33555" lon="2.60452">
        <ele>203.46</ele>
        <time>2021-07-18T13:08:07Z</time>
      </trkpt>
      <trkpt lat="46.3355" lon="2.6045">
        <ele>203.46</ele>
        <time>2021-07-18T13:08:08Z</time>
      </trkpt>
      <trkpt lat="46.33545" lon="2.60449">
        <ele>203.46</ele>
        <time>2021-07-18T13:08:09Z</time>
      </trkpt>
      <trkpt lat="46.33474" lon="2.60427">
        <ele>202.49</ele>
        <time>2021-07-18T13:08:19Z</time>
      </trkpt>
      <trkpt lat="46.3338" lon="2.60403">
        <ele>201.53</ele>
        <time>2021-07-18T13:08:30Z</time>
      </trkpt>
      <trkpt lat="46.33318" lon="2.60396">
        <ele>200.57</ele>
        <time>2021-07-18T13:08:39Z</time>
      </trkpt>
      <trkpt lat="46.33277" lon="2.60375">
        <ele>202.98</ele>
        <time>2021-07-18T13:08:43Z</time>
      </trkpt>
      <trkpt lat="46.33269" lon="2.6037">
        <ele>202.98</ele>
        <time>2021-07-18T13:08:44Z</time>
      </trkpt>
      <trkpt lat="46.33258" lon="2.60351">
        <ele>202.49</ele>
        <time>2021-07-18T13:08:45Z</time>
      </trkpt>
      <trkpt lat="46.33197" lon="2.60218">
        <ele>201.53</ele>
        <time>2021-07-18T13:09:00Z</time>
      </trkpt>
      <trkpt lat="46.33168" lon="2.60148">
        <ele>202.01</ele>
        <time>2021-07-18T13:09:11Z</time>
      </trkpt>
      <trkpt lat="46.33167" lon="2.60146">
        <ele>202.01</ele>
        <time>2021-07-18T13:09:12Z</time>
      </trkpt>
      <trkpt lat="46.33166" lon="2.60143">
        <ele>201.53</ele>
        <time>2021-07-18T13:09:14Z</time>
      </trkpt>
      <trkpt lat="46.3316" lon="2.60129">
        <ele>202.98</ele>
        <time>2021-07-18T13:09:28Z</time>
      </trkpt>
      <trkpt lat="46.33195" lon="2.601">
        <ele>202.98</ele>
        <time>2021-07-18T13:09:42Z</time>
      </trkpt>
      <trkpt lat="46.33196" lon="2.60075">
        <ele>202.98</ele>
        <time>2021-07-18T13:09:55Z</time>
      </trkpt>
      <trkpt lat="46.33197" lon="2.60063">
        <ele>203.46</ele>
        <time>2021-07-18T13:10:09Z</time>
      </trkpt>
      <trkpt lat="46.33198" lon="2.60062">
        <ele>203.94</ele>
        <time>2021-07-18T13:11:56Z</time>
      </trkpt>
      <trkpt lat="46.33198" lon="2.60061">
        <ele>204.42</ele>
        <time>2021-07-18T13:14:26Z</time>
      </trkpt>
      <trkpt lat="46.33199" lon="2.60057">
        <ele>204.42</ele>
        <time>2021-07-18T13:15:42Z</time>
      </trkpt>
      <trkpt lat="46.3319" lon="2.6004">
        <ele>204.9</ele>
        <time>2021-07-18T13:15:54Z</time>
      </trkpt>
      <trkpt lat="46.33167" lon="2.60014">
        <ele>205.86</ele>
        <time>2021-07-18T13:16:07Z</time>
      </trkpt>
      <trkpt lat="46.3312" lon="2.60013">
        <ele>205.86</ele>
        <time>2021-07-18T13:16:19Z</time>
      </trkpt>
      <trkpt lat="46.33113" lon="2.60011">
        <ele>206.82</ele>
        <time>2021-07-18T13:16:23Z</time>
      </trkpt>
      <trkpt lat="46.33108" lon="2.6001">
        <ele>207.3</ele>
        <time>2021-07-18T13:16:24Z</time>
      </trkpt>
      <trkpt lat="46.33104" lon="2.60011">
        <ele>206.82</ele>
        <time>2021-07-18T13:16:25Z</time>
      </trkpt>
      <trkpt lat="46.33096" lon="2.60019">
        <ele>206.82</ele>
        <time>2021-07-18T13:16:26Z</time>
      </trkpt>
      <trkpt lat="46.3306" lon="2.60116">
        <ele>205.86</ele>
        <time>2021-07-18T13:16:37Z</time>
      </trkpt>
      <trkpt lat="46.32986" lon="2.60283">
        <ele>204.42</ele>
        <time>2021-07-18T13:16:51Z</time>
      </trkpt>
      <trkpt lat="46.32921" lon="2.60477">
        <ele>205.86</ele>
        <time>2021-07-18T13:17:06Z</time>
      </trkpt>
      <trkpt lat="46.32909" lon="2.60524">
        <ele>206.82</ele>
        <time>2021-07-18T13:17:13Z</time>
      </trkpt>
      <trkpt lat="46.32904" lon="2.60545">
        <ele>207.3</ele>
        <time>2021-07-18T13:17:28Z</time>
      </trkpt>
      <trkpt lat="46.32872" lon="2.60652">
        <ele>208.26</ele>
        <time>2021-07-18T13:17:39Z</time>
      </trkpt>
      <trkpt lat="46.32829" lon="2.60808">
        <ele>209.7</ele>
        <time>2021-07-18T13:17:53Z</time>
      </trkpt>
      <trkpt lat="46.32822" lon="2.60843">
        <ele>210.67</ele>
        <time>2021-07-18T13:18:01Z</time>
      </trkpt>
      <trkpt lat="46.32819" lon="2.60866">
        <ele>210.19</ele>
        <time>2021-07-18T13:18:47Z</time>
      </trkpt>
      <trkpt lat="46.32826" lon="2.60868">
        <ele>210.19</ele>
        <time>2021-07-18T13:18:48Z</time>
      </trkpt>
      <trkpt lat="46.32831" lon="2.60868">
        <ele>209.7</ele>
        <time>2021-07-18T13:18:49Z</time>
      </trkpt>
      <trkpt lat="46.32831" lon="2.60868">
        <ele>209.7</ele>
        <time>2021-07-18T13:18:50Z</time>
      </trkpt>
      <trkpt lat="46.32859" lon="2.6087">
        <ele>209.22</ele>
        <time>2021-07-18T13:18:57Z</time>
      </trkpt>
      <trkpt lat="46.32888" lon="2.60872">
        <ele>208.74</ele>
        <time>2021-07-18T13:19:19Z</time>
      </trkpt>
      <trkpt lat="46.32969" lon="2.60876">
        <ele>210.67</ele>
        <time>2021-07-18T13:19:30Z</time>
      </trkpt>
      <trkpt lat="46.33107" lon="2.60881">
        <ele>213.55</ele>
        <time>2021-07-18T13:19:43Z</time>
      </trkpt>
      <trkpt lat="46.33214" lon="2.60887">
        <ele>214.03</ele>
        <time>2021-07-18T13:19:54Z</time>
      </trkpt>
      <trkpt lat="46.3325" lon="2.60888">
        <ele>214.99</ele>
        <time>2021-07-18T13:20:01Z</time>
      </trkpt>
      <trkpt lat="46.33323" lon="2.60892">
        <ele>217.4</ele>
        <time>2021-07-18T13:20:10Z</time>
      </trkpt>
      <trkpt lat="46.3346" lon="2.60899">
        <ele>207.78</ele>
        <time>2021-07-18T13:20:22Z</time>
      </trkpt>
      <trkpt lat="46.33577" lon="2.60904">
        <ele>210.67</ele>
        <time>2021-07-18T13:20:34Z</time>
      </trkpt>
      <trkpt lat="46.33644" lon="2.60906">
        <ele>211.63</ele>
        <time>2021-07-18T13:20:41Z</time>
      </trkpt>
      <trkpt lat="46.3365" lon="2.60906">
        <ele>210.19</ele>
        <time>2021-07-18T13:20:48Z</time>
      </trkpt>
      <trkpt lat="46.3365" lon="2.60906">
        <ele>208.26</ele>
        <time>2021-07-18T13:21:21Z</time>
      </trkpt>
      <trkpt lat="46.3365" lon="2.60906">
        <ele>208.26</ele>
        <time>2021-07-18T13:21:24Z</time>
      </trkpt>
      <trkpt lat="46.33653" lon="2.60906">
        <ele>208.74</ele>
        <time>2021-07-18T13:21:25Z</time>
      </trkpt>
      <trkpt lat="46.33688" lon="2.60905">
        <ele>208.26</ele>
        <time>2021-07-18T13:21:31Z</time>
      </trkpt>
      <trkpt lat="46.33739" lon="2.60912">
        <ele>207.78</ele>
        <time>2021-07-18T13:21:36Z</time>
      </trkpt>
      <trkpt lat="46.33844" lon="2.60961">
        <ele>208.74</ele>
        <time>2021-07-18T13:21:50Z</time>
      </trkpt>
      <trkpt lat="46.33887" lon="2.60978">
        <ele>210.19</ele>
        <time>2021-07-18T13:21:57Z</time>
      </trkpt>
      <trkpt lat="46.33892" lon="2.60983">
        <ele>210.19</ele>
        <time>2021-07-18T13:21:59Z</time>
      </trkpt>
      <trkpt lat="46.33897" lon="2.6099">
        <ele>210.19</ele>
        <time>2021-07-18T13:22:00Z</time>
      </trkpt>
      <trkpt lat="46.339" lon="2.61006">
        <ele>209.7</ele>
        <time>2021-07-18T13:22:01Z</time>
      </trkpt>
      <trkpt lat="46.339" lon="2.61011">
        <ele>210.19</ele>
        <time>2021-07-18T13:22:02Z</time>
      </trkpt>
      <trkpt lat="46.33894" lon="2.61065">
        <ele>210.19</ele>
        <time>2021-07-18T13:22:07Z</time>
      </trkpt>
      <trkpt lat="46.33896" lon="2.61073">
        <ele>209.7</ele>
        <time>2021-07-18T13:22:08Z</time>
      </trkpt>
      <trkpt lat="46.33898" lon="2.6108">
        <ele>209.7</ele>
        <time>2021-07-18T13:22:09Z</time>
      </trkpt>
      <trkpt lat="46.339" lon="2.61088">
        <ele>209.7</ele>
        <time>2021-07-18T13:22:10Z</time>
      </trkpt>
      <trkpt lat="46.33906" lon="2.61092">
        <ele>209.7</ele>
        <time>2021-07-18T13:22:11Z</time>
      </trkpt>
      <trkpt lat="46.33906" lon="2.61092">
        <ele>209.7</ele>
        <time>2021-07-18T13:22:12Z</time>
      </trkpt>
      <trkpt lat="46.33911" lon="2.61095">
        <ele>209.7</ele>
        <time>2021-07-18T13:22:13Z</time>
      </trkpt>
      <trkpt lat="46.33923" lon="2.61102">
        <ele>209.7</ele>
        <time>2021-07-18T13:22:14Z</time>
      </trkpt>
      <trkpt lat="46.33923" lon="2.61102">
        <ele>209.7</ele>
        <time>2021-07-18T13:22:15Z</time>
      </trkpt>
      <trkpt lat="46.3393" lon="2.61105">
        <ele>209.7</ele>
        <time>2021-07-18T13:22:16Z</time>
      </trkpt>
      <trkpt lat="46.33974" lon="2.61118">
        <ele>208.74</ele>
        <time>2021-07-18T13:22:22Z</time>
      </trkpt>
      <trkpt lat="46.3402" lon="2.61118">
        <ele>210.19</ele>
        <time>2021-07-18T13:22:27Z</time>
      </trkpt>
      <trkpt lat="46.34054" lon="2.61124">
        <ele>211.63</ele>
        <time>2021-07-18T13:22:34Z</time>
      </trkpt>
      <trkpt lat="46.34051" lon="2.61123">
        <ele>211.15</ele>
        <time>2021-07-18T13:22:36Z</time>
      </trkpt>
      <trkpt lat="46.34035" lon="2.61121">
        <ele>209.22</ele>
        <time>2021-07-18T13:22:43Z</time>
      </trkpt>
      <trkpt lat="46.34064" lon="2.61125">
        <ele>208.74</ele>
        <time>2021-07-18T13:22:56Z</time>
      </trkpt>
      <trkpt lat="46.34064" lon="2.61125">
        <ele>208.74</ele>
        <time>2021-07-18T13:22:57Z</time>
      </trkpt>
      <trkpt lat="46.34064" lon="2.61124">
        <ele>208.74</ele>
        <time>2021-07-18T13:22:58Z</time>
      </trkpt>
      <trkpt lat="46.34125" lon="2.61139">
        <ele>210.67</ele>
        <time>2021-07-18T13:23:07Z</time>
      </trkpt>
      <trkpt lat="46.34156" lon="2.61143">
        <ele>213.55</ele>
        <time>2021-07-18T13:23:11Z</time>
      </trkpt>
      <trkpt lat="46.34175" lon="2.61142">
        <ele>214.03</ele>
        <time>2021-07-18T13:23:12Z</time>
      </trkpt>
      <trkpt lat="46.34292" lon="2.61116">
        <ele>230.37</ele>
        <time>2021-07-18T13:23:24Z</time>
      </trkpt>
      <trkpt lat="46.34337" lon="2.61103">
        <ele>234.7</ele>
        <time>2021-07-18T13:23:32Z</time>
      </trkpt>
      <trkpt lat="46.34342" lon="2.61101">
        <ele>235.18</ele>
        <time>2021-07-18T13:23:33Z</time>
      </trkpt>
      <trkpt lat="46.34345" lon="2.61107">
        <ele>235.18</ele>
        <time>2021-07-18T13:23:34Z</time>
      </trkpt>
      <trkpt lat="46.34348" lon="2.61113">
        <ele>234.7</ele>
        <time>2021-07-18T13:23:35Z</time>
      </trkpt>
      <trkpt lat="46.34351" lon="2.61119">
        <ele>234.22</ele>
        <time>2021-07-18T13:23:36Z</time>
      </trkpt>
      <trkpt lat="46.34354" lon="2.61126">
        <ele>234.22</ele>
        <time>2021-07-18T13:23:37Z</time>
      </trkpt>
      <trkpt lat="46.34356" lon="2.61133">
        <ele>233.74</ele>
        <time>2021-07-18T13:23:38Z</time>
      </trkpt>
      <trkpt lat="46.34359" lon="2.61142">
        <ele>233.74</ele>
        <time>2021-07-18T13:23:39Z</time>
      </trkpt>
      <trkpt lat="46.34401" lon="2.61287">
        <ele>238.06</ele>
        <time>2021-07-18T13:23:55Z</time>
      </trkpt>
      <trkpt lat="46.34427" lon="2.61373">
        <ele>240.95</ele>
        <time>2021-07-18T13:24:08Z</time>
      </trkpt>
      <trkpt lat="46.34468" lon="2.61517">
        <ele>244.79</ele>
        <time>2021-07-18T13:24:21Z</time>
      </trkpt>
      <trkpt lat="46.34499" lon="2.61668">
        <ele>249.12</ele>
        <time>2021-07-18T13:24:32Z</time>
      </trkpt>
      <trkpt lat="46.3453" lon="2.61975">
        <ele>253.93</ele>
        <time>2021-07-18T13:24:52Z</time>
      </trkpt>
      <trkpt lat="46.3456" lon="2.62289">
        <ele>259.21</ele>
        <time>2021-07-18T13:25:12Z</time>
      </trkpt>
      <trkpt lat="46.34562" lon="2.6231">
        <ele>260.17</ele>
        <time>2021-07-18T13:25:18Z</time>
      </trkpt>
      <trkpt lat="46.34564" lon="2.62337">
        <ele>260.65</ele>
        <time>2021-07-18T13:25:56Z</time>
      </trkpt>
      <trkpt lat="46.34571" lon="2.62441">
        <ele>262.58</ele>
        <time>2021-07-18T13:26:05Z</time>
      </trkpt>
      <trkpt lat="46.34571" lon="2.62453">
        <ele>263.06</ele>
        <time>2021-07-18T13:26:06Z</time>
      </trkpt>
      <trkpt lat="46.34567" lon="2.62476">
        <ele>263.06</ele>
        <time>2021-07-18T13:26:07Z</time>
      </trkpt>
      <trkpt lat="46.34567" lon="2.62476">
        <ele>263.54</ele>
        <time>2021-07-18T13:26:08Z</time>
      </trkpt>
      <trkpt lat="46.34563" lon="2.62487">
        <ele>264.02</ele>
        <time>2021-07-18T13:26:09Z</time>
      </trkpt>
      <trkpt lat="46.34558" lon="2.62498">
        <ele>264.02</ele>
        <time>2021-07-18T13:26:10Z</time>
      </trkpt>
      <trkpt lat="46.34545" lon="2.62519">
        <ele>266.42</ele>
        <time>2021-07-18T13:26:11Z</time>
      </trkpt>
      <trkpt lat="46.34545" lon="2.62519">
        <ele>267.38</ele>
        <time>2021-07-18T13:26:12Z</time>
      </trkpt>
      <trkpt lat="46.34537" lon="2.62528">
        <ele>267.86</ele>
        <time>2021-07-18T13:26:13Z</time>
      </trkpt>
      <trkpt lat="46.34528" lon="2.62535">
        <ele>268.35</ele>
        <time>2021-07-18T13:26:14Z</time>
      </trkpt>
      <trkpt lat="46.3451" lon="2.6255">
        <ele>269.31</ele>
        <time>2021-07-18T13:26:15Z</time>
      </trkpt>
      <trkpt lat="46.3451" lon="2.6255">
        <ele>269.31</ele>
        <time>2021-07-18T13:26:16Z</time>
      </trkpt>
      <trkpt lat="46.34387" lon="2.62599">
        <ele>271.71</ele>
        <time>2021-07-18T13:26:26Z</time>
      </trkpt>
      <trkpt lat="46.34376" lon="2.62607">
        <ele>271.71</ele>
        <time>2021-07-18T13:26:27Z</time>
      </trkpt>
      <trkpt lat="46.34355" lon="2.62625">
        <ele>272.19</ele>
        <time>2021-07-18T13:26:28Z</time>
      </trkpt>
      <trkpt lat="46.34347" lon="2.6264">
        <ele>272.67</ele>
        <time>2021-07-18T13:26:29Z</time>
      </trkpt>
      <trkpt lat="46.34347" lon="2.6264">
        <ele>272.19</ele>
        <time>2021-07-18T13:26:30Z</time>
      </trkpt>
      <trkpt lat="46.3434" lon="2.62656">
        <ele>272.19</ele>
        <time>2021-07-18T13:26:31Z</time>
      </trkpt>
      <trkpt lat="46.34333" lon="2.6267">
        <ele>273.15</ele>
        <time>2021-07-18T13:26:32Z</time>
      </trkpt>
      <trkpt lat="46.34326" lon="2.62685">
        <ele>272.19</ele>
        <time>2021-07-18T13:26:33Z</time>
      </trkpt>
      <trkpt lat="46.34322" lon="2.62703">
        <ele>272.19</ele>
        <time>2021-07-18T13:26:34Z</time>
      </trkpt>
      <trkpt lat="46.34318" lon="2.62721">
        <ele>272.19</ele>
        <time>2021-07-18T13:26:35Z</time>
      </trkpt>
      <trkpt lat="46.34317" lon="2.62739">
        <ele>272.67</ele>
        <time>2021-07-18T13:26:36Z</time>
      </trkpt>
      <trkpt lat="46.34316" lon="2.62758">
        <ele>273.15</ele>
        <time>2021-07-18T13:26:37Z</time>
      </trkpt>
      <trkpt lat="46.34311" lon="2.62939">
        <ele>276.52</ele>
        <time>2021-07-18T13:26:46Z</time>
      </trkpt>
      <trkpt lat="46.34314" lon="2.62958">
        <ele>277</ele>
        <time>2021-07-18T13:26:47Z</time>
      </trkpt>
      <trkpt lat="46.3432" lon="2.62975">
        <ele>277</ele>
        <time>2021-07-18T13:26:48Z</time>
      </trkpt>
      <trkpt lat="46.34327" lon="2.62992">
        <ele>277.48</ele>
        <time>2021-07-18T13:26:49Z</time>
      </trkpt>
      <trkpt lat="46.34335" lon="2.63007">
        <ele>277.96</ele>
        <time>2021-07-18T13:26:50Z</time>
      </trkpt>
      <trkpt lat="46.34344" lon="2.63022">
        <ele>278.44</ele>
        <time>2021-07-18T13:26:51Z</time>
      </trkpt>
      <trkpt lat="46.34386" lon="2.63092">
        <ele>281.32</ele>
        <time>2021-07-18T13:26:56Z</time>
      </trkpt>
      <trkpt lat="46.34392" lon="2.63105">
        <ele>281.32</ele>
        <time>2021-07-18T13:26:57Z</time>
      </trkpt>
      <trkpt lat="46.34393" lon="2.63122">
        <ele>282.28</ele>
        <time>2021-07-18T13:26:58Z</time>
      </trkpt>
      <trkpt lat="46.34394" lon="2.63137">
        <ele>282.77</ele>
        <time>2021-07-18T13:26:59Z</time>
      </trkpt>
      <trkpt lat="46.34391" lon="2.63148">
        <ele>283.73</ele>
        <time>2021-07-18T13:27:00Z</time>
      </trkpt>
      <trkpt lat="46.34385" lon="2.6316">
        <ele>284.21</ele>
        <time>2021-07-18T13:27:01Z</time>
      </trkpt>
      <trkpt lat="46.34376" lon="2.63171">
        <ele>285.17</ele>
        <time>2021-07-18T13:27:02Z</time>
      </trkpt>
      <trkpt lat="46.34367" lon="2.63178">
        <ele>285.65</ele>
        <time>2021-07-18T13:27:03Z</time>
      </trkpt>
      <trkpt lat="46.34356" lon="2.63184">
        <ele>286.13</ele>
        <time>2021-07-18T13:27:04Z</time>
      </trkpt>
      <trkpt lat="46.34331" lon="2.63192">
        <ele>286.61</ele>
        <time>2021-07-18T13:27:05Z</time>
      </trkpt>
      <trkpt lat="46.34201" lon="2.63204">
        <ele>294.78</ele>
        <time>2021-07-18T13:27:15Z</time>
      </trkpt>
      <trkpt lat="46.34044" lon="2.63189">
        <ele>298.63</ele>
        <time>2021-07-18T13:27:24Z</time>
      </trkpt>
      <trkpt lat="46.33996" lon="2.63187">
        <ele>300.55</ele>
        <time>2021-07-18T13:27:28Z</time>
      </trkpt>
      <trkpt lat="46.33965" lon="2.63179">
        <ele>300.55</ele>
        <time>2021-07-18T13:27:29Z</time>
      </trkpt>
      <trkpt lat="46.33965" lon="2.63179">
        <ele>301.03</ele>
        <time>2021-07-18T13:27:31Z</time>
      </trkpt>
      <trkpt lat="46.33859" lon="2.63146">
        <ele>305.36</ele>
        <time>2021-07-18T13:27:37Z</time>
      </trkpt>
      <trkpt lat="46.33844" lon="2.6315">
        <ele>304.88</ele>
        <time>2021-07-18T13:27:38Z</time>
      </trkpt>
      <trkpt lat="46.33828" lon="2.63154">
        <ele>303.91</ele>
        <time>2021-07-18T13:27:39Z</time>
      </trkpt>
      <trkpt lat="46.33814" lon="2.63161">
        <ele>304.39</ele>
        <time>2021-07-18T13:27:40Z</time>
      </trkpt>
      <trkpt lat="46.33801" lon="2.6317">
        <ele>305.36</ele>
        <time>2021-07-18T13:27:41Z</time>
      </trkpt>
      <trkpt lat="46.3379" lon="2.63184">
        <ele>305.36</ele>
        <time>2021-07-18T13:27:42Z</time>
      </trkpt>
      <trkpt lat="46.33779" lon="2.63202">
        <ele>305.36</ele>
        <time>2021-07-18T13:27:43Z</time>
      </trkpt>
      <trkpt lat="46.33771" lon="2.6322">
        <ele>304.88</ele>
        <time>2021-07-18T13:27:44Z</time>
      </trkpt>
      <trkpt lat="46.33765" lon="2.63241">
        <ele>305.36</ele>
        <time>2021-07-18T13:27:45Z</time>
      </trkpt>
      <trkpt lat="46.33761" lon="2.63263">
        <ele>305.36</ele>
        <time>2021-07-18T13:27:46Z</time>
      </trkpt>
      <trkpt lat="46.3371" lon="2.63501">
        <ele>315.45</ele>
        <time>2021-07-18T13:27:57Z</time>
      </trkpt>
      <trkpt lat="46.33708" lon="2.63523">
        <ele>315.93</ele>
        <time>2021-07-18T13:27:58Z</time>
      </trkpt>
      <trkpt lat="46.3371" lon="2.63544">
        <ele>316.89</ele>
        <time>2021-07-18T13:27:59Z</time>
      </trkpt>
      <trkpt lat="46.33713" lon="2.63564">
        <ele>317.85</ele>
        <time>2021-07-18T13:28:00Z</time>
      </trkpt>
      <trkpt lat="46.33717" lon="2.63583">
        <ele>318.33</ele>
        <time>2021-07-18T13:28:01Z</time>
      </trkpt>
      <trkpt lat="46.33725" lon="2.636">
        <ele>318.81</ele>
        <time>2021-07-18T13:28:02Z</time>
      </trkpt>
      <trkpt lat="46.33733" lon="2.63617">
        <ele>319.78</ele>
        <time>2021-07-18T13:28:03Z</time>
      </trkpt>
      <trkpt lat="46.33742" lon="2.63634">
        <ele>320.26</ele>
        <time>2021-07-18T13:28:04Z</time>
      </trkpt>
      <trkpt lat="46.33874" lon="2.63866">
        <ele>328.91</ele>
        <time>2021-07-18T13:28:19Z</time>
      </trkpt>
      <trkpt lat="46.33883" lon="2.63898">
        <ele>329.39</ele>
        <time>2021-07-18T13:28:20Z</time>
      </trkpt>
      <trkpt lat="46.33883" lon="2.63916">
        <ele>329.39</ele>
        <time>2021-07-18T13:28:21Z</time>
      </trkpt>
      <trkpt lat="46.33874" lon="2.63949">
        <ele>329.39</ele>
        <time>2021-07-18T13:28:22Z</time>
      </trkpt>
      <trkpt lat="46.33866" lon="2.63963">
        <ele>329.87</ele>
        <time>2021-07-18T13:28:23Z</time>
      </trkpt>
      <trkpt lat="46.33855" lon="2.63972">
        <ele>330.83</ele>
        <time>2021-07-18T13:28:24Z</time>
      </trkpt>
      <trkpt lat="46.33843" lon="2.63982">
        <ele>331.79</ele>
        <time>2021-07-18T13:28:25Z</time>
      </trkpt>
      <trkpt lat="46.33832" lon="2.63991">
        <ele>332.27</ele>
        <time>2021-07-18T13:28:26Z</time>
      </trkpt>
      <trkpt lat="46.33832" lon="2.63991">
        <ele>333.23</ele>
        <time>2021-07-18T13:28:27Z</time>
      </trkpt>
      <trkpt lat="46.33809" lon="2.64012">
        <ele>333.71</ele>
        <time>2021-07-18T13:28:28Z</time>
      </trkpt>
      <trkpt lat="46.33809" lon="2.64012">
        <ele>333.23</ele>
        <time>2021-07-18T13:28:29Z</time>
      </trkpt>
      <trkpt lat="46.33792" lon="2.64044">
        <ele>333.71</ele>
        <time>2021-07-18T13:28:30Z</time>
      </trkpt>
      <trkpt lat="46.33787" lon="2.64061">
        <ele>333.23</ele>
        <time>2021-07-18T13:28:31Z</time>
      </trkpt>
      <trkpt lat="46.33787" lon="2.64081">
        <ele>334.2</ele>
        <time>2021-07-18T13:28:32Z</time>
      </trkpt>
      <trkpt lat="46.33787" lon="2.64081">
        <ele>334.68</ele>
        <time>2021-07-18T13:28:33Z</time>
      </trkpt>
      <trkpt lat="46.3379" lon="2.64122">
        <ele>335.16</ele>
        <time>2021-07-18T13:28:34Z</time>
      </trkpt>
      <trkpt lat="46.33794" lon="2.64143">
        <ele>335.64</ele>
        <time>2021-07-18T13:28:35Z</time>
      </trkpt>
      <trkpt lat="46.33794" lon="2.64143">
        <ele>336.12</ele>
        <time>2021-07-18T13:28:36Z</time>
      </trkpt>
      <trkpt lat="46.33808" lon="2.64203">
        <ele>337.56</ele>
        <time>2021-07-18T13:28:39Z</time>
      </trkpt>
      <trkpt lat="46.3381" lon="2.64224">
        <ele>338.04</ele>
        <time>2021-07-18T13:28:40Z</time>
      </trkpt>
      <trkpt lat="46.33809" lon="2.64244">
        <ele>338.52</ele>
        <time>2021-07-18T13:28:41Z</time>
      </trkpt>
      <trkpt lat="46.33805" lon="2.64263">
        <ele>339</ele>
        <time>2021-07-18T13:28:42Z</time>
      </trkpt>
      <trkpt lat="46.33799" lon="2.64281">
        <ele>339.48</ele>
        <time>2021-07-18T13:28:43Z</time>
      </trkpt>
      <trkpt lat="46.33789" lon="2.64295">
        <ele>340.44</ele>
        <time>2021-07-18T13:28:44Z</time>
      </trkpt>
      <trkpt lat="46.33766" lon="2.6432">
        <ele>341.41</ele>
        <time>2021-07-18T13:28:45Z</time>
      </trkpt>
      <trkpt lat="46.33766" lon="2.6432">
        <ele>342.85</ele>
        <time>2021-07-18T13:28:46Z</time>
      </trkpt>
      <trkpt lat="46.33751" lon="2.64327">
        <ele>342.85</ele>
        <time>2021-07-18T13:28:47Z</time>
      </trkpt>
      <trkpt lat="46.33695" lon="2.64358">
        <ele>344.77</ele>
        <time>2021-07-18T13:28:51Z</time>
      </trkpt>
      <trkpt lat="46.33673" lon="2.64383">
        <ele>345.73</ele>
        <time>2021-07-18T13:28:52Z</time>
      </trkpt>
      <trkpt lat="46.3366" lon="2.64396">
        <ele>345.73</ele>
        <time>2021-07-18T13:28:53Z</time>
      </trkpt>
      <trkpt lat="46.3366" lon="2.64396">
        <ele>345.73</ele>
        <time>2021-07-18T13:28:54Z</time>
      </trkpt>
      <trkpt lat="46.33642" lon="2.64434">
        <ele>345.25</ele>
        <time>2021-07-18T13:28:55Z</time>
      </trkpt>
      <trkpt lat="46.33638" lon="2.64455">
        <ele>345.73</ele>
        <time>2021-07-18T13:28:56Z</time>
      </trkpt>
      <trkpt lat="46.33634" lon="2.64477">
        <ele>345.73</ele>
        <time>2021-07-18T13:28:57Z</time>
      </trkpt>
      <trkpt lat="46.33634" lon="2.64477">
        <ele>346.21</ele>
        <time>2021-07-18T13:28:58Z</time>
      </trkpt>
      <trkpt lat="46.33634" lon="2.64523">
        <ele>347.17</ele>
        <time>2021-07-18T13:28:59Z</time>
      </trkpt>
      <trkpt lat="46.33636" lon="2.64545">
        <ele>348.13</ele>
        <time>2021-07-18T13:29:00Z</time>
      </trkpt>
      <trkpt lat="46.33642" lon="2.64565">
        <ele>349.1</ele>
        <time>2021-07-18T13:29:01Z</time>
      </trkpt>
      <trkpt lat="46.33642" lon="2.64565">
        <ele>349.58</ele>
        <time>2021-07-18T13:29:02Z</time>
      </trkpt>
      <trkpt lat="46.3365" lon="2.64584">
        <ele>350.06</ele>
        <time>2021-07-18T13:29:03Z</time>
      </trkpt>
      <trkpt lat="46.3366" lon="2.64603">
        <ele>351.02</ele>
        <time>2021-07-18T13:29:04Z</time>
      </trkpt>
      <trkpt lat="46.33671" lon="2.64618">
        <ele>351.5</ele>
        <time>2021-07-18T13:29:05Z</time>
      </trkpt>
      <trkpt lat="46.33685" lon="2.64631">
        <ele>351.98</ele>
        <time>2021-07-18T13:29:06Z</time>
      </trkpt>
      <trkpt lat="46.33699" lon="2.64644">
        <ele>352.94</ele>
        <time>2021-07-18T13:29:07Z</time>
      </trkpt>
      <trkpt lat="46.33712" lon="2.64655">
        <ele>353.42</ele>
        <time>2021-07-18T13:29:08Z</time>
      </trkpt>
      <trkpt lat="46.33895" lon="2.64742">
        <ele>360.63</ele>
        <time>2021-07-18T13:29:19Z</time>
      </trkpt>
      <trkpt lat="46.33908" lon="2.64752">
        <ele>363.52</ele>
        <time>2021-07-18T13:29:21Z</time>
      </trkpt>
      <trkpt lat="46.3392" lon="2.64765">
        <ele>363.04</ele>
        <time>2021-07-18T13:29:22Z</time>
      </trkpt>
      <trkpt lat="46.33933" lon="2.64778">
        <ele>362.55</ele>
        <time>2021-07-18T13:29:23Z</time>
      </trkpt>
      <trkpt lat="46.33943" lon="2.64793">
        <ele>362.55</ele>
        <time>2021-07-18T13:29:24Z</time>
      </trkpt>
      <trkpt lat="46.33952" lon="2.64811">
        <ele>363.04</ele>
        <time>2021-07-18T13:29:25Z</time>
      </trkpt>
      <trkpt lat="46.33962" lon="2.64831">
        <ele>364</ele>
        <time>2021-07-18T13:29:26Z</time>
      </trkpt>
      <trkpt lat="46.33967" lon="2.64851">
        <ele>364</ele>
        <time>2021-07-18T13:29:27Z</time>
      </trkpt>
      <trkpt lat="46.33979" lon="2.64896">
        <ele>364</ele>
        <time>2021-07-18T13:29:28Z</time>
      </trkpt>
      <trkpt lat="46.34052" lon="2.65228">
        <ele>368.32</ele>
        <time>2021-07-18T13:29:43Z</time>
      </trkpt>
      <trkpt lat="46.3408" lon="2.65437">
        <ele>367.84</ele>
        <time>2021-07-18T13:29:50Z</time>
      </trkpt>
      <trkpt lat="46.3408" lon="2.65437">
        <ele>368.32</ele>
        <time>2021-07-18T13:29:51Z</time>
      </trkpt>
      <trkpt lat="46.34078" lon="2.65463">
        <ele>369.28</ele>
        <time>2021-07-18T13:29:52Z</time>
      </trkpt>
      <trkpt lat="46.34073" lon="2.65486">
        <ele>369.76</ele>
        <time>2021-07-18T13:29:53Z</time>
      </trkpt>
      <trkpt lat="46.34068" lon="2.65511">
        <ele>370.24</ele>
        <time>2021-07-18T13:29:54Z</time>
      </trkpt>
      <trkpt lat="46.3396" lon="2.65884">
        <ele>372.17</ele>
        <time>2021-07-18T13:30:09Z</time>
      </trkpt>
      <trkpt lat="46.33884" lon="2.66212">
        <ele>377.94</ele>
        <time>2021-07-18T13:30:21Z</time>
      </trkpt>
      <trkpt lat="46.33807" lon="2.66753">
        <ele>383.7</ele>
        <time>2021-07-18T13:30:39Z</time>
      </trkpt>
      <trkpt lat="46.33733" lon="2.6728">
        <ele>388.03</ele>
        <time>2021-07-18T13:30:56Z</time>
      </trkpt>
      <trkpt lat="46.33666" lon="2.67768">
        <ele>386.59</ele>
        <time>2021-07-18T13:31:14Z</time>
      </trkpt>
      <trkpt lat="46.33589" lon="2.68319">
        <ele>379.86</ele>
        <time>2021-07-18T13:31:32Z</time>
      </trkpt>
      <trkpt lat="46.33506" lon="2.68893">
        <ele>383.22</ele>
        <time>2021-07-18T13:31:52Z</time>
      </trkpt>
      <trkpt lat="46.33458" lon="2.69238">
        <ele>372.17</ele>
        <time>2021-07-18T13:32:04Z</time>
      </trkpt>
      <trkpt lat="46.3342" lon="2.69508">
        <ele>363.04</ele>
        <time>2021-07-18T13:32:14Z</time>
      </trkpt>
      <trkpt lat="46.33379" lon="2.69794">
        <ele>355.83</ele>
        <time>2021-07-18T13:32:27Z</time>
      </trkpt>
      <trkpt lat="46.33343" lon="2.70056">
        <ele>353.9</ele>
        <time>2021-07-18T13:32:42Z</time>
      </trkpt>
      <trkpt lat="46.33328" lon="2.70149">
        <ele>351.02</ele>
        <time>2021-07-18T13:32:50Z</time>
      </trkpt>
      <trkpt lat="46.33327" lon="2.70156">
        <ele>350.54</ele>
        <time>2021-07-18T13:32:51Z</time>
      </trkpt>
      <trkpt lat="46.33325" lon="2.7016">
        <ele>350.54</ele>
        <time>2021-07-18T13:32:52Z</time>
      </trkpt>
      <trkpt lat="46.33323" lon="2.70169">
        <ele>350.54</ele>
        <time>2021-07-18T13:32:53Z</time>
      </trkpt>
      <trkpt lat="46.33323" lon="2.70171">
        <ele>350.54</ele>
        <time>2021-07-18T13:32:54Z</time>
      </trkpt>
      <trkpt lat="46.33328" lon="2.70182">
        <ele>350.54</ele>
        <time>2021-07-18T13:32:55Z</time>
      </trkpt>
      <trkpt lat="46.33328" lon="2.7019">
        <ele>349.58</ele>
        <time>2021-07-18T13:32:57Z</time>
      </trkpt>
      <trkpt lat="46.33339" lon="2.70348">
        <ele>348.62</ele>
        <time>2021-07-18T13:33:08Z</time>
      </trkpt>
      <trkpt lat="46.33324" lon="2.70582">
        <ele>347.17</ele>
        <time>2021-07-18T13:33:20Z</time>
      </trkpt>
      <trkpt lat="46.33299" lon="2.70858">
        <ele>341.89</ele>
        <time>2021-07-18T13:33:34Z</time>
      </trkpt>
      <trkpt lat="46.33258" lon="2.71308">
        <ele>336.6</ele>
        <time>2021-07-18T13:33:50Z</time>
      </trkpt>
      <trkpt lat="46.33236" lon="2.7156">
        <ele>338.04</ele>
        <time>2021-07-18T13:34:01Z</time>
      </trkpt>
      <trkpt lat="46.33233" lon="2.71596">
        <ele>338.52</ele>
        <time>2021-07-18T13:34:04Z</time>
      </trkpt>
      <trkpt lat="46.33233" lon="2.71603">
        <ele>338.04</ele>
        <time>2021-07-18T13:34:05Z</time>
      </trkpt>
      <trkpt lat="46.33216" lon="2.71615">
        <ele>339</ele>
        <time>2021-07-18T13:34:07Z</time>
      </trkpt>
      <trkpt lat="46.33212" lon="2.71621">
        <ele>339.48</ele>
        <time>2021-07-18T13:34:08Z</time>
      </trkpt>
      <trkpt lat="46.33213" lon="2.71634">
        <ele>339.48</ele>
        <time>2021-07-18T13:34:09Z</time>
      </trkpt>
      <trkpt lat="46.33214" lon="2.71639">
        <ele>339.48</ele>
        <time>2021-07-18T13:34:10Z</time>
      </trkpt>
      <trkpt lat="46.33226" lon="2.71661">
        <ele>339.48</ele>
        <time>2021-07-18T13:34:11Z</time>
      </trkpt>
      <trkpt lat="46.33226" lon="2.71661">
        <ele>339.48</ele>
        <time>2021-07-18T13:34:12Z</time>
      </trkpt>
      <trkpt lat="46.33225" lon="2.71686">
        <ele>339.48</ele>
        <time>2021-07-18T13:34:13Z</time>
      </trkpt>
      <trkpt lat="46.33225" lon="2.71686">
        <ele>339.48</ele>
        <time>2021-07-18T13:34:14Z</time>
      </trkpt>
      <trkpt lat="46.33208" lon="2.71861">
        <ele>339</ele>
        <time>2021-07-18T13:34:24Z</time>
      </trkpt>
      <trkpt lat="46.3318" lon="2.7215">
        <ele>333.71</ele>
        <time>2021-07-18T13:34:37Z</time>
      </trkpt>
      <trkpt lat="46.33136" lon="2.72635">
        <ele>344.29</ele>
        <time>2021-07-18T13:34:54Z</time>
      </trkpt>
      <trkpt lat="46.33092" lon="2.73127">
        <ele>355.83</ele>
        <time>2021-07-18T13:35:12Z</time>
      </trkpt>
      <trkpt lat="46.33039" lon="2.73714">
        <ele>368.8</ele>
        <time>2021-07-18T13:35:32Z</time>
      </trkpt>
      <trkpt lat="46.33012" lon="2.74157">
        <ele>364.96</ele>
        <time>2021-07-18T13:35:48Z</time>
      </trkpt>
      <trkpt lat="46.33048" lon="2.74363">
        <ele>358.71</ele>
        <time>2021-07-18T13:35:55Z</time>
      </trkpt>
      <trkpt lat="46.33118" lon="2.74666">
        <ele>343.33</ele>
        <time>2021-07-18T13:36:05Z</time>
      </trkpt>
      <trkpt lat="46.33121" lon="2.74939">
        <ele>328.43</ele>
        <time>2021-07-18T13:36:13Z</time>
      </trkpt>
      <trkpt lat="46.33111" lon="2.75517">
        <ele>327.95</ele>
        <time>2021-07-18T13:36:30Z</time>
      </trkpt>
      <trkpt lat="46.3308" lon="2.75733">
        <ele>334.2</ele>
        <time>2021-07-18T13:36:37Z</time>
      </trkpt>
      <trkpt lat="46.33066" lon="2.75939">
        <ele>341.89</ele>
        <time>2021-07-18T13:36:44Z</time>
      </trkpt>
      <trkpt lat="46.3312" lon="2.76196">
        <ele>349.1</ele>
        <time>2021-07-18T13:36:52Z</time>
      </trkpt>
      <trkpt lat="46.33229" lon="2.76658">
        <ele>353.9</ele>
        <time>2021-07-18T13:37:09Z</time>
      </trkpt>
      <trkpt lat="46.33277" lon="2.77049">
        <ele>347.65</ele>
        <time>2021-07-18T13:37:21Z</time>
      </trkpt>
      <trkpt lat="46.33331" lon="2.77512">
        <ele>337.56</ele>
        <time>2021-07-18T13:37:35Z</time>
      </trkpt>
      <trkpt lat="46.33381" lon="2.77938">
        <ele>331.31</ele>
        <time>2021-07-18T13:37:50Z</time>
      </trkpt>
      <trkpt lat="46.33428" lon="2.7834">
        <ele>328.43</ele>
        <time>2021-07-18T13:38:06Z</time>
      </trkpt>
      <trkpt lat="46.33475" lon="2.78744">
        <ele>327.95</ele>
        <time>2021-07-18T13:38:23Z</time>
      </trkpt>
      <trkpt lat="46.33519" lon="2.79112">
        <ele>326.5</ele>
        <time>2021-07-18T13:38:40Z</time>
      </trkpt>
      <trkpt lat="46.33574" lon="2.79578">
        <ele>320.26</ele>
        <time>2021-07-18T13:39:06Z</time>
      </trkpt>
      <trkpt lat="46.33598" lon="2.79792">
        <ele>317.85</ele>
        <time>2021-07-18T13:39:20Z</time>
      </trkpt>
      <trkpt lat="46.336" lon="2.79959">
        <ele>314.97</ele>
        <time>2021-07-18T13:39:31Z</time>
      </trkpt>
      <trkpt lat="46.33583" lon="2.80226">
        <ele>311.6</ele>
        <time>2021-07-18T13:39:45Z</time>
      </trkpt>
      <trkpt lat="46.33554" lon="2.80664">
        <ele>303.43</ele>
        <time>2021-07-18T13:40:05Z</time>
      </trkpt>
      <trkpt lat="46.33551" lon="2.80685">
        <ele>302.47</ele>
        <time>2021-07-18T13:40:06Z</time>
      </trkpt>
      <trkpt lat="46.33547" lon="2.80705">
        <ele>301.99</ele>
        <time>2021-07-18T13:40:07Z</time>
      </trkpt>
      <trkpt lat="46.33542" lon="2.80724">
        <ele>301.03</ele>
        <time>2021-07-18T13:40:08Z</time>
      </trkpt>
      <trkpt lat="46.33535" lon="2.80743">
        <ele>299.59</ele>
        <time>2021-07-18T13:40:09Z</time>
      </trkpt>
      <trkpt lat="46.33527" lon="2.80762">
        <ele>298.63</ele>
        <time>2021-07-18T13:40:10Z</time>
      </trkpt>
      <trkpt lat="46.3352" lon="2.80781">
        <ele>297.67</ele>
        <time>2021-07-18T13:40:11Z</time>
      </trkpt>
      <trkpt lat="46.33515" lon="2.808">
        <ele>297.18</ele>
        <time>2021-07-18T13:40:12Z</time>
      </trkpt>
      <trkpt lat="46.3351" lon="2.80821">
        <ele>296.22</ele>
        <time>2021-07-18T13:40:13Z</time>
      </trkpt>
      <trkpt lat="46.33506" lon="2.80841">
        <ele>295.74</ele>
        <time>2021-07-18T13:40:14Z</time>
      </trkpt>
      <trkpt lat="46.33502" lon="2.80862">
        <ele>295.26</ele>
        <time>2021-07-18T13:40:15Z</time>
      </trkpt>
      <trkpt lat="46.33469" lon="2.81133">
        <ele>289.01</ele>
        <time>2021-07-18T13:40:27Z</time>
      </trkpt>
      <trkpt lat="46.33402" lon="2.81411">
        <ele>281.8</ele>
        <time>2021-07-18T13:40:38Z</time>
      </trkpt>
      <trkpt lat="46.33372" lon="2.81573">
        <ele>287.57</ele>
        <time>2021-07-18T13:40:45Z</time>
      </trkpt>
      <trkpt lat="46.33371" lon="2.81597">
        <ele>289.01</ele>
        <time>2021-07-18T13:40:46Z</time>
      </trkpt>
      <trkpt lat="46.33372" lon="2.81643">
        <ele>289.97</ele>
        <time>2021-07-18T13:40:47Z</time>
      </trkpt>
      <trkpt lat="46.33377" lon="2.81664">
        <ele>289.97</ele>
        <time>2021-07-18T13:40:48Z</time>
      </trkpt>
      <trkpt lat="46.33377" lon="2.81664">
        <ele>290.94</ele>
        <time>2021-07-18T13:40:49Z</time>
      </trkpt>
      <trkpt lat="46.33382" lon="2.81687">
        <ele>291.42</ele>
        <time>2021-07-18T13:40:50Z</time>
      </trkpt>
      <trkpt lat="46.33387" lon="2.81709">
        <ele>292.38</ele>
        <time>2021-07-18T13:40:51Z</time>
      </trkpt>
      <trkpt lat="46.33503" lon="2.82045">
        <ele>304.39</ele>
        <time>2021-07-18T13:41:05Z</time>
      </trkpt>
      <trkpt lat="46.33613" lon="2.82332">
        <ele>315.93</ele>
        <time>2021-07-18T13:41:19Z</time>
      </trkpt>
      <trkpt lat="46.33719" lon="2.82605">
        <ele>323.14</ele>
        <time>2021-07-18T13:41:33Z</time>
      </trkpt>
      <trkpt lat="46.33735" lon="2.82779">
        <ele>323.62</ele>
        <time>2021-07-18T13:41:41Z</time>
      </trkpt>
      <trkpt lat="46.33703" lon="2.82928">
        <ele>324.1</ele>
        <time>2021-07-18T13:41:48Z</time>
      </trkpt>
      <trkpt lat="46.33596" lon="2.83159">
        <ele>326.5</ele>
        <time>2021-07-18T13:42:01Z</time>
      </trkpt>
      <trkpt lat="46.33426" lon="2.8351">
        <ele>333.71</ele>
        <time>2021-07-18T13:42:20Z</time>
      </trkpt>
      <trkpt lat="46.33307" lon="2.83755">
        <ele>331.79</ele>
        <time>2021-07-18T13:42:35Z</time>
      </trkpt>
      <trkpt lat="46.33198" lon="2.83982">
        <ele>330.35</ele>
        <time>2021-07-18T13:42:50Z</time>
      </trkpt>
      <trkpt lat="46.32981" lon="2.84433">
        <ele>316.41</ele>
        <time>2021-07-18T13:43:19Z</time>
      </trkpt>
      <trkpt lat="46.32898" lon="2.84606">
        <ele>305.84</ele>
        <time>2021-07-18T13:43:31Z</time>
      </trkpt>
      <trkpt lat="46.32776" lon="2.84858">
        <ele>295.74</ele>
        <time>2021-07-18T13:43:47Z</time>
      </trkpt>
      <trkpt lat="46.32714" lon="2.84992">
        <ele>289.97</ele>
        <time>2021-07-18T13:43:57Z</time>
      </trkpt>
      <trkpt lat="46.32711" lon="2.85008">
        <ele>289.97</ele>
        <time>2021-07-18T13:43:58Z</time>
      </trkpt>
      <trkpt lat="46.32709" lon="2.85022">
        <ele>290.94</ele>
        <time>2021-07-18T13:43:59Z</time>
      </trkpt>
      <trkpt lat="46.32706" lon="2.85036">
        <ele>291.9</ele>
        <time>2021-07-18T13:44:00Z</time>
      </trkpt>
      <trkpt lat="46.32705" lon="2.85051">
        <ele>292.86</ele>
        <time>2021-07-18T13:44:01Z</time>
      </trkpt>
      <trkpt lat="46.32705" lon="2.85066">
        <ele>293.82</ele>
        <time>2021-07-18T13:44:02Z</time>
      </trkpt>
      <trkpt lat="46.32708" lon="2.85084">
        <ele>294.3</ele>
        <time>2021-07-18T13:44:03Z</time>
      </trkpt>
      <trkpt lat="46.3272" lon="2.85225">
        <ele>293.34</ele>
        <time>2021-07-18T13:44:10Z</time>
      </trkpt>
      <trkpt lat="46.32719" lon="2.85245">
        <ele>293.82</ele>
        <time>2021-07-18T13:44:11Z</time>
      </trkpt>
      <trkpt lat="46.32717" lon="2.85264">
        <ele>294.3</ele>
        <time>2021-07-18T13:44:12Z</time>
      </trkpt>
      <trkpt lat="46.32711" lon="2.85283">
        <ele>293.34</ele>
        <time>2021-07-18T13:44:13Z</time>
      </trkpt>
      <trkpt lat="46.32705" lon="2.85303">
        <ele>291.9</ele>
        <time>2021-07-18T13:44:14Z</time>
      </trkpt>
      <trkpt lat="46.32697" lon="2.85321">
        <ele>291.9</ele>
        <time>2021-07-18T13:44:15Z</time>
      </trkpt>
      <trkpt lat="46.32598" lon="2.85484">
        <ele>291.9</ele>
        <time>2021-07-18T13:44:24Z</time>
      </trkpt>
      <trkpt lat="46.32389" lon="2.85711">
        <ele>295.74</ele>
        <time>2021-07-18T13:44:38Z</time>
      </trkpt>
      <trkpt lat="46.32271" lon="2.85871">
        <ele>297.67</ele>
        <time>2021-07-18T13:44:48Z</time>
      </trkpt>
      <trkpt lat="46.3225" lon="2.85937">
        <ele>299.59</ele>
        <time>2021-07-18T13:44:51Z</time>
      </trkpt>
      <trkpt lat="46.32247" lon="2.85959">
        <ele>301.99</ele>
        <time>2021-07-18T13:44:52Z</time>
      </trkpt>
      <trkpt lat="46.32238" lon="2.86175">
        <ele>311.6</ele>
        <time>2021-07-18T13:45:01Z</time>
      </trkpt>
      <trkpt lat="46.32235" lon="2.86478">
        <ele>316.41</ele>
        <time>2021-07-18T13:45:12Z</time>
      </trkpt>
      <trkpt lat="46.32205" lon="2.86714">
        <ele>314.97</ele>
        <time>2021-07-18T13:45:20Z</time>
      </trkpt>
      <trkpt lat="46.32111" lon="2.873">
        <ele>319.78</ele>
        <time>2021-07-18T13:45:40Z</time>
      </trkpt>
      <trkpt lat="46.32034" lon="2.87796">
        <ele>329.39</ele>
        <time>2021-07-18T13:45:56Z</time>
      </trkpt>
      <trkpt lat="46.32018" lon="2.88026">
        <ele>336.12</ele>
        <time>2021-07-18T13:46:04Z</time>
      </trkpt>
      <trkpt lat="46.3206" lon="2.88217">
        <ele>342.85</ele>
        <time>2021-07-18T13:46:11Z</time>
      </trkpt>
      <trkpt lat="46.32193" lon="2.88642">
        <ele>354.38</ele>
        <time>2021-07-18T13:46:28Z</time>
      </trkpt>
      <trkpt lat="46.32382" lon="2.89245">
        <ele>354.86</ele>
        <time>2021-07-18T13:46:50Z</time>
      </trkpt>
      <trkpt lat="46.32575" lon="2.89869">
        <ele>344.77</ele>
        <time>2021-07-18T13:47:11Z</time>
      </trkpt>
      <trkpt lat="46.32676" lon="2.90198">
        <ele>360.63</ele>
        <time>2021-07-18T13:47:23Z</time>
      </trkpt>
      <trkpt lat="46.3271" lon="2.90417">
        <ele>365.44</ele>
        <time>2021-07-18T13:47:31Z</time>
      </trkpt>
      <trkpt lat="46.32688" lon="2.90644">
        <ele>370.73</ele>
        <time>2021-07-18T13:47:39Z</time>
      </trkpt>
      <trkpt lat="46.32599" lon="2.90927">
        <ele>369.76</ele>
        <time>2021-07-18T13:47:49Z</time>
      </trkpt>
      <trkpt lat="46.32405" lon="2.91522">
        <ele>384.18</ele>
        <time>2021-07-18T13:48:09Z</time>
      </trkpt>
      <trkpt lat="46.32242" lon="2.92023">
        <ele>402.45</ele>
        <time>2021-07-18T13:48:29Z</time>
      </trkpt>
      <trkpt lat="46.32073" lon="2.92541">
        <ele>419.75</ele>
        <time>2021-07-18T13:48:49Z</time>
      </trkpt>
      <trkpt lat="46.31918" lon="2.93014">
        <ele>433.69</ele>
        <time>2021-07-18T13:49:06Z</time>
      </trkpt>
      <trkpt lat="46.31854" lon="2.93205">
        <ele>445.71</ele>
        <time>2021-07-18T13:49:15Z</time>
      </trkpt>
      <trkpt lat="46.31796" lon="2.93432">
        <ele>454.84</ele>
        <time>2021-07-18T13:49:26Z</time>
      </trkpt>
      <trkpt lat="46.3181" lon="2.93609">
        <ele>458.69</ele>
        <time>2021-07-18T13:49:33Z</time>
      </trkpt>
      <trkpt lat="46.31852" lon="2.93921">
        <ele>463.97</ele>
        <time>2021-07-18T13:49:45Z</time>
      </trkpt>
      <trkpt lat="46.31838" lon="2.94155">
        <ele>468.78</ele>
        <time>2021-07-18T13:49:55Z</time>
      </trkpt>
      <trkpt lat="46.31827" lon="2.94357">
        <ele>472.63</ele>
        <time>2021-07-18T13:50:06Z</time>
      </trkpt>
      <trkpt lat="46.31815" lon="2.94558">
        <ele>476.47</ele>
        <time>2021-07-18T13:50:20Z</time>
      </trkpt>
      <trkpt lat="46.31808" lon="2.94661">
        <ele>477.91</ele>
        <time>2021-07-18T13:50:30Z</time>
      </trkpt>
      <trkpt lat="46.31805" lon="2.94737">
        <ele>477.91</ele>
        <time>2021-07-18T13:50:39Z</time>
      </trkpt>
      <trkpt lat="46.31791" lon="2.94939">
        <ele>477.43</ele>
        <time>2021-07-18T13:50:55Z</time>
      </trkpt>
      <trkpt lat="46.31791" lon="2.94946">
        <ele>477.43</ele>
        <time>2021-07-18T13:50:57Z</time>
      </trkpt>
      <trkpt lat="46.31783" lon="2.95066">
        <ele>476.47</ele>
        <time>2021-07-18T13:51:07Z</time>
      </trkpt>
      <trkpt lat="46.3178" lon="2.95119">
        <ele>475.99</ele>
        <time>2021-07-18T13:51:15Z</time>
      </trkpt>
      <trkpt lat="46.31773" lon="2.95203">
        <ele>475.51</ele>
        <time>2021-07-18T13:51:25Z</time>
      </trkpt>
      <trkpt lat="46.31772" lon="2.95266">
        <ele>475.99</ele>
        <time>2021-07-18T13:51:34Z</time>
      </trkpt>
      <trkpt lat="46.31785" lon="2.95283">
        <ele>476.47</ele>
        <time>2021-07-18T13:51:37Z</time>
      </trkpt>
      <trkpt lat="46.3183" lon="2.95309">
        <ele>475.99</ele>
        <time>2021-07-18T13:51:44Z</time>
      </trkpt>
      <trkpt lat="46.31836" lon="2.95312">
        <ele>475.51</ele>
        <time>2021-07-18T13:51:46Z</time>
      </trkpt>
      <trkpt lat="46.3187" lon="2.95322">
        <ele>473.59</ele>
        <time>2021-07-18T13:51:50Z</time>
      </trkpt>
      <trkpt lat="46.31876" lon="2.95324">
        <ele>473.59</ele>
        <time>2021-07-18T13:51:51Z</time>
      </trkpt>
      <trkpt lat="46.31881" lon="2.95326">
        <ele>473.11</ele>
        <time>2021-07-18T13:51:52Z</time>
      </trkpt>
      <trkpt lat="46.31887" lon="2.95335">
        <ele>473.11</ele>
        <time>2021-07-18T13:51:53Z</time>
      </trkpt>
      <trkpt lat="46.31888" lon="2.95344">
        <ele>473.59</ele>
        <time>2021-07-18T13:51:54Z</time>
      </trkpt>
      <trkpt lat="46.31888" lon="2.95353">
        <ele>473.59</ele>
        <time>2021-07-18T13:51:55Z</time>
      </trkpt>
      <trkpt lat="46.31892" lon="2.95419">
        <ele>475.99</ele>
        <time>2021-07-18T13:52:04Z</time>
      </trkpt>
      <trkpt lat="46.31898" lon="2.95524">
        <ele>478.39</ele>
        <time>2021-07-18T13:52:13Z</time>
      </trkpt>
      <trkpt lat="46.31903" lon="2.95621">
        <ele>480.8</ele>
        <time>2021-07-18T13:52:23Z</time>
      </trkpt>
      <trkpt lat="46.31907" lon="2.95654">
        <ele>483.2</ele>
        <time>2021-07-18T13:52:32Z</time>
      </trkpt>
      <trkpt lat="46.31914" lon="2.9575">
        <ele>486.56</ele>
        <time>2021-07-18T13:52:40Z</time>
      </trkpt>
      <trkpt lat="46.31933" lon="2.95919">
        <ele>492.81</ele>
        <time>2021-07-18T13:52:53Z</time>
      </trkpt>
      <trkpt lat="46.31943" lon="2.95926">
        <ele>492.81</ele>
        <time>2021-07-18T13:52:54Z</time>
      </trkpt>
      <trkpt lat="46.31943" lon="2.95926">
        <ele>492.81</ele>
        <time>2021-07-18T13:52:55Z</time>
      </trkpt>
      <trkpt lat="46.32044" lon="2.96065">
        <ele>491.85</ele>
        <time>2021-07-18T13:53:10Z</time>
      </trkpt>
      <trkpt lat="46.32091" lon="2.96121">
        <ele>491.85</ele>
        <time>2021-07-18T13:53:19Z</time>
      </trkpt>
      <trkpt lat="46.32159" lon="2.96205">
        <ele>491.37</ele>
        <time>2021-07-18T13:53:29Z</time>
      </trkpt>
      <trkpt lat="46.32279" lon="2.96353">
        <ele>490.41</ele>
        <time>2021-07-18T13:53:41Z</time>
      </trkpt>
      <trkpt lat="46.32395" lon="2.96494">
        <ele>490.41</ele>
        <time>2021-07-18T13:53:52Z</time>
      </trkpt>
      <trkpt lat="46.32508" lon="2.96654">
        <ele>489.93</ele>
        <time>2021-07-18T13:54:04Z</time>
      </trkpt>
      <trkpt lat="46.3254" lon="2.96737">
        <ele>491.37</ele>
        <time>2021-07-18T13:54:12Z</time>
      </trkpt>
      <trkpt lat="46.32544" lon="2.96748">
        <ele>491.85</ele>
        <time>2021-07-18T13:54:19Z</time>
      </trkpt>
      <trkpt lat="46.32544" lon="2.9675">
        <ele>491.85</ele>
        <time>2021-07-18T13:54:20Z</time>
      </trkpt>
      <trkpt lat="46.32543" lon="2.96755">
        <ele>491.85</ele>
        <time>2021-07-18T13:54:21Z</time>
      </trkpt>
      <trkpt lat="46.32539" lon="2.9677">
        <ele>491.85</ele>
        <time>2021-07-18T13:54:23Z</time>
      </trkpt>
      <trkpt lat="46.32537" lon="2.96778">
        <ele>491.85</ele>
        <time>2021-07-18T13:54:24Z</time>
      </trkpt>
      <trkpt lat="46.32538" lon="2.96793">
        <ele>491.85</ele>
        <time>2021-07-18T13:54:25Z</time>
      </trkpt>
      <trkpt lat="46.32541" lon="2.96803">
        <ele>491.85</ele>
        <time>2021-07-18T13:54:26Z</time>
      </trkpt>
      <trkpt lat="46.32543" lon="2.96813">
        <ele>492.33</ele>
        <time>2021-07-18T13:54:28Z</time>
      </trkpt>
      <trkpt lat="46.32555" lon="2.96828">
        <ele>492.33</ele>
        <time>2021-07-18T13:54:29Z</time>
      </trkpt>
      <trkpt lat="46.32561" lon="2.96832">
        <ele>491.85</ele>
        <time>2021-07-18T13:54:30Z</time>
      </trkpt>
      <trkpt lat="46.32569" lon="2.96835">
        <ele>491.37</ele>
        <time>2021-07-18T13:54:31Z</time>
      </trkpt>
      <trkpt lat="46.32576" lon="2.96837">
        <ele>490.89</ele>
        <time>2021-07-18T13:54:32Z</time>
      </trkpt>
      <trkpt lat="46.32584" lon="2.96835">
        <ele>490.41</ele>
        <time>2021-07-18T13:54:33Z</time>
      </trkpt>
      <trkpt lat="46.32592" lon="2.96834">
        <ele>490.41</ele>
        <time>2021-07-18T13:54:34Z</time>
      </trkpt>
      <trkpt lat="46.3261" lon="2.96831">
        <ele>490.41</ele>
        <time>2021-07-18T13:54:35Z</time>
      </trkpt>
      <trkpt lat="46.3261" lon="2.96831">
        <ele>489.93</ele>
        <time>2021-07-18T13:54:36Z</time>
      </trkpt>
      <trkpt lat="46.32617" lon="2.96835">
        <ele>489.45</ele>
        <time>2021-07-18T13:54:37Z</time>
      </trkpt>
      <trkpt lat="46.32625" lon="2.96839">
        <ele>489.45</ele>
        <time>2021-07-18T13:54:38Z</time>
      </trkpt>
      <trkpt lat="46.32634" lon="2.96843">
        <ele>488.01</ele>
        <time>2021-07-18T13:54:39Z</time>
      </trkpt>
      <trkpt lat="46.32644" lon="2.96848">
        <ele>487.53</ele>
        <time>2021-07-18T13:54:40Z</time>
      </trkpt>
      <trkpt lat="46.3278" lon="2.96972">
        <ele>490.89</ele>
        <time>2021-07-18T13:54:53Z</time>
      </trkpt>
      <trkpt lat="46.32936" lon="2.9715">
        <ele>491.37</ele>
        <time>2021-07-18T13:55:08Z</time>
      </trkpt>
      <trkpt lat="46.33032" lon="2.97268">
        <ele>491.37</ele>
        <time>2021-07-18T13:55:18Z</time>
      </trkpt>
      <trkpt lat="46.33041" lon="2.9728">
        <ele>490.41</ele>
        <time>2021-07-18T13:55:19Z</time>
      </trkpt>
      <trkpt lat="46.33059" lon="2.97301">
        <ele>489.93</ele>
        <time>2021-07-18T13:55:20Z</time>
      </trkpt>
      <trkpt lat="46.33083" lon="2.97331">
        <ele>490.89</ele>
        <time>2021-07-18T13:55:24Z</time>
      </trkpt>
      <trkpt lat="46.33091" lon="2.97341">
        <ele>490.41</ele>
        <time>2021-07-18T13:55:25Z</time>
      </trkpt>
      <trkpt lat="46.33101" lon="2.97352">
        <ele>491.37</ele>
        <time>2021-07-18T13:55:26Z</time>
      </trkpt>
      <trkpt lat="46.33109" lon="2.97363">
        <ele>490.89</ele>
        <time>2021-07-18T13:55:27Z</time>
      </trkpt>
      <trkpt lat="46.33119" lon="2.97374">
        <ele>491.37</ele>
        <time>2021-07-18T13:55:28Z</time>
      </trkpt>
      <trkpt lat="46.33269" lon="2.97557">
        <ele>489.93</ele>
        <time>2021-07-18T13:55:42Z</time>
      </trkpt>
      <trkpt lat="46.33395" lon="2.9771">
        <ele>488.01</ele>
        <time>2021-07-18T13:55:54Z</time>
      </trkpt>
      <trkpt lat="46.3359" lon="2.97949">
        <ele>483.2</ele>
        <time>2021-07-18T13:56:11Z</time>
      </trkpt>
      <trkpt lat="46.33802" lon="2.982">
        <ele>468.3</ele>
        <time>2021-07-18T13:56:29Z</time>
      </trkpt>
      <trkpt lat="46.34056" lon="2.98462">
        <ele>460.61</ele>
        <time>2021-07-18T13:56:49Z</time>
      </trkpt>
      <trkpt lat="46.3418" lon="2.98601">
        <ele>465.42</ele>
        <time>2021-07-18T13:57:00Z</time>
      </trkpt>
      <trkpt lat="46.34436" lon="2.98914">
        <ele>478.87</ele>
        <time>2021-07-18T13:57:23Z</time>
      </trkpt>
      <trkpt lat="46.34684" lon="2.99217">
        <ele>485.12</ele>
        <time>2021-07-18T13:57:44Z</time>
      </trkpt>
      <trkpt lat="46.3494" lon="2.99531">
        <ele>483.2</ele>
        <time>2021-07-18T13:58:05Z</time>
      </trkpt>
      <trkpt lat="46.35051" lon="2.9967">
        <ele>479.84</ele>
        <time>2021-07-18T13:58:15Z</time>
      </trkpt>
      <trkpt lat="46.35061" lon="2.99684">
        <ele>479.35</ele>
        <time>2021-07-18T13:58:16Z</time>
      </trkpt>
      <trkpt lat="46.3517" lon="2.99847">
        <ele>475.51</ele>
        <time>2021-07-18T13:58:26Z</time>
      </trkpt>
      <trkpt lat="46.35437" lon="3.00207">
        <ele>460.61</ele>
        <time>2021-07-18T13:58:46Z</time>
      </trkpt>
      <trkpt lat="46.35635" lon="3.00449">
        <ele>469.74</ele>
        <time>2021-07-18T13:59:01Z</time>
      </trkpt>
      <trkpt lat="46.35894" lon="3.00778">
        <ele>486.08</ele>
        <time>2021-07-18T13:59:21Z</time>
      </trkpt>
      <trkpt lat="46.3598" lon="3.00973">
        <ele>488.49</ele>
        <time>2021-07-18T13:59:30Z</time>
      </trkpt>
      <trkpt lat="46.36036" lon="3.0122">
        <ele>480.8</ele>
        <time>2021-07-18T13:59:40Z</time>
      </trkpt>
      <trkpt lat="46.36115" lon="3.01578">
        <ele>482.72</ele>
        <time>2021-07-18T13:59:54Z</time>
      </trkpt>
      <trkpt lat="46.36154" lon="3.01774">
        <ele>487.05</ele>
        <time>2021-07-18T14:00:05Z</time>
      </trkpt>
      <trkpt lat="46.36228" lon="3.01985">
        <ele>489.45</ele>
        <time>2021-07-18T14:00:16Z</time>
      </trkpt>
      <trkpt lat="46.36331" lon="3.02147">
        <ele>488.01</ele>
        <time>2021-07-18T14:00:26Z</time>
      </trkpt>
      <trkpt lat="46.36458" lon="3.02309">
        <ele>486.08</ele>
        <time>2021-07-18T14:00:38Z</time>
      </trkpt>
      <trkpt lat="46.36681" lon="3.02556">
        <ele>482.24</ele>
        <time>2021-07-18T14:00:58Z</time>
      </trkpt>
      <trkpt lat="46.36836" lon="3.02667">
        <ele>477.91</ele>
        <time>2021-07-18T14:01:10Z</time>
      </trkpt>
      <trkpt lat="46.36875" lon="3.02779">
        <ele>476.47</ele>
        <time>2021-07-18T14:01:14Z</time>
      </trkpt>
      <trkpt lat="46.36922" lon="3.02832">
        <ele>473.59</ele>
        <time>2021-07-18T14:01:18Z</time>
      </trkpt>
      <trkpt lat="46.37091" lon="3.02895">
        <ele>467.82</ele>
        <time>2021-07-18T14:01:30Z</time>
      </trkpt>
      <trkpt lat="46.37293" lon="3.02903">
        <ele>466.86</ele>
        <time>2021-07-18T14:01:44Z</time>
      </trkpt>
      <trkpt lat="46.37421" lon="3.0287">
        <ele>469.26</ele>
        <time>2021-07-18T14:01:54Z</time>
      </trkpt>
      <trkpt lat="46.37559" lon="3.0291">
        <ele>469.26</ele>
        <time>2021-07-18T14:02:03Z</time>
      </trkpt>
      <trkpt lat="46.37901" lon="3.03011">
        <ele>469.74</ele>
        <time>2021-07-18T14:02:23Z</time>
      </trkpt>
      <trkpt lat="46.38296" lon="3.03127">
        <ele>466.38</ele>
        <time>2021-07-18T14:02:46Z</time>
      </trkpt>
      <trkpt lat="46.38782" lon="3.03268">
        <ele>463.01</ele>
        <time>2021-07-18T14:03:14Z</time>
      </trkpt>
      <trkpt lat="46.39214" lon="3.03417">
        <ele>459.65</ele>
        <time>2021-07-18T14:03:39Z</time>
      </trkpt>
      <trkpt lat="46.39428" lon="3.0357">
        <ele>455.32</ele>
        <time>2021-07-18T14:03:52Z</time>
      </trkpt>
      <trkpt lat="46.39621" lon="3.03777">
        <ele>449.55</ele>
        <time>2021-07-18T14:04:05Z</time>
      </trkpt>
      <trkpt lat="46.39759" lon="3.04004">
        <ele>449.07</ele>
        <time>2021-07-18T14:04:16Z</time>
      </trkpt>
      <trkpt lat="46.39877" lon="3.04292">
        <ele>450.03</ele>
        <time>2021-07-18T14:04:29Z</time>
      </trkpt>
      <trkpt lat="46.39956" lon="3.04622">
        <ele>452.44</ele>
        <time>2021-07-18T14:04:42Z</time>
      </trkpt>
      <trkpt lat="46.39985" lon="3.04905">
        <ele>453.88</ele>
        <time>2021-07-18T14:04:54Z</time>
      </trkpt>
      <trkpt lat="46.39988" lon="3.05336">
        <ele>447.63</ele>
        <time>2021-07-18T14:05:10Z</time>
      </trkpt>
      <trkpt lat="46.40006" lon="3.05709">
        <ele>436.1</ele>
        <time>2021-07-18T14:05:24Z</time>
      </trkpt>
      <trkpt lat="46.40062" lon="3.06071">
        <ele>428.89</ele>
        <time>2021-07-18T14:05:38Z</time>
      </trkpt>
      <trkpt lat="46.40151" lon="3.06417">
        <ele>429.85</ele>
        <time>2021-07-18T14:05:53Z</time>
      </trkpt>
      <trkpt lat="46.40265" lon="3.0671">
        <ele>431.77</ele>
        <time>2021-07-18T14:06:06Z</time>
      </trkpt>
      <trkpt lat="46.40479" lon="3.07191">
        <ele>432.25</ele>
        <time>2021-07-18T14:06:28Z</time>
      </trkpt>
      <trkpt lat="46.40602" lon="3.0757">
        <ele>433.21</ele>
        <time>2021-07-18T14:06:44Z</time>
      </trkpt>
      <trkpt lat="46.40747" lon="3.08109">
        <ele>432.73</ele>
        <time>2021-07-18T14:07:06Z</time>
      </trkpt>
      <trkpt lat="46.40905" lon="3.0866">
        <ele>429.85</ele>
        <time>2021-07-18T14:07:29Z</time>
      </trkpt>
      <trkpt lat="46.41063" lon="3.09212">
        <ele>428.4</ele>
        <time>2021-07-18T14:07:51Z</time>
      </trkpt>
      <trkpt lat="46.41238" lon="3.09783">
        <ele>430.33</ele>
        <time>2021-07-18T14:08:15Z</time>
      </trkpt>
      <trkpt lat="46.41385" lon="3.10118">
        <ele>434.17</ele>
        <time>2021-07-18T14:08:31Z</time>
      </trkpt>
      <trkpt lat="46.41636" lon="3.10559">
        <ele>438.5</ele>
        <time>2021-07-18T14:08:52Z</time>
      </trkpt>
      <trkpt lat="46.42057" lon="3.11294">
        <ele>447.15</ele>
        <time>2021-07-18T14:09:26Z</time>
      </trkpt>
      <trkpt lat="46.42262" lon="3.11652">
        <ele>448.11</ele>
        <time>2021-07-18T14:09:44Z</time>
      </trkpt>
      <trkpt lat="46.42458" lon="3.11992">
        <ele>447.63</ele>
        <time>2021-07-18T14:10:02Z</time>
      </trkpt>
      <trkpt lat="46.42709" lon="3.12429">
        <ele>449.07</ele>
        <time>2021-07-18T14:10:26Z</time>
      </trkpt>
      <trkpt lat="46.4292" lon="3.128">
        <ele>451.96</ele>
        <time>2021-07-18T14:10:46Z</time>
      </trkpt>
      <trkpt lat="46.43135" lon="3.13186">
        <ele>453.88</ele>
        <time>2021-07-18T14:11:04Z</time>
      </trkpt>
      <trkpt lat="46.43293" lon="3.13484">
        <ele>449.07</ele>
        <time>2021-07-18T14:11:18Z</time>
      </trkpt>
      <trkpt lat="46.43599" lon="3.14051">
        <ele>439.46</ele>
        <time>2021-07-18T14:11:45Z</time>
      </trkpt>
      <trkpt lat="46.43811" lon="3.14374">
        <ele>434.65</ele>
        <time>2021-07-18T14:12:01Z</time>
      </trkpt>
      <trkpt lat="46.43975" lon="3.14664">
        <ele>433.21</ele>
        <time>2021-07-18T14:12:14Z</time>
      </trkpt>
      <trkpt lat="46.44075" lon="3.14945">
        <ele>428.4</ele>
        <time>2021-07-18T14:12:25Z</time>
      </trkpt>
      <trkpt lat="46.44139" lon="3.15273">
        <ele>426.48</ele>
        <time>2021-07-18T14:12:37Z</time>
      </trkpt>
      <trkpt lat="46.44152" lon="3.15557">
        <ele>423.6</ele>
        <time>2021-07-18T14:12:50Z</time>
      </trkpt>
      <trkpt lat="46.44138" lon="3.15871">
        <ele>418.31</ele>
        <time>2021-07-18T14:13:03Z</time>
      </trkpt>
      <trkpt lat="46.44086" lon="3.16483">
        <ele>404.37</ele>
        <time>2021-07-18T14:13:27Z</time>
      </trkpt>
      <trkpt lat="46.4406" lon="3.16877">
        <ele>394.76</ele>
        <time>2021-07-18T14:13:43Z</time>
      </trkpt>
      <trkpt lat="46.44021" lon="3.17408">
        <ele>380.82</ele>
        <time>2021-07-18T14:14:04Z</time>
      </trkpt>
      <trkpt lat="46.4399" lon="3.1782">
        <ele>370.24</ele>
        <time>2021-07-18T14:14:20Z</time>
      </trkpt>
      <trkpt lat="46.43947" lon="3.18406">
        <ele>369.28</ele>
        <time>2021-07-18T14:14:43Z</time>
      </trkpt>
      <trkpt lat="46.43918" lon="3.18823">
        <ele>371.21</ele>
        <time>2021-07-18T14:14:59Z</time>
      </trkpt>
      <trkpt lat="46.43911" lon="3.19111">
        <ele>371.21</ele>
        <time>2021-07-18T14:15:10Z</time>
      </trkpt>
      <trkpt lat="46.43934" lon="3.19422">
        <ele>369.76</ele>
        <time>2021-07-18T14:15:27Z</time>
      </trkpt>
      <trkpt lat="46.43994" lon="3.19747">
        <ele>364.96</ele>
        <time>2021-07-18T14:15:42Z</time>
      </trkpt>
      <trkpt lat="46.44079" lon="3.20022">
        <ele>358.71</ele>
        <time>2021-07-18T14:15:54Z</time>
      </trkpt>
      <trkpt lat="46.44229" lon="3.20422">
        <ele>351.5</ele>
        <time>2021-07-18T14:16:11Z</time>
      </trkpt>
      <trkpt lat="46.44436" lon="3.20975">
        <ele>339.48</ele>
        <time>2021-07-18T14:16:36Z</time>
      </trkpt>
      <trkpt lat="46.446" lon="3.21408">
        <ele>333.71</ele>
        <time>2021-07-18T14:16:57Z</time>
      </trkpt>
      <trkpt lat="46.44736" lon="3.21767">
        <ele>330.35</ele>
        <time>2021-07-18T14:17:13Z</time>
      </trkpt>
      <trkpt lat="46.4491" lon="3.22224">
        <ele>326.5</ele>
        <time>2021-07-18T14:17:32Z</time>
      </trkpt>
      <trkpt lat="46.45052" lon="3.22596">
        <ele>321.7</ele>
        <time>2021-07-18T14:17:49Z</time>
      </trkpt>
      <trkpt lat="46.45172" lon="3.2292">
        <ele>317.85</ele>
        <time>2021-07-18T14:18:05Z</time>
      </trkpt>
      <trkpt lat="46.45319" lon="3.23286">
        <ele>313.05</ele>
        <time>2021-07-18T14:18:23Z</time>
      </trkpt>
      <trkpt lat="46.45483" lon="3.23614">
        <ele>306.8</ele>
        <time>2021-07-18T14:18:39Z</time>
      </trkpt>
      <trkpt lat="46.45635" lon="3.2393">
        <ele>301.51</ele>
        <time>2021-07-18T14:18:55Z</time>
      </trkpt>
      <trkpt lat="46.45748" lon="3.24282">
        <ele>295.74</ele>
        <time>2021-07-18T14:19:11Z</time>
      </trkpt>
      <trkpt lat="46.45807" lon="3.2459">
        <ele>291.42</ele>
        <time>2021-07-18T14:19:24Z</time>
      </trkpt>
      <trkpt lat="46.45833" lon="3.24976">
        <ele>285.65</ele>
        <time>2021-07-18T14:19:40Z</time>
      </trkpt>
      <trkpt lat="46.45825" lon="3.25467">
        <ele>283.25</ele>
        <time>2021-07-18T14:20:00Z</time>
      </trkpt>
      <trkpt lat="46.45812" lon="3.2601">
        <ele>280.36</ele>
        <time>2021-07-18T14:20:22Z</time>
      </trkpt>
      <trkpt lat="46.45807" lon="3.26382">
        <ele>278.44</ele>
        <time>2021-07-18T14:20:39Z</time>
      </trkpt>
      <trkpt lat="46.45806" lon="3.26429">
        <ele>278.92</ele>
        <time>2021-07-18T14:20:46Z</time>
      </trkpt>
      <trkpt lat="46.45806" lon="3.26483">
        <ele>279.4</ele>
        <time>2021-07-18T14:21:04Z</time>
      </trkpt>
      <trkpt lat="46.45805" lon="3.26536">
        <ele>279.4</ele>
        <time>2021-07-18T14:21:12Z</time>
      </trkpt>
      <trkpt lat="46.45804" lon="3.26615">
        <ele>279.4</ele>
        <time>2021-07-18T14:21:22Z</time>
      </trkpt>
      <trkpt lat="46.45803" lon="3.26636">
        <ele>278.92</ele>
        <time>2021-07-18T14:21:24Z</time>
      </trkpt>
      <trkpt lat="46.45803" lon="3.26643">
        <ele>278.92</ele>
        <time>2021-07-18T14:21:25Z</time>
      </trkpt>
      <trkpt lat="46.45803" lon="3.26649">
        <ele>279.4</ele>
        <time>2021-07-18T14:21:27Z</time>
      </trkpt>
      <trkpt lat="46.45805" lon="3.26731">
        <ele>278.44</ele>
        <time>2021-07-18T14:21:35Z</time>
      </trkpt>
      <trkpt lat="46.45813" lon="3.26891">
        <ele>278.44</ele>
        <time>2021-07-18T14:21:44Z</time>
      </trkpt>
      <trkpt lat="46.45843" lon="3.27124">
        <ele>280.84</ele>
        <time>2021-07-18T14:21:54Z</time>
      </trkpt>
      <trkpt lat="46.45926" lon="3.27473">
        <ele>279.4</ele>
        <time>2021-07-18T14:22:07Z</time>
      </trkpt>
      <trkpt lat="46.46054" lon="3.27805">
        <ele>276.04</ele>
        <time>2021-07-18T14:22:20Z</time>
      </trkpt>
      <trkpt lat="46.4637" lon="3.28491">
        <ele>270.75</ele>
        <time>2021-07-18T14:22:49Z</time>
      </trkpt>
      <trkpt lat="46.46687" lon="3.29171">
        <ele>260.65</ele>
        <time>2021-07-18T14:23:18Z</time>
      </trkpt>
      <trkpt lat="46.46961" lon="3.29758">
        <ele>246.72</ele>
        <time>2021-07-18T14:23:43Z</time>
      </trkpt>
      <trkpt lat="46.47071" lon="3.29996">
        <ele>240.47</ele>
        <time>2021-07-18T14:23:56Z</time>
      </trkpt>
      <trkpt lat="46.47195" lon="3.30223">
        <ele>233.74</ele>
        <time>2021-07-18T14:24:08Z</time>
      </trkpt>
      <trkpt lat="46.47379" lon="3.3052">
        <ele>227.97</ele>
        <time>2021-07-18T14:24:23Z</time>
      </trkpt>
      <trkpt lat="46.47485" lon="3.30758">
        <ele>225.09</ele>
        <time>2021-07-18T14:24:33Z</time>
      </trkpt>
      <trkpt lat="46.47553" lon="3.31028">
        <ele>226.53</ele>
        <time>2021-07-18T14:24:43Z</time>
      </trkpt>
      <trkpt lat="46.47576" lon="3.31265">
        <ele>222.2</ele>
        <time>2021-07-18T14:24:52Z</time>
      </trkpt>
      <trkpt lat="46.47587" lon="3.31547">
        <ele>221.24</ele>
        <time>2021-07-18T14:25:05Z</time>
      </trkpt>
      <trkpt lat="46.47609" lon="3.31822">
        <ele>222.2</ele>
        <time>2021-07-18T14:25:17Z</time>
      </trkpt>
      <trkpt lat="46.4766" lon="3.32097">
        <ele>222.68</ele>
        <time>2021-07-18T14:25:28Z</time>
      </trkpt>
      <trkpt lat="46.47751" lon="3.32408">
        <ele>219.8</ele>
        <time>2021-07-18T14:25:41Z</time>
      </trkpt>
      <trkpt lat="46.47875" lon="3.32691">
        <ele>221.24</ele>
        <time>2021-07-18T14:25:56Z</time>
      </trkpt>
      <trkpt lat="46.4801" lon="3.32957">
        <ele>220.76</ele>
        <time>2021-07-18T14:26:10Z</time>
      </trkpt>
      <trkpt lat="46.48186" lon="3.33294">
        <ele>218.36</ele>
        <time>2021-07-18T14:26:28Z</time>
      </trkpt>
      <trkpt lat="46.48434" lon="3.33763">
        <ele>215.95</ele>
        <time>2021-07-18T14:26:50Z</time>
      </trkpt>
      <trkpt lat="46.48642" lon="3.34159">
        <ele>212.59</ele>
        <time>2021-07-18T14:27:09Z</time>
      </trkpt>
      <trkpt lat="46.48809" lon="3.3448">
        <ele>213.55</ele>
        <time>2021-07-18T14:27:26Z</time>
      </trkpt>
      <trkpt lat="46.48966" lon="3.34807">
        <ele>213.07</ele>
        <time>2021-07-18T14:27:43Z</time>
      </trkpt>
      <trkpt lat="46.48991" lon="3.3486">
        <ele>214.03</ele>
        <time>2021-07-18T14:27:46Z</time>
      </trkpt>
      <trkpt lat="46.49079" lon="3.3506">
        <ele>214.03</ele>
        <time>2021-07-18T14:27:57Z</time>
      </trkpt>
      <trkpt lat="46.4914" lon="3.35203">
        <ele>213.55</ele>
        <time>2021-07-18T14:28:05Z</time>
      </trkpt>
      <trkpt lat="46.49205" lon="3.3536">
        <ele>214.03</ele>
        <time>2021-07-18T14:28:14Z</time>
      </trkpt>
      <trkpt lat="46.49274" lon="3.35539">
        <ele>216.91</ele>
        <time>2021-07-18T14:28:26Z</time>
      </trkpt>
      <trkpt lat="46.49363" lon="3.3578">
        <ele>216.91</ele>
        <time>2021-07-18T14:28:40Z</time>
      </trkpt>
      <trkpt lat="46.49485" lon="3.36125">
        <ele>221.72</ele>
        <time>2021-07-18T14:28:56Z</time>
      </trkpt>
      <trkpt lat="46.49583" lon="3.36436">
        <ele>224.61</ele>
        <time>2021-07-18T14:29:12Z</time>
      </trkpt>
      <trkpt lat="46.49671" lon="3.36736">
        <ele>223.16</ele>
        <time>2021-07-18T14:29:25Z</time>
      </trkpt>
      <trkpt lat="46.49776" lon="3.37165">
        <ele>223.64</ele>
        <time>2021-07-18T14:29:42Z</time>
      </trkpt>
      <trkpt lat="46.49844" lon="3.37596">
        <ele>221.72</ele>
        <time>2021-07-18T14:29:58Z</time>
      </trkpt>
      <trkpt lat="46.49873" lon="3.38047">
        <ele>227.49</ele>
        <time>2021-07-18T14:30:15Z</time>
      </trkpt>
      <trkpt lat="46.49858" lon="3.38518">
        <ele>237.1</ele>
        <time>2021-07-18T14:30:33Z</time>
      </trkpt>
      <trkpt lat="46.49833" lon="3.39125">
        <ele>244.31</ele>
        <time>2021-07-18T14:30:56Z</time>
      </trkpt>
      <trkpt lat="46.49856" lon="3.39532">
        <ele>246.72</ele>
        <time>2021-07-18T14:31:11Z</time>
      </trkpt>
      <trkpt lat="46.49928" lon="3.39976">
        <ele>252.48</ele>
        <time>2021-07-18T14:31:27Z</time>
      </trkpt>
      <trkpt lat="46.50063" lon="3.40683">
        <ele>258.25</ele>
        <time>2021-07-18T14:31:52Z</time>
      </trkpt>
      <trkpt lat="46.50152" lon="3.41154">
        <ele>261.62</ele>
        <time>2021-07-18T14:32:10Z</time>
      </trkpt>
      <trkpt lat="46.5022" lon="3.4151">
        <ele>264.98</ele>
        <time>2021-07-18T14:32:26Z</time>
      </trkpt>
      <trkpt lat="46.50277" lon="3.41808">
        <ele>268.83</ele>
        <time>2021-07-18T14:32:40Z</time>
      </trkpt>
      <trkpt lat="46.50354" lon="3.42215">
        <ele>273.63</ele>
        <time>2021-07-18T14:32:57Z</time>
      </trkpt>
      <trkpt lat="46.50456" lon="3.4273">
        <ele>278.44</ele>
        <time>2021-07-18T14:33:17Z</time>
      </trkpt>
      <trkpt lat="46.50582" lon="3.43314">
        <ele>278.92</ele>
        <time>2021-07-18T14:33:38Z</time>
      </trkpt>
      <trkpt lat="46.50683" lon="3.43733">
        <ele>280.84</ele>
        <time>2021-07-18T14:33:54Z</time>
      </trkpt>
      <trkpt lat="46.50766" lon="3.44061">
        <ele>277.96</ele>
        <time>2021-07-18T14:34:09Z</time>
      </trkpt>
      <trkpt lat="46.50848" lon="3.44366">
        <ele>277.48</ele>
        <time>2021-07-18T14:34:23Z</time>
      </trkpt>
      <trkpt lat="46.50966" lon="3.44784">
        <ele>276.04</ele>
        <time>2021-07-18T14:34:41Z</time>
      </trkpt>
      <trkpt lat="46.51121" lon="3.45296">
        <ele>274.11</ele>
        <time>2021-07-18T14:35:03Z</time>
      </trkpt>
      <trkpt lat="46.51253" lon="3.4571">
        <ele>271.23</ele>
        <time>2021-07-18T14:35:21Z</time>
      </trkpt>
      <trkpt lat="46.51361" lon="3.46049">
        <ele>269.31</ele>
        <time>2021-07-18T14:35:37Z</time>
      </trkpt>
      <trkpt lat="46.5146" lon="3.46359">
        <ele>266.9</ele>
        <time>2021-07-18T14:35:52Z</time>
      </trkpt>
      <trkpt lat="46.51575" lon="3.46719">
        <ele>263.54</ele>
        <time>2021-07-18T14:36:09Z</time>
      </trkpt>
      <trkpt lat="46.51698" lon="3.47106">
        <ele>258.73</ele>
        <time>2021-07-18T14:36:26Z</time>
      </trkpt>
      <trkpt lat="46.51807" lon="3.47445">
        <ele>254.89</ele>
        <time>2021-07-18T14:36:41Z</time>
      </trkpt>
      <trkpt lat="46.51921" lon="3.47803">
        <ele>252</ele>
        <time>2021-07-18T14:36:55Z</time>
      </trkpt>
      <trkpt lat="46.52039" lon="3.48169">
        <ele>253.44</ele>
        <time>2021-07-18T14:37:11Z</time>
      </trkpt>
      <trkpt lat="46.52119" lon="3.48415">
        <ele>255.37</ele>
        <time>2021-07-18T14:37:24Z</time>
      </trkpt>
      <trkpt lat="46.52283" lon="3.4887">
        <ele>264.98</ele>
        <time>2021-07-18T14:37:46Z</time>
      </trkpt>
      <trkpt lat="46.52452" lon="3.49272">
        <ele>267.86</ele>
        <time>2021-07-18T14:38:05Z</time>
      </trkpt>
      <trkpt lat="46.52614" lon="3.49602">
        <ele>268.35</ele>
        <time>2021-07-18T14:38:21Z</time>
      </trkpt>
      <trkpt lat="46.52845" lon="3.50048">
        <ele>266.9</ele>
        <time>2021-07-18T14:38:42Z</time>
      </trkpt>
      <trkpt lat="46.52945" lon="3.50317">
        <ele>264.02</ele>
        <time>2021-07-18T14:38:55Z</time>
      </trkpt>
      <trkpt lat="46.53024" lon="3.50646">
        <ele>259.69</ele>
        <time>2021-07-18T14:39:09Z</time>
      </trkpt>
      <trkpt lat="46.53076" lon="3.51014">
        <ele>262.1</ele>
        <time>2021-07-18T14:39:24Z</time>
      </trkpt>
      <trkpt lat="46.53117" lon="3.51355">
        <ele>264.98</ele>
        <time>2021-07-18T14:39:37Z</time>
      </trkpt>
      <trkpt lat="46.53162" lon="3.51746">
        <ele>263.54</ele>
        <time>2021-07-18T14:39:53Z</time>
      </trkpt>
      <trkpt lat="46.53197" lon="3.52045">
        <ele>261.62</ele>
        <time>2021-07-18T14:40:06Z</time>
      </trkpt>
      <trkpt lat="46.53235" lon="3.52333">
        <ele>258.25</ele>
        <time>2021-07-18T14:40:18Z</time>
      </trkpt>
      <trkpt lat="46.53307" lon="3.52669">
        <ele>259.21</ele>
        <time>2021-07-18T14:40:31Z</time>
      </trkpt>
      <trkpt lat="46.53405" lon="3.52978">
        <ele>261.14</ele>
        <time>2021-07-18T14:40:44Z</time>
      </trkpt>
      <trkpt lat="46.53501" lon="3.53297">
        <ele>260.65</ele>
        <time>2021-07-18T14:40:59Z</time>
      </trkpt>
      <trkpt lat="46.53585" lon="3.53636">
        <ele>257.29</ele>
        <time>2021-07-18T14:41:13Z</time>
      </trkpt>
      <trkpt lat="46.53651" lon="3.5403">
        <ele>252.96</ele>
        <time>2021-07-18T14:41:31Z</time>
      </trkpt>
      <trkpt lat="46.53693" lon="3.54461">
        <ele>249.12</ele>
        <time>2021-07-18T14:41:47Z</time>
      </trkpt>
      <trkpt lat="46.53711" lon="3.54844">
        <ele>245.27</ele>
        <time>2021-07-18T14:42:03Z</time>
      </trkpt>
      <trkpt lat="46.53697" lon="3.55219">
        <ele>241.91</ele>
        <time>2021-07-18T14:42:17Z</time>
      </trkpt>
      <trkpt lat="46.53674" lon="3.55449">
        <ele>241.91</ele>
        <time>2021-07-18T14:42:27Z</time>
      </trkpt>
      <trkpt lat="46.53644" lon="3.55753">
        <ele>243.83</ele>
        <time>2021-07-18T14:42:41Z</time>
      </trkpt>
      <trkpt lat="46.5361" lon="3.56097">
        <ele>244.79</ele>
        <time>2021-07-18T14:42:54Z</time>
      </trkpt>
      <trkpt lat="46.53564" lon="3.56558">
        <ele>239.99</ele>
        <time>2021-07-18T14:43:10Z</time>
      </trkpt>
      <trkpt lat="46.5353" lon="3.56946">
        <ele>235.66</ele>
        <time>2021-07-18T14:43:27Z</time>
      </trkpt>
      <trkpt lat="46.53499" lon="3.57397">
        <ele>233.74</ele>
        <time>2021-07-18T14:43:48Z</time>
      </trkpt>
      <trkpt lat="46.53485" lon="3.57683">
        <ele>236.14</ele>
        <time>2021-07-18T14:44:01Z</time>
      </trkpt>
      <trkpt lat="46.53469" lon="3.58029">
        <ele>240.95</ele>
        <time>2021-07-18T14:44:14Z</time>
      </trkpt>
      <trkpt lat="46.53455" lon="3.5846">
        <ele>246.72</ele>
        <time>2021-07-18T14:44:31Z</time>
      </trkpt>
      <trkpt lat="46.53452" lon="3.58973">
        <ele>254.89</ele>
        <time>2021-07-18T14:44:52Z</time>
      </trkpt>
      <trkpt lat="46.53439" lon="3.59401">
        <ele>250.56</ele>
        <time>2021-07-18T14:45:08Z</time>
      </trkpt>
      <trkpt lat="46.53415" lon="3.59764">
        <ele>251.52</ele>
        <time>2021-07-18T14:45:22Z</time>
      </trkpt>
      <trkpt lat="46.53383" lon="3.60166">
        <ele>253.44</ele>
        <time>2021-07-18T14:45:37Z</time>
      </trkpt>
      <trkpt lat="46.53362" lon="3.60436">
        <ele>253.93</ele>
        <time>2021-07-18T14:45:47Z</time>
      </trkpt>
      <trkpt lat="46.5332" lon="3.60898">
        <ele>253.44</ele>
        <time>2021-07-18T14:46:07Z</time>
      </trkpt>
      <trkpt lat="46.53264" lon="3.61302">
        <ele>255.85</ele>
        <time>2021-07-18T14:46:24Z</time>
      </trkpt>
      <trkpt lat="46.53181" lon="3.61837">
        <ele>258.25</ele>
        <time>2021-07-18T14:46:45Z</time>
      </trkpt>
      <trkpt lat="46.53135" lon="3.6224">
        <ele>263.54</ele>
        <time>2021-07-18T14:47:01Z</time>
      </trkpt>
      <trkpt lat="46.53128" lon="3.62604">
        <ele>265.94</ele>
        <time>2021-07-18T14:47:15Z</time>
      </trkpt>
      <trkpt lat="46.53159" lon="3.6295">
        <ele>266.42</ele>
        <time>2021-07-18T14:47:28Z</time>
      </trkpt>
      <trkpt lat="46.53224" lon="3.63282">
        <ele>258.25</ele>
        <time>2021-07-18T14:47:42Z</time>
      </trkpt>
      <trkpt lat="46.53327" lon="3.63621">
        <ele>261.14</ele>
        <time>2021-07-18T14:47:57Z</time>
      </trkpt>
      <trkpt lat="46.53454" lon="3.64035">
        <ele>260.17</ele>
        <time>2021-07-18T14:48:16Z</time>
      </trkpt>
      <trkpt lat="46.53556" lon="3.6436">
        <ele>258.25</ele>
        <time>2021-07-18T14:48:29Z</time>
      </trkpt>
      <trkpt lat="46.53665" lon="3.6471">
        <ele>255.85</ele>
        <time>2021-07-18T14:48:43Z</time>
      </trkpt>
      <trkpt lat="46.53799" lon="3.65143">
        <ele>251.52</ele>
        <time>2021-07-18T14:49:03Z</time>
      </trkpt>
      <trkpt lat="46.53924" lon="3.65542">
        <ele>248.16</ele>
        <time>2021-07-18T14:49:20Z</time>
      </trkpt>
      <trkpt lat="46.53998" lon="3.65837">
        <ele>244.31</ele>
        <time>2021-07-18T14:49:32Z</time>
      </trkpt>
      <trkpt lat="46.54038" lon="3.66182">
        <ele>241.43</ele>
        <time>2021-07-18T14:49:45Z</time>
      </trkpt>
      <trkpt lat="46.5406" lon="3.66613">
        <ele>235.66</ele>
        <time>2021-07-18T14:50:02Z</time>
      </trkpt>
      <trkpt lat="46.5408" lon="3.67006">
        <ele>230.85</ele>
        <time>2021-07-18T14:50:18Z</time>
      </trkpt>
      <trkpt lat="46.541" lon="3.67441">
        <ele>227.01</ele>
        <time>2021-07-18T14:50:35Z</time>
      </trkpt>
      <trkpt lat="46.54082" lon="3.67805">
        <ele>221.72</ele>
        <time>2021-07-18T14:50:49Z</time>
      </trkpt>
      <trkpt lat="46.54026" lon="3.68139">
        <ele>218.84</ele>
        <time>2021-07-18T14:51:03Z</time>
      </trkpt>
      <trkpt lat="46.53955" lon="3.68527">
        <ele>218.36</ele>
        <time>2021-07-18T14:51:21Z</time>
      </trkpt>
      <trkpt lat="46.53892" lon="3.68862">
        <ele>220.28</ele>
        <time>2021-07-18T14:51:35Z</time>
      </trkpt>
      <trkpt lat="46.53805" lon="3.69337">
        <ele>219.32</ele>
        <time>2021-07-18T14:51:53Z</time>
      </trkpt>
      <trkpt lat="46.53722" lon="3.69794">
        <ele>219.8</ele>
        <time>2021-07-18T14:52:12Z</time>
      </trkpt>
      <trkpt lat="46.53635" lon="3.70278">
        <ele>221.72</ele>
        <time>2021-07-18T14:52:31Z</time>
      </trkpt>
      <trkpt lat="46.53576" lon="3.70587">
        <ele>226.53</ele>
        <time>2021-07-18T14:52:44Z</time>
      </trkpt>
      <trkpt lat="46.53502" lon="3.70833">
        <ele>231.33</ele>
        <time>2021-07-18T14:52:55Z</time>
      </trkpt>
      <trkpt lat="46.53382" lon="3.71095">
        <ele>236.14</ele>
        <time>2021-07-18T14:53:07Z</time>
      </trkpt>
      <trkpt lat="46.53263" lon="3.71335">
        <ele>238.06</ele>
        <time>2021-07-18T14:53:19Z</time>
      </trkpt>
      <trkpt lat="46.53119" lon="3.71623">
        <ele>237.1</ele>
        <time>2021-07-18T14:53:33Z</time>
      </trkpt>
      <trkpt lat="46.52948" lon="3.71967">
        <ele>234.22</ele>
        <time>2021-07-18T14:53:49Z</time>
      </trkpt>
      <trkpt lat="46.52794" lon="3.72281">
        <ele>231.33</ele>
        <time>2021-07-18T14:54:05Z</time>
      </trkpt>
      <trkpt lat="46.52663" lon="3.72545">
        <ele>229.41</ele>
        <time>2021-07-18T14:54:19Z</time>
      </trkpt>
      <trkpt lat="46.52587" lon="3.72715">
        <ele>231.33</ele>
        <time>2021-07-18T14:54:29Z</time>
      </trkpt>
      <trkpt lat="46.52442" lon="3.72985">
        <ele>230.85</ele>
        <time>2021-07-18T14:54:44Z</time>
      </trkpt>
      <trkpt lat="46.52218" lon="3.73313">
        <ele>241.91</ele>
        <time>2021-07-18T14:55:02Z</time>
      </trkpt>
      <trkpt lat="46.5201" lon="3.73617">
        <ele>253.44</ele>
        <time>2021-07-18T14:55:20Z</time>
      </trkpt>
      <trkpt lat="46.5185" lon="3.7386">
        <ele>256.81</ele>
        <time>2021-07-18T14:55:34Z</time>
      </trkpt>
      <trkpt lat="46.51738" lon="3.74099">
        <ele>256.81</ele>
        <time>2021-07-18T14:55:46Z</time>
      </trkpt>
      <trkpt lat="46.51643" lon="3.74349">
        <ele>256.81</ele>
        <time>2021-07-18T14:55:58Z</time>
      </trkpt>
      <trkpt lat="46.51503" lon="3.7476">
        <ele>261.14</ele>
        <time>2021-07-18T14:56:15Z</time>
      </trkpt>
      <trkpt lat="46.51401" lon="3.75071">
        <ele>261.62</ele>
        <time>2021-07-18T14:56:28Z</time>
      </trkpt>
      <trkpt lat="46.51272" lon="3.75403">
        <ele>259.69</ele>
        <time>2021-07-18T14:56:43Z</time>
      </trkpt>
      <trkpt lat="46.5112" lon="3.75753">
        <ele>251.52</ele>
        <time>2021-07-18T14:56:59Z</time>
      </trkpt>
      <trkpt lat="46.50935" lon="3.76225">
        <ele>242.39</ele>
        <time>2021-07-18T14:57:20Z</time>
      </trkpt>
      <trkpt lat="46.50823" lon="3.76553">
        <ele>237.1</ele>
        <time>2021-07-18T14:57:34Z</time>
      </trkpt>
      <trkpt lat="46.50709" lon="3.76995">
        <ele>238.06</ele>
        <time>2021-07-18T14:57:52Z</time>
      </trkpt>
      <trkpt lat="46.50632" lon="3.77296">
        <ele>240.47</ele>
        <time>2021-07-18T14:58:05Z</time>
      </trkpt>
      <trkpt lat="46.50574" lon="3.77521">
        <ele>240.95</ele>
        <time>2021-07-18T14:58:16Z</time>
      </trkpt>
      <trkpt lat="46.50471" lon="3.77901">
        <ele>242.87</ele>
        <time>2021-07-18T14:58:33Z</time>
      </trkpt>
      <trkpt lat="46.50359" lon="3.78171">
        <ele>243.83</ele>
        <time>2021-07-18T14:58:46Z</time>
      </trkpt>
      <trkpt lat="46.50167" lon="3.78574">
        <ele>236.14</ele>
        <time>2021-07-18T14:59:05Z</time>
      </trkpt>
      <trkpt lat="46.49982" lon="3.78958">
        <ele>242.39</ele>
        <time>2021-07-18T14:59:23Z</time>
      </trkpt>
      <trkpt lat="46.49763" lon="3.79415">
        <ele>252.96</ele>
        <time>2021-07-18T14:59:45Z</time>
      </trkpt>
      <trkpt lat="46.49519" lon="3.79926">
        <ele>263.54</ele>
        <time>2021-07-18T15:00:08Z</time>
      </trkpt>
      <trkpt lat="46.49376" lon="3.80269">
        <ele>262.58</ele>
        <time>2021-07-18T15:00:23Z</time>
      </trkpt>
      <trkpt lat="46.49315" lon="3.80488">
        <ele>262.58</ele>
        <time>2021-07-18T15:00:33Z</time>
      </trkpt>
      <trkpt lat="46.49232" lon="3.80787">
        <ele>259.69</ele>
        <time>2021-07-18T15:00:47Z</time>
      </trkpt>
      <trkpt lat="46.49104" lon="3.81218">
        <ele>257.77</ele>
        <time>2021-07-18T15:01:06Z</time>
      </trkpt>
      <trkpt lat="46.48971" lon="3.81675">
        <ele>260.65</ele>
        <time>2021-07-18T15:01:26Z</time>
      </trkpt>
      <trkpt lat="46.48852" lon="3.81962">
        <ele>264.02</ele>
        <time>2021-07-18T15:01:38Z</time>
      </trkpt>
      <trkpt lat="46.48704" lon="3.82197">
        <ele>257.77</ele>
        <time>2021-07-18T15:01:49Z</time>
      </trkpt>
      <trkpt lat="46.4848" lon="3.82471">
        <ele>249.12</ele>
        <time>2021-07-18T15:02:05Z</time>
      </trkpt>
      <trkpt lat="46.48318" lon="3.82667">
        <ele>242.87</ele>
        <time>2021-07-18T15:02:17Z</time>
      </trkpt>
      <trkpt lat="46.48077" lon="3.82974">
        <ele>234.7</ele>
        <time>2021-07-18T15:02:36Z</time>
      </trkpt>
      <trkpt lat="46.47904" lon="3.83195">
        <ele>240.95</ele>
        <time>2021-07-18T15:02:49Z</time>
      </trkpt>
      <trkpt lat="46.47769" lon="3.83425">
        <ele>247.68</ele>
        <time>2021-07-18T15:03:02Z</time>
      </trkpt>
      <trkpt lat="46.47651" lon="3.83731">
        <ele>251.04</ele>
        <time>2021-07-18T15:03:16Z</time>
      </trkpt>
      <trkpt lat="46.47559" lon="3.83994">
        <ele>255.37</ele>
        <time>2021-07-18T15:03:29Z</time>
      </trkpt>
      <trkpt lat="46.47476" lon="3.84229">
        <ele>259.21</ele>
        <time>2021-07-18T15:03:42Z</time>
      </trkpt>
      <trkpt lat="46.4734" lon="3.84639">
        <ele>264.02</ele>
        <time>2021-07-18T15:04:01Z</time>
      </trkpt>
      <trkpt lat="46.47281" lon="3.84963">
        <ele>265.46</ele>
        <time>2021-07-18T15:04:15Z</time>
      </trkpt>
      <trkpt lat="46.47266" lon="3.85211">
        <ele>264.02</ele>
        <time>2021-07-18T15:04:26Z</time>
      </trkpt>
      <trkpt lat="46.47265" lon="3.85547">
        <ele>263.54</ele>
        <time>2021-07-18T15:04:41Z</time>
      </trkpt>
      <trkpt lat="46.47264" lon="3.85925">
        <ele>259.21</ele>
        <time>2021-07-18T15:05:00Z</time>
      </trkpt>
      <trkpt lat="46.47264" lon="3.86289">
        <ele>254.89</ele>
        <time>2021-07-18T15:05:17Z</time>
      </trkpt>
      <trkpt lat="46.47245" lon="3.86621">
        <ele>253.44</ele>
        <time>2021-07-18T15:05:31Z</time>
      </trkpt>
      <trkpt lat="46.47179" lon="3.86956">
        <ele>248.64</ele>
        <time>2021-07-18T15:05:44Z</time>
      </trkpt>
      <trkpt lat="46.47072" lon="3.87252">
        <ele>241.91</ele>
        <time>2021-07-18T15:05:56Z</time>
      </trkpt>
      <trkpt lat="46.46888" lon="3.87645">
        <ele>252.48</ele>
        <time>2021-07-18T15:06:14Z</time>
      </trkpt>
      <trkpt lat="46.46639" lon="3.88137">
        <ele>265.46</ele>
        <time>2021-07-18T15:06:37Z</time>
      </trkpt>
      <trkpt lat="46.46449" lon="3.88477">
        <ele>265.46</ele>
        <time>2021-07-18T15:06:53Z</time>
      </trkpt>
      <trkpt lat="46.46115" lon="3.8899">
        <ele>271.71</ele>
        <time>2021-07-18T15:07:19Z</time>
      </trkpt>
      <trkpt lat="46.45836" lon="3.89448">
        <ele>280.36</ele>
        <time>2021-07-18T15:07:41Z</time>
      </trkpt>
      <trkpt lat="46.45743" lon="3.89702">
        <ele>280.36</ele>
        <time>2021-07-18T15:07:52Z</time>
      </trkpt>
      <trkpt lat="46.45677" lon="3.89981">
        <ele>277.96</ele>
        <time>2021-07-18T15:08:05Z</time>
      </trkpt>
      <trkpt lat="46.45641" lon="3.90286">
        <ele>276.04</ele>
        <time>2021-07-18T15:08:17Z</time>
      </trkpt>
      <trkpt lat="46.45629" lon="3.90633">
        <ele>275.56</ele>
        <time>2021-07-18T15:08:31Z</time>
      </trkpt>
      <trkpt lat="46.45619" lon="3.9107">
        <ele>268.35</ele>
        <time>2021-07-18T15:08:49Z</time>
      </trkpt>
      <trkpt lat="46.45612" lon="3.91445">
        <ele>266.9</ele>
        <time>2021-07-18T15:09:05Z</time>
      </trkpt>
      <trkpt lat="46.45602" lon="3.91786">
        <ele>263.06</ele>
        <time>2021-07-18T15:09:17Z</time>
      </trkpt>
      <trkpt lat="46.45591" lon="3.92239">
        <ele>258.25</ele>
        <time>2021-07-18T15:09:32Z</time>
      </trkpt>
      <trkpt lat="46.45606" lon="3.92542">
        <ele>253.93</ele>
        <time>2021-07-18T15:09:43Z</time>
      </trkpt>
      <trkpt lat="46.45663" lon="3.92854">
        <ele>245.75</ele>
        <time>2021-07-18T15:09:55Z</time>
      </trkpt>
      <trkpt lat="46.45785" lon="3.93388">
        <ele>238.54</ele>
        <time>2021-07-18T15:10:17Z</time>
      </trkpt>
      <trkpt lat="46.45894" lon="3.93864">
        <ele>239.51</ele>
        <time>2021-07-18T15:10:36Z</time>
      </trkpt>
      <trkpt lat="46.45981" lon="3.94243">
        <ele>241.91</ele>
        <time>2021-07-18T15:10:51Z</time>
      </trkpt>
      <trkpt lat="46.46024" lon="3.9455">
        <ele>239.99</ele>
        <time>2021-07-18T15:11:03Z</time>
      </trkpt>
      <trkpt lat="46.46035" lon="3.94859">
        <ele>237.1</ele>
        <time>2021-07-18T15:11:16Z</time>
      </trkpt>
      <trkpt lat="46.46046" lon="3.95197">
        <ele>234.22</ele>
        <time>2021-07-18T15:11:31Z</time>
      </trkpt>
      <trkpt lat="46.46061" lon="3.95725">
        <ele>235.66</ele>
        <time>2021-07-18T15:11:52Z</time>
      </trkpt>
      <trkpt lat="46.46087" lon="3.96313">
        <ele>238.54</ele>
        <time>2021-07-18T15:12:14Z</time>
      </trkpt>
      <trkpt lat="46.46136" lon="3.96632">
        <ele>239.02</ele>
        <time>2021-07-18T15:12:29Z</time>
      </trkpt>
      <trkpt lat="46.4619" lon="3.96985">
        <ele>237.58</ele>
        <time>2021-07-18T15:12:46Z</time>
      </trkpt>
      <trkpt lat="46.46257" lon="3.97401">
        <ele>236.62</ele>
        <time>2021-07-18T15:13:05Z</time>
      </trkpt>
      <trkpt lat="46.46327" lon="3.97773">
        <ele>236.62</ele>
        <time>2021-07-18T15:13:21Z</time>
      </trkpt>
      <trkpt lat="46.46454" lon="3.98396">
        <ele>238.54</ele>
        <time>2021-07-18T15:13:46Z</time>
      </trkpt>
      <trkpt lat="46.46563" lon="3.98933">
        <ele>239.99</ele>
        <time>2021-07-18T15:14:10Z</time>
      </trkpt>
      <trkpt lat="46.46629" lon="3.99259">
        <ele>241.43</ele>
        <time>2021-07-18T15:14:26Z</time>
      </trkpt>
      <trkpt lat="46.46716" lon="3.99688">
        <ele>250.08</ele>
        <time>2021-07-18T15:14:45Z</time>
      </trkpt>
      <trkpt lat="46.46834" lon="4.00262">
        <ele>256.81</ele>
        <time>2021-07-18T15:15:09Z</time>
      </trkpt>
      <trkpt lat="46.46925" lon="4.00717">
        <ele>259.21</ele>
        <time>2021-07-18T15:15:26Z</time>
      </trkpt>
      <trkpt lat="46.46973" lon="4.00953">
        <ele>257.77</ele>
        <time>2021-07-18T15:15:35Z</time>
      </trkpt>
      <trkpt lat="46.47011" lon="4.01167">
        <ele>258.73</ele>
        <time>2021-07-18T15:15:49Z</time>
      </trkpt>
      <trkpt lat="46.47017" lon="4.01213">
        <ele>258.73</ele>
        <time>2021-07-18T15:15:52Z</time>
      </trkpt>
      <trkpt lat="46.47041" lon="4.01396">
        <ele>257.77</ele>
        <time>2021-07-18T15:16:01Z</time>
      </trkpt>
      <trkpt lat="46.47068" lon="4.01684">
        <ele>257.77</ele>
        <time>2021-07-18T15:16:11Z</time>
      </trkpt>
      <trkpt lat="46.47087" lon="4.02096">
        <ele>257.77</ele>
        <time>2021-07-18T15:16:23Z</time>
      </trkpt>
      <trkpt lat="46.47071" lon="4.02611">
        <ele>259.21</ele>
        <time>2021-07-18T15:16:37Z</time>
      </trkpt>
      <trkpt lat="46.47019" lon="4.03115">
        <ele>261.62</ele>
        <time>2021-07-18T15:16:51Z</time>
      </trkpt>
      <trkpt lat="46.46914" lon="4.0367">
        <ele>262.58</ele>
        <time>2021-07-18T15:17:07Z</time>
      </trkpt>
      <trkpt lat="46.46789" lon="4.04297">
        <ele>261.62</ele>
        <time>2021-07-18T15:17:25Z</time>
      </trkpt>
      <trkpt lat="46.46669" lon="4.05045">
        <ele>260.65</ele>
        <time>2021-07-18T15:17:46Z</time>
      </trkpt>
      <trkpt lat="46.46586" lon="4.05629">
        <ele>258.73</ele>
        <time>2021-07-18T15:18:02Z</time>
      </trkpt>
      <trkpt lat="46.46559" lon="4.06131">
        <ele>256.33</ele>
        <time>2021-07-18T15:18:16Z</time>
      </trkpt>
      <trkpt lat="46.46537" lon="4.06945">
        <ele>250.56</ele>
        <time>2021-07-18T15:18:38Z</time>
      </trkpt>
      <trkpt lat="46.465" lon="4.07279">
        <ele>252.48</ele>
        <time>2021-07-18T15:18:47Z</time>
      </trkpt>
      <trkpt lat="46.46407" lon="4.07744">
        <ele>256.33</ele>
        <time>2021-07-18T15:19:00Z</time>
      </trkpt>
      <trkpt lat="46.46386" lon="4.08045">
        <ele>258.25</ele>
        <time>2021-07-18T15:19:08Z</time>
      </trkpt>
      <trkpt lat="46.46419" lon="4.08338">
        <ele>258.73</ele>
        <time>2021-07-18T15:19:16Z</time>
      </trkpt>
      <trkpt lat="46.46511" lon="4.08633">
        <ele>255.37</ele>
        <time>2021-07-18T15:19:25Z</time>
      </trkpt>
      <trkpt lat="46.46704" lon="4.09069">
        <ele>246.23</ele>
        <time>2021-07-18T15:19:39Z</time>
      </trkpt>
      <trkpt lat="46.46801" lon="4.09406">
        <ele>241.43</ele>
        <time>2021-07-18T15:19:49Z</time>
      </trkpt>
      <trkpt lat="46.46845" lon="4.09753">
        <ele>240.95</ele>
        <time>2021-07-18T15:19:59Z</time>
      </trkpt>
      <trkpt lat="46.46852" lon="4.10131">
        <ele>245.75</ele>
        <time>2021-07-18T15:20:10Z</time>
      </trkpt>
      <trkpt lat="46.46839" lon="4.10927">
        <ele>259.21</ele>
        <time>2021-07-18T15:20:33Z</time>
      </trkpt>
      <trkpt lat="46.46874" lon="4.11494">
        <ele>268.35</ele>
        <time>2021-07-18T15:20:49Z</time>
      </trkpt>
      <trkpt lat="46.46942" lon="4.12008">
        <ele>273.15</ele>
        <time>2021-07-18T15:21:03Z</time>
      </trkpt>
      <trkpt lat="46.47057" lon="4.12557">
        <ele>278.92</ele>
        <time>2021-07-18T15:21:19Z</time>
      </trkpt>
      <trkpt lat="46.47212" lon="4.1307">
        <ele>284.69</ele>
        <time>2021-07-18T15:21:35Z</time>
      </trkpt>
      <trkpt lat="46.47409" lon="4.13566">
        <ele>288.05</ele>
        <time>2021-07-18T15:21:51Z</time>
      </trkpt>
      <trkpt lat="46.47608" lon="4.13952">
        <ele>288.05</ele>
        <time>2021-07-18T15:22:04Z</time>
      </trkpt>
      <trkpt lat="46.47858" lon="4.14335">
        <ele>285.65</ele>
        <time>2021-07-18T15:22:18Z</time>
      </trkpt>
      <trkpt lat="46.48134" lon="4.1467">
        <ele>283.25</ele>
        <time>2021-07-18T15:22:32Z</time>
      </trkpt>
      <trkpt lat="46.48514" lon="4.15039">
        <ele>280.36</ele>
        <time>2021-07-18T15:22:50Z</time>
      </trkpt>
      <trkpt lat="46.48767" lon="4.15253">
        <ele>279.88</ele>
        <time>2021-07-18T15:23:01Z</time>
      </trkpt>
      <trkpt lat="46.49129" lon="4.15513">
        <ele>278.92</ele>
        <time>2021-07-18T15:23:16Z</time>
      </trkpt>
      <trkpt lat="46.49475" lon="4.15722">
        <ele>278.44</ele>
        <time>2021-07-18T15:23:33Z</time>
      </trkpt>
      <trkpt lat="46.49828" lon="4.15889">
        <ele>278.44</ele>
        <time>2021-07-18T15:23:49Z</time>
      </trkpt>
      <trkpt lat="46.50198" lon="4.16029">
        <ele>280.84</ele>
        <time>2021-07-18T15:24:04Z</time>
      </trkpt>
      <trkpt lat="46.5064" lon="4.16138">
        <ele>282.77</ele>
        <time>2021-07-18T15:24:21Z</time>
      </trkpt>
      <trkpt lat="46.51032" lon="4.16216">
        <ele>281.8</ele>
        <time>2021-07-18T15:24:36Z</time>
      </trkpt>
      <trkpt lat="46.5127" lon="4.16259">
        <ele>280.36</ele>
        <time>2021-07-18T15:24:46Z</time>
      </trkpt>
      <trkpt lat="46.51752" lon="4.16354">
        <ele>278.44</ele>
        <time>2021-07-18T15:25:08Z</time>
      </trkpt>
      <trkpt lat="46.52136" lon="4.16423">
        <ele>277</ele>
        <time>2021-07-18T15:25:26Z</time>
      </trkpt>
      <trkpt lat="46.52414" lon="4.16496">
        <ele>276.52</ele>
        <time>2021-07-18T15:25:40Z</time>
      </trkpt>
      <trkpt lat="46.52815" lon="4.16631">
        <ele>278.44</ele>
        <time>2021-07-18T15:25:59Z</time>
      </trkpt>
      <trkpt lat="46.53242" lon="4.16803">
        <ele>280.36</ele>
        <time>2021-07-18T15:26:21Z</time>
      </trkpt>
      <trkpt lat="46.53711" lon="4.17033">
        <ele>283.25</ele>
        <time>2021-07-18T15:26:46Z</time>
      </trkpt>
      <trkpt lat="46.54118" lon="4.17268">
        <ele>283.25</ele>
        <time>2021-07-18T15:27:07Z</time>
      </trkpt>
      <trkpt lat="46.54482" lon="4.17503">
        <ele>278.92</ele>
        <time>2021-07-18T15:27:27Z</time>
      </trkpt>
      <trkpt lat="46.54827" lon="4.17755">
        <ele>273.15</ele>
        <time>2021-07-18T15:27:46Z</time>
      </trkpt>
      <trkpt lat="46.55181" lon="4.18041">
        <ele>266.42</ele>
        <time>2021-07-18T15:28:06Z</time>
      </trkpt>
      <trkpt lat="46.55557" lon="4.18365">
        <ele>263.54</ele>
        <time>2021-07-18T15:28:28Z</time>
      </trkpt>
      <trkpt lat="46.55781" lon="4.18583">
        <ele>267.38</ele>
        <time>2021-07-18T15:28:42Z</time>
      </trkpt>
      <trkpt lat="46.55987" lon="4.1878">
        <ele>269.79</ele>
        <time>2021-07-18T15:28:54Z</time>
      </trkpt>
      <trkpt lat="46.56263" lon="4.19038">
        <ele>271.23</ele>
        <time>2021-07-18T15:29:08Z</time>
      </trkpt>
      <trkpt lat="46.56622" lon="4.1938">
        <ele>276.52</ele>
        <time>2021-07-18T15:29:25Z</time>
      </trkpt>
      <trkpt lat="46.56987" lon="4.19782">
        <ele>278.44</ele>
        <time>2021-07-18T15:29:42Z</time>
      </trkpt>
      <trkpt lat="46.57254" lon="4.20155">
        <ele>282.77</ele>
        <time>2021-07-18T15:29:56Z</time>
      </trkpt>
      <trkpt lat="46.57479" lon="4.20572">
        <ele>285.65</ele>
        <time>2021-07-18T15:30:10Z</time>
      </trkpt>
      <trkpt lat="46.57732" lon="4.21074">
        <ele>284.21</ele>
        <time>2021-07-18T15:30:26Z</time>
      </trkpt>
      <trkpt lat="46.57989" lon="4.21482">
        <ele>277.48</ele>
        <time>2021-07-18T15:30:39Z</time>
      </trkpt>
      <trkpt lat="46.58265" lon="4.21817">
        <ele>266.9</ele>
        <time>2021-07-18T15:30:52Z</time>
      </trkpt>
      <trkpt lat="46.58561" lon="4.22127">
        <ele>260.65</ele>
        <time>2021-07-18T15:31:07Z</time>
      </trkpt>
      <trkpt lat="46.58837" lon="4.22454">
        <ele>261.14</ele>
        <time>2021-07-18T15:31:21Z</time>
      </trkpt>
      <trkpt lat="46.59053" lon="4.2279">
        <ele>264.02</ele>
        <time>2021-07-18T15:31:34Z</time>
      </trkpt>
      <trkpt lat="46.59228" lon="4.23097">
        <ele>270.75</ele>
        <time>2021-07-18T15:31:46Z</time>
      </trkpt>
      <trkpt lat="46.59465" lon="4.23533">
        <ele>280.36</ele>
        <time>2021-07-18T15:32:02Z</time>
      </trkpt>
      <trkpt lat="46.59679" lon="4.23837">
        <ele>282.77</ele>
        <time>2021-07-18T15:32:14Z</time>
      </trkpt>
      <trkpt lat="46.59913" lon="4.24128">
        <ele>282.28</ele>
        <time>2021-07-18T15:32:28Z</time>
      </trkpt>
      <trkpt lat="46.6013" lon="4.24383">
        <ele>283.25</ele>
        <time>2021-07-18T15:32:42Z</time>
      </trkpt>
      <trkpt lat="46.60375" lon="4.24766">
        <ele>284.21</ele>
        <time>2021-07-18T15:33:00Z</time>
      </trkpt>
      <trkpt lat="46.60573" lon="4.2517">
        <ele>282.77</ele>
        <time>2021-07-18T15:33:17Z</time>
      </trkpt>
      <trkpt lat="46.60732" lon="4.25591">
        <ele>279.88</ele>
        <time>2021-07-18T15:33:33Z</time>
      </trkpt>
      <trkpt lat="46.60775" lon="4.25722">
        <ele>278.92</ele>
        <time>2021-07-18T15:33:39Z</time>
      </trkpt>
      <trkpt lat="46.60783" lon="4.25748">
        <ele>278.92</ele>
        <time>2021-07-18T15:33:40Z</time>
      </trkpt>
      <trkpt lat="46.60783" lon="4.25748">
        <ele>279.4</ele>
        <time>2021-07-18T15:33:41Z</time>
      </trkpt>
      <trkpt lat="46.60786" lon="4.25756">
        <ele>279.4</ele>
        <time>2021-07-18T15:33:42Z</time>
      </trkpt>
      <trkpt lat="46.60767" lon="4.25789">
        <ele>279.88</ele>
        <time>2021-07-18T15:33:45Z</time>
      </trkpt>
      <trkpt lat="46.60767" lon="4.25797">
        <ele>280.36</ele>
        <time>2021-07-18T15:33:46Z</time>
      </trkpt>
      <trkpt lat="46.60767" lon="4.25802">
        <ele>280.36</ele>
        <time>2021-07-18T15:33:47Z</time>
      </trkpt>
      <trkpt lat="46.60773" lon="4.25823">
        <ele>281.8</ele>
        <time>2021-07-18T15:33:56Z</time>
      </trkpt>
      <trkpt lat="46.60776" lon="4.25833">
        <ele>282.28</ele>
        <time>2021-07-18T15:34:04Z</time>
      </trkpt>
      <trkpt lat="46.6078" lon="4.25844">
        <ele>282.28</ele>
        <time>2021-07-18T15:34:17Z</time>
      </trkpt>
      <trkpt lat="46.6078" lon="4.25844">
        <ele>282.28</ele>
        <time>2021-07-18T15:34:32Z</time>
      </trkpt>
      <trkpt lat="46.6078" lon="4.25844">
        <ele>282.28</ele>
        <time>2021-07-18T15:37:18Z</time>
      </trkpt>
      <trkpt lat="46.6078" lon="4.25844">
        <ele>281.32</ele>
        <time>2021-07-18T15:40:55Z</time>
      </trkpt>
      <trkpt lat="46.6078" lon="4.25844">
        <ele>280.84</ele>
        <time>2021-07-18T15:47:03Z</time>
      </trkpt>
      <trkpt lat="46.6078" lon="4.25844">
        <ele>281.32</ele>
        <time>2021-07-18T15:57:26Z</time>
      </trkpt>
      <trkpt lat="46.6078" lon="4.25844">
        <ele>281.8</ele>
        <time>2021-07-18T16:06:09Z</time>
      </trkpt>
      <trkpt lat="46.6078" lon="4.25844">
        <ele>281.8</ele>
        <time>2021-07-18T16:14:23Z</time>
      </trkpt>
      <trkpt lat="46.6078" lon="4.25844">
        <ele>281.8</ele>
        <time>2021-07-18T16:21:20Z</time>
      </trkpt>
      <trkpt lat="46.6078" lon="4.25844">
        <ele>281.8</ele>
        <time>2021-07-18T16:21:21Z</time>
      </trkpt>
      <trkpt lat="46.60785" lon="4.25858">
        <ele>281.8</ele>
        <time>2021-07-18T16:21:23Z</time>
      </trkpt>
      <trkpt lat="46.60786" lon="4.2586">
        <ele>281.8</ele>
        <time>2021-07-18T16:21:24Z</time>
      </trkpt>
      <trkpt lat="46.60802" lon="4.25907">
        <ele>280.84</ele>
        <time>2021-07-18T16:21:36Z</time>
      </trkpt>
      <trkpt lat="46.60825" lon="4.25976">
        <ele>280.84</ele>
        <time>2021-07-18T16:21:47Z</time>
      </trkpt>
      <trkpt lat="46.60876" lon="4.26038">
        <ele>280.36</ele>
        <time>2021-07-18T16:21:59Z</time>
      </trkpt>
      <trkpt lat="46.60879" lon="4.26047">
        <ele>279.4</ele>
        <time>2021-07-18T16:22:00Z</time>
      </trkpt>
      <trkpt lat="46.60941" lon="4.26214">
        <ele>280.84</ele>
        <time>2021-07-18T16:22:08Z</time>
      </trkpt>
      <trkpt lat="46.61041" lon="4.26468">
        <ele>282.28</ele>
        <time>2021-07-18T16:22:21Z</time>
      </trkpt>
      <trkpt lat="46.61178" lon="4.26752">
        <ele>284.21</ele>
        <time>2021-07-18T16:22:33Z</time>
      </trkpt>
      <trkpt lat="46.61356" lon="4.2706">
        <ele>281.32</ele>
        <time>2021-07-18T16:22:47Z</time>
      </trkpt>
      <trkpt lat="46.6158" lon="4.27447">
        <ele>275.56</ele>
        <time>2021-07-18T16:23:04Z</time>
      </trkpt>
      <trkpt lat="46.61725" lon="4.27777">
        <ele>274.11</ele>
        <time>2021-07-18T16:23:18Z</time>
      </trkpt>
      <trkpt lat="46.6184" lon="4.28151">
        <ele>275.56</ele>
        <time>2021-07-18T16:23:32Z</time>
      </trkpt>
      <trkpt lat="46.61973" lon="4.28664">
        <ele>283.73</ele>
        <time>2021-07-18T16:23:51Z</time>
      </trkpt>
      <trkpt lat="46.62107" lon="4.29052">
        <ele>294.78</ele>
        <time>2021-07-18T16:24:05Z</time>
      </trkpt>
      <trkpt lat="46.62326" lon="4.29533">
        <ele>303.91</ele>
        <time>2021-07-18T16:24:23Z</time>
      </trkpt>
      <trkpt lat="46.62463" lon="4.29925">
        <ele>304.39</ele>
        <time>2021-07-18T16:24:36Z</time>
      </trkpt>
      <trkpt lat="46.62591" lon="4.30326">
        <ele>299.59</ele>
        <time>2021-07-18T16:24:48Z</time>
      </trkpt>
      <trkpt lat="46.62751" lon="4.30677">
        <ele>295.26</ele>
        <time>2021-07-18T16:24:59Z</time>
      </trkpt>
      <trkpt lat="46.63001" lon="4.31192">
        <ele>298.15</ele>
        <time>2021-07-18T16:25:15Z</time>
      </trkpt>
      <trkpt lat="46.63141" lon="4.31584">
        <ele>301.03</ele>
        <time>2021-07-18T16:25:28Z</time>
      </trkpt>
      <trkpt lat="46.63307" lon="4.31995">
        <ele>301.03</ele>
        <time>2021-07-18T16:25:41Z</time>
      </trkpt>
      <trkpt lat="46.63492" lon="4.32309">
        <ele>293.34</ele>
        <time>2021-07-18T16:25:52Z</time>
      </trkpt>
      <trkpt lat="46.63718" lon="4.3259">
        <ele>284.69</ele>
        <time>2021-07-18T16:26:03Z</time>
      </trkpt>
      <trkpt lat="46.6395" lon="4.32785">
        <ele>280.36</ele>
        <time>2021-07-18T16:26:13Z</time>
      </trkpt>
      <trkpt lat="46.64189" lon="4.32906">
        <ele>279.88</ele>
        <time>2021-07-18T16:26:23Z</time>
      </trkpt>
      <trkpt lat="46.64406" lon="4.32954">
        <ele>281.32</ele>
        <time>2021-07-18T16:26:32Z</time>
      </trkpt>
      <trkpt lat="46.64665" lon="4.32952">
        <ele>290.94</ele>
        <time>2021-07-18T16:26:43Z</time>
      </trkpt>
      <trkpt lat="46.65016" lon="4.32922">
        <ele>295.74</ele>
        <time>2021-07-18T16:26:58Z</time>
      </trkpt>
      <trkpt lat="46.65224" lon="4.3297">
        <ele>298.15</ele>
        <time>2021-07-18T16:27:07Z</time>
      </trkpt>
      <trkpt lat="46.6549" lon="4.33043">
        <ele>297.67</ele>
        <time>2021-07-18T16:27:19Z</time>
      </trkpt>
      <trkpt lat="46.65757" lon="4.33087">
        <ele>291.42</ele>
        <time>2021-07-18T16:27:30Z</time>
      </trkpt>
      <trkpt lat="46.65979" lon="4.33184">
        <ele>284.21</ele>
        <time>2021-07-18T16:27:39Z</time>
      </trkpt>
      <trkpt lat="46.66227" lon="4.33374">
        <ele>279.88</ele>
        <time>2021-07-18T16:27:50Z</time>
      </trkpt>
      <trkpt lat="46.66395" lon="4.33584">
        <ele>278.92</ele>
        <time>2021-07-18T16:27:59Z</time>
      </trkpt>
      <trkpt lat="46.66547" lon="4.3386">
        <ele>279.4</ele>
        <time>2021-07-18T16:28:09Z</time>
      </trkpt>
      <trkpt lat="46.66683" lon="4.34055">
        <ele>278.44</ele>
        <time>2021-07-18T16:28:17Z</time>
      </trkpt>
      <trkpt lat="46.66873" lon="4.34213">
        <ele>276.52</ele>
        <time>2021-07-18T16:28:26Z</time>
      </trkpt>
      <trkpt lat="46.67278" lon="4.34463">
        <ele>277.96</ele>
        <time>2021-07-18T16:28:44Z</time>
      </trkpt>
      <trkpt lat="46.67493" lon="4.34533">
        <ele>276.04</ele>
        <time>2021-07-18T16:28:53Z</time>
      </trkpt>
      <trkpt lat="46.67825" lon="4.34593">
        <ele>274.59</ele>
        <time>2021-07-18T16:29:06Z</time>
      </trkpt>
      <trkpt lat="46.68025" lon="4.34681">
        <ele>272.19</ele>
        <time>2021-07-18T16:29:14Z</time>
      </trkpt>
      <trkpt lat="46.682" lon="4.34828">
        <ele>277.48</ele>
        <time>2021-07-18T16:29:22Z</time>
      </trkpt>
      <trkpt lat="46.68345" lon="4.35023">
        <ele>280.84</ele>
        <time>2021-07-18T16:29:30Z</time>
      </trkpt>
      <trkpt lat="46.68484" lon="4.35318">
        <ele>282.77</ele>
        <time>2021-07-18T16:29:40Z</time>
      </trkpt>
      <trkpt lat="46.68667" lon="4.3584">
        <ele>278.44</ele>
        <time>2021-07-18T16:29:55Z</time>
      </trkpt>
      <trkpt lat="46.68875" lon="4.36436">
        <ele>273.63</ele>
        <time>2021-07-18T16:30:14Z</time>
      </trkpt>
      <trkpt lat="46.69096" lon="4.37067">
        <ele>275.07</ele>
        <time>2021-07-18T16:30:33Z</time>
      </trkpt>
      <trkpt lat="46.69194" lon="4.3741">
        <ele>273.63</ele>
        <time>2021-07-18T16:30:43Z</time>
      </trkpt>
      <trkpt lat="46.69201" lon="4.3763">
        <ele>276.52</ele>
        <time>2021-07-18T16:30:49Z</time>
      </trkpt>
      <trkpt lat="46.69174" lon="4.37906">
        <ele>281.32</ele>
        <time>2021-07-18T16:30:57Z</time>
      </trkpt>
      <trkpt lat="46.692" lon="4.38112">
        <ele>280.84</ele>
        <time>2021-07-18T16:31:03Z</time>
      </trkpt>
      <trkpt lat="46.69271" lon="4.38272">
        <ele>279.4</ele>
        <time>2021-07-18T16:31:09Z</time>
      </trkpt>
      <trkpt lat="46.69387" lon="4.38393">
        <ele>277</ele>
        <time>2021-07-18T16:31:16Z</time>
      </trkpt>
      <trkpt lat="46.69531" lon="4.3846">
        <ele>276.04</ele>
        <time>2021-07-18T16:31:24Z</time>
      </trkpt>
      <trkpt lat="46.69711" lon="4.38554">
        <ele>282.77</ele>
        <time>2021-07-18T16:31:35Z</time>
      </trkpt>
      <trkpt lat="46.6983" lon="4.38709">
        <ele>287.57</ele>
        <time>2021-07-18T16:31:43Z</time>
      </trkpt>
      <trkpt lat="46.69958" lon="4.38968">
        <ele>287.09</ele>
        <time>2021-07-18T16:31:56Z</time>
      </trkpt>
      <trkpt lat="46.70071" lon="4.39233">
        <ele>289.01</ele>
        <time>2021-07-18T16:32:08Z</time>
      </trkpt>
      <trkpt lat="46.70106" lon="4.39433">
        <ele>284.21</ele>
        <time>2021-07-18T16:32:16Z</time>
      </trkpt>
      <trkpt lat="46.70092" lon="4.3966">
        <ele>288.05</ele>
        <time>2021-07-18T16:32:25Z</time>
      </trkpt>
      <trkpt lat="46.70038" lon="4.40044">
        <ele>290.46</ele>
        <time>2021-07-18T16:32:41Z</time>
      </trkpt>
      <trkpt lat="46.70027" lon="4.4012">
        <ele>289.97</ele>
        <time>2021-07-18T16:32:45Z</time>
      </trkpt>
      <trkpt lat="46.70015" lon="4.40215">
        <ele>289.49</ele>
        <time>2021-07-18T16:32:50Z</time>
      </trkpt>
      <trkpt lat="46.70005" lon="4.40408">
        <ele>290.46</ele>
        <time>2021-07-18T16:33:00Z</time>
      </trkpt>
      <trkpt lat="46.70019" lon="4.40626">
        <ele>290.94</ele>
        <time>2021-07-18T16:33:13Z</time>
      </trkpt>
      <trkpt lat="46.70058" lon="4.40832">
        <ele>290.46</ele>
        <time>2021-07-18T16:33:26Z</time>
      </trkpt>
      <trkpt lat="46.70128" lon="4.41052">
        <ele>289.01</ele>
        <time>2021-07-18T16:33:39Z</time>
      </trkpt>
      <trkpt lat="46.70221" lon="4.41248">
        <ele>287.57</ele>
        <time>2021-07-18T16:33:52Z</time>
      </trkpt>
      <trkpt lat="46.70319" lon="4.41425">
        <ele>285.65</ele>
        <time>2021-07-18T16:34:07Z</time>
      </trkpt>
      <trkpt lat="46.70446" lon="4.41654">
        <ele>283.73</ele>
        <time>2021-07-18T16:34:24Z</time>
      </trkpt>
      <trkpt lat="46.7056" lon="4.41866">
        <ele>285.17</ele>
        <time>2021-07-18T16:34:38Z</time>
      </trkpt>
      <trkpt lat="46.7067" lon="4.42065">
        <ele>286.13</ele>
        <time>2021-07-18T16:34:52Z</time>
      </trkpt>
      <trkpt lat="46.70808" lon="4.42334">
        <ele>289.01</ele>
        <time>2021-07-18T16:35:10Z</time>
      </trkpt>
      <trkpt lat="46.70901" lon="4.425">
        <ele>289.49</ele>
        <time>2021-07-18T16:35:21Z</time>
      </trkpt>
      <trkpt lat="46.71053" lon="4.42774">
        <ele>291.9</ele>
        <time>2021-07-18T16:35:39Z</time>
      </trkpt>
      <trkpt lat="46.71171" lon="4.42986">
        <ele>291.9</ele>
        <time>2021-07-18T16:35:54Z</time>
      </trkpt>
      <trkpt lat="46.71285" lon="4.43192">
        <ele>293.34</ele>
        <time>2021-07-18T16:36:06Z</time>
      </trkpt>
      <trkpt lat="46.71427" lon="4.4345">
        <ele>294.78</ele>
        <time>2021-07-18T16:36:17Z</time>
      </trkpt>
      <trkpt lat="46.71576" lon="4.43658">
        <ele>296.22</ele>
        <time>2021-07-18T16:36:26Z</time>
      </trkpt>
      <trkpt lat="46.71869" lon="4.43977">
        <ele>297.67</ele>
        <time>2021-07-18T16:36:41Z</time>
      </trkpt>
      <trkpt lat="46.72198" lon="4.44366">
        <ele>298.63</ele>
        <time>2021-07-18T16:36:58Z</time>
      </trkpt>
      <trkpt lat="46.72316" lon="4.44603">
        <ele>297.67</ele>
        <time>2021-07-18T16:37:06Z</time>
      </trkpt>
      <trkpt lat="46.72512" lon="4.45174">
        <ele>296.22</ele>
        <time>2021-07-18T16:37:23Z</time>
      </trkpt>
      <trkpt lat="46.72735" lon="4.45827">
        <ele>296.22</ele>
        <time>2021-07-18T16:37:43Z</time>
      </trkpt>
      <trkpt lat="46.72915" lon="4.46353">
        <ele>296.22</ele>
        <time>2021-07-18T16:37:59Z</time>
      </trkpt>
      <trkpt lat="46.73089" lon="4.46809">
        <ele>297.67</ele>
        <time>2021-07-18T16:38:14Z</time>
      </trkpt>
      <trkpt lat="46.73316" lon="4.4728">
        <ele>300.55</ele>
        <time>2021-07-18T16:38:30Z</time>
      </trkpt>
      <trkpt lat="46.73644" lon="4.47923">
        <ele>300.07</ele>
        <time>2021-07-18T16:38:53Z</time>
      </trkpt>
      <trkpt lat="46.73825" lon="4.48239">
        <ele>301.51</ele>
        <time>2021-07-18T16:39:05Z</time>
      </trkpt>
      <trkpt lat="46.74009" lon="4.48442">
        <ele>301.99</ele>
        <time>2021-07-18T16:39:15Z</time>
      </trkpt>
      <trkpt lat="46.74339" lon="4.48739">
        <ele>302.47</ele>
        <time>2021-07-18T16:39:32Z</time>
      </trkpt>
      <trkpt lat="46.74542" lon="4.48925">
        <ele>302.95</ele>
        <time>2021-07-18T16:39:42Z</time>
      </trkpt>
      <trkpt lat="46.74646" lon="4.49018">
        <ele>305.36</ele>
        <time>2021-07-18T16:39:50Z</time>
      </trkpt>
      <trkpt lat="46.74793" lon="4.49154">
        <ele>308.72</ele>
        <time>2021-07-18T16:40:03Z</time>
      </trkpt>
      <trkpt lat="46.74802" lon="4.49167">
        <ele>309.2</ele>
        <time>2021-07-18T16:40:04Z</time>
      </trkpt>
      <trkpt lat="46.7481" lon="4.49179">
        <ele>310.16</ele>
        <time>2021-07-18T16:40:05Z</time>
      </trkpt>
      <trkpt lat="46.74831" lon="4.49225">
        <ele>311.12</ele>
        <time>2021-07-18T16:40:11Z</time>
      </trkpt>
      <trkpt lat="46.74834" lon="4.49232">
        <ele>311.12</ele>
        <time>2021-07-18T16:40:14Z</time>
      </trkpt>
      <trkpt lat="46.74836" lon="4.49238">
        <ele>311.12</ele>
        <time>2021-07-18T16:40:15Z</time>
      </trkpt>
      <trkpt lat="46.74837" lon="4.49242">
        <ele>311.6</ele>
        <time>2021-07-18T16:40:16Z</time>
      </trkpt>
      <trkpt lat="46.74837" lon="4.49273">
        <ele>312.09</ele>
        <time>2021-07-18T16:40:18Z</time>
      </trkpt>
      <trkpt lat="46.74841" lon="4.49287">
        <ele>312.09</ele>
        <time>2021-07-18T16:40:19Z</time>
      </trkpt>
      <trkpt lat="46.74841" lon="4.49287">
        <ele>313.05</ele>
        <time>2021-07-18T16:40:20Z</time>
      </trkpt>
      <trkpt lat="46.74846" lon="4.493">
        <ele>312.09</ele>
        <time>2021-07-18T16:40:21Z</time>
      </trkpt>
      <trkpt lat="46.74853" lon="4.49312">
        <ele>312.09</ele>
        <time>2021-07-18T16:40:22Z</time>
      </trkpt>
      <trkpt lat="46.7486" lon="4.49322">
        <ele>312.09</ele>
        <time>2021-07-18T16:40:23Z</time>
      </trkpt>
      <trkpt lat="46.74874" lon="4.49342">
        <ele>313.05</ele>
        <time>2021-07-18T16:40:24Z</time>
      </trkpt>
      <trkpt lat="46.74874" lon="4.49342">
        <ele>312.57</ele>
        <time>2021-07-18T16:40:25Z</time>
      </trkpt>
      <trkpt lat="46.74879" lon="4.49354">
        <ele>312.09</ele>
        <time>2021-07-18T16:40:26Z</time>
      </trkpt>
      <trkpt lat="46.74882" lon="4.49368">
        <ele>312.09</ele>
        <time>2021-07-18T16:40:27Z</time>
      </trkpt>
      <trkpt lat="46.74885" lon="4.49384">
        <ele>311.12</ele>
        <time>2021-07-18T16:40:28Z</time>
      </trkpt>
      <trkpt lat="46.74905" lon="4.49548">
        <ele>308.72</ele>
        <time>2021-07-18T16:40:36Z</time>
      </trkpt>
      <trkpt lat="46.74926" lon="4.49887">
        <ele>304.88</ele>
        <time>2021-07-18T16:40:48Z</time>
      </trkpt>
      <trkpt lat="46.7494" lon="4.50366">
        <ele>316.41</ele>
        <time>2021-07-18T16:41:03Z</time>
      </trkpt>
      <trkpt lat="46.74903" lon="4.50659">
        <ele>316.41</ele>
        <time>2021-07-18T16:41:12Z</time>
      </trkpt>
      <trkpt lat="46.74769" lon="4.51293">
        <ele>314.01</ele>
        <time>2021-07-18T16:41:30Z</time>
      </trkpt>
      <trkpt lat="46.74622" lon="4.52004">
        <ele>325.06</ele>
        <time>2021-07-18T16:41:53Z</time>
      </trkpt>
      <trkpt lat="46.74494" lon="4.52661">
        <ele>343.81</ele>
        <time>2021-07-18T16:42:13Z</time>
      </trkpt>
      <trkpt lat="46.74406" lon="4.53229">
        <ele>357.75</ele>
        <time>2021-07-18T16:42:30Z</time>
      </trkpt>
      <trkpt lat="46.74393" lon="4.53935">
        <ele>373.61</ele>
        <time>2021-07-18T16:42:50Z</time>
      </trkpt>
      <trkpt lat="46.7437" lon="4.54565">
        <ele>388.99</ele>
        <time>2021-07-18T16:43:08Z</time>
      </trkpt>
      <trkpt lat="46.74298" lon="4.54832">
        <ele>394.28</ele>
        <time>2021-07-18T16:43:16Z</time>
      </trkpt>
      <trkpt lat="46.74169" lon="4.5509">
        <ele>401.01</ele>
        <time>2021-07-18T16:43:25Z</time>
      </trkpt>
      <trkpt lat="46.74058" lon="4.5536">
        <ele>407.74</ele>
        <time>2021-07-18T16:43:34Z</time>
      </trkpt>
      <trkpt lat="46.73967" lon="4.55748">
        <ele>418.79</ele>
        <time>2021-07-18T16:43:46Z</time>
      </trkpt>
      <trkpt lat="46.73869" lon="4.56268">
        <ele>418.31</ele>
        <time>2021-07-18T16:44:00Z</time>
      </trkpt>
      <trkpt lat="46.73861" lon="4.5661">
        <ele>418.31</ele>
        <time>2021-07-18T16:44:09Z</time>
      </trkpt>
      <trkpt lat="46.73903" lon="4.56903">
        <ele>414.47</ele>
        <time>2021-07-18T16:44:18Z</time>
      </trkpt>
      <trkpt lat="46.74018" lon="4.57365">
        <ele>408.7</ele>
        <time>2021-07-18T16:44:31Z</time>
      </trkpt>
      <trkpt lat="46.74053" lon="4.57625">
        <ele>406.29</ele>
        <time>2021-07-18T16:44:38Z</time>
      </trkpt>
      <trkpt lat="46.74026" lon="4.5789">
        <ele>400.53</ele>
        <time>2021-07-18T16:44:45Z</time>
      </trkpt>
      <trkpt lat="46.7395" lon="4.58094">
        <ele>394.76</ele>
        <time>2021-07-18T16:44:51Z</time>
      </trkpt>
      <trkpt lat="46.73822" lon="4.58278">
        <ele>389.95</ele>
        <time>2021-07-18T16:44:58Z</time>
      </trkpt>
      <trkpt lat="46.73605" lon="4.5856">
        <ele>381.78</ele>
        <time>2021-07-18T16:45:10Z</time>
      </trkpt>
      <trkpt lat="46.73538" lon="4.58758">
        <ele>378.9</ele>
        <time>2021-07-18T16:45:16Z</time>
      </trkpt>
      <trkpt lat="46.7352" lon="4.58981">
        <ele>375.53</ele>
        <time>2021-07-18T16:45:22Z</time>
      </trkpt>
      <trkpt lat="46.7356" lon="4.59197">
        <ele>367.36</ele>
        <time>2021-07-18T16:45:28Z</time>
      </trkpt>
      <trkpt lat="46.73707" lon="4.5965">
        <ele>353.42</ele>
        <time>2021-07-18T16:45:41Z</time>
      </trkpt>
      <trkpt lat="46.73772" lon="4.59937">
        <ele>347.65</ele>
        <time>2021-07-18T16:45:49Z</time>
      </trkpt>
      <trkpt lat="46.73777" lon="4.6021">
        <ele>341.89</ele>
        <time>2021-07-18T16:45:56Z</time>
      </trkpt>
      <trkpt lat="46.73736" lon="4.6085">
        <ele>336.12</ele>
        <time>2021-07-18T16:46:12Z</time>
      </trkpt>
      <trkpt lat="46.73694" lon="4.61527">
        <ele>326.5</ele>
        <time>2021-07-18T16:46:31Z</time>
      </trkpt>
      <trkpt lat="46.7368" lon="4.61956">
        <ele>315.93</ele>
        <time>2021-07-18T16:46:42Z</time>
      </trkpt>
      <trkpt lat="46.73721" lon="4.62222">
        <ele>310.16</ele>
        <time>2021-07-18T16:46:49Z</time>
      </trkpt>
      <trkpt lat="46.7381" lon="4.62501">
        <ele>301.03</ele>
        <time>2021-07-18T16:46:57Z</time>
      </trkpt>
      <trkpt lat="46.74015" lon="4.63092">
        <ele>304.39</ele>
        <time>2021-07-18T16:47:15Z</time>
      </trkpt>
      <trkpt lat="46.74237" lon="4.63737">
        <ele>302.95</ele>
        <time>2021-07-18T16:47:34Z</time>
      </trkpt>
      <trkpt lat="46.74426" lon="4.64205">
        <ele>297.18</ele>
        <time>2021-07-18T16:47:48Z</time>
      </trkpt>
      <trkpt lat="46.74644" lon="4.64764">
        <ele>295.26</ele>
        <time>2021-07-18T16:48:05Z</time>
      </trkpt>
      <trkpt lat="46.74916" lon="4.65456">
        <ele>298.15</ele>
        <time>2021-07-18T16:48:25Z</time>
      </trkpt>
      <trkpt lat="46.75114" lon="4.65817">
        <ele>300.07</ele>
        <time>2021-07-18T16:48:38Z</time>
      </trkpt>
      <trkpt lat="46.75243" lon="4.66108">
        <ele>303.91</ele>
        <time>2021-07-18T16:48:47Z</time>
      </trkpt>
      <trkpt lat="46.75311" lon="4.66392">
        <ele>308.72</ele>
        <time>2021-07-18T16:48:55Z</time>
      </trkpt>
      <trkpt lat="46.75346" lon="4.66828">
        <ele>314.97</ele>
        <time>2021-07-18T16:49:07Z</time>
      </trkpt>
      <trkpt lat="46.75384" lon="4.6741">
        <ele>306.8</ele>
        <time>2021-07-18T16:49:22Z</time>
      </trkpt>
      <trkpt lat="46.75419" lon="4.67971">
        <ele>292.38</ele>
        <time>2021-07-18T16:49:36Z</time>
      </trkpt>
      <trkpt lat="46.75464" lon="4.68717">
        <ele>277</ele>
        <time>2021-07-18T16:49:56Z</time>
      </trkpt>
      <trkpt lat="46.75524" lon="4.69355">
        <ele>265.94</ele>
        <time>2021-07-18T16:50:13Z</time>
      </trkpt>
      <trkpt lat="46.75615" lon="4.69699">
        <ele>256.81</ele>
        <time>2021-07-18T16:50:23Z</time>
      </trkpt>
      <trkpt lat="46.75656" lon="4.70028">
        <ele>248.64</ele>
        <time>2021-07-18T16:50:31Z</time>
      </trkpt>
      <trkpt lat="46.75678" lon="4.70482">
        <ele>241.43</ele>
        <time>2021-07-18T16:50:44Z</time>
      </trkpt>
      <trkpt lat="46.75675" lon="4.71062">
        <ele>237.58</ele>
        <time>2021-07-18T16:51:00Z</time>
      </trkpt>
      <trkpt lat="46.75711" lon="4.71562">
        <ele>232.78</ele>
        <time>2021-07-18T16:51:14Z</time>
      </trkpt>
      <trkpt lat="46.75784" lon="4.72275">
        <ele>225.57</ele>
        <time>2021-07-18T16:51:33Z</time>
      </trkpt>
      <trkpt lat="46.75859" lon="4.7299">
        <ele>227.49</ele>
        <time>2021-07-18T16:51:52Z</time>
      </trkpt>
      <trkpt lat="46.75923" lon="4.73605">
        <ele>229.89</ele>
        <time>2021-07-18T16:52:10Z</time>
      </trkpt>
      <trkpt lat="46.75984" lon="4.74217">
        <ele>225.57</ele>
        <time>2021-07-18T16:52:27Z</time>
      </trkpt>
      <trkpt lat="46.76028" lon="4.74746">
        <ele>220.28</ele>
        <time>2021-07-18T16:52:41Z</time>
      </trkpt>
      <trkpt lat="46.76011" lon="4.75054">
        <ele>215.95</ele>
        <time>2021-07-18T16:52:49Z</time>
      </trkpt>
      <trkpt lat="46.75927" lon="4.7584">
        <ele>209.7</ele>
        <time>2021-07-18T16:53:09Z</time>
      </trkpt>
      <trkpt lat="46.75862" lon="4.76516">
        <ele>209.7</ele>
        <time>2021-07-18T16:53:26Z</time>
      </trkpt>
      <trkpt lat="46.758" lon="4.77296">
        <ele>204.9</ele>
        <time>2021-07-18T16:53:46Z</time>
      </trkpt>
      <trkpt lat="46.75736" lon="4.78077">
        <ele>201.53</ele>
        <time>2021-07-18T16:54:06Z</time>
      </trkpt>
      <trkpt lat="46.75692" lon="4.78722">
        <ele>205.86</ele>
        <time>2021-07-18T16:54:23Z</time>
      </trkpt>
      <trkpt lat="46.75629" lon="4.79694">
        <ele>204.9</ele>
        <time>2021-07-18T16:54:48Z</time>
      </trkpt>
      <trkpt lat="46.75578" lon="4.80453">
        <ele>203.94</ele>
        <time>2021-07-18T16:55:08Z</time>
      </trkpt>
      <trkpt lat="46.75549" lon="4.81047">
        <ele>194.8</ele>
        <time>2021-07-18T16:55:23Z</time>
      </trkpt>
      <trkpt lat="46.75541" lon="4.81652">
        <ele>182.31</ele>
        <time>2021-07-18T16:55:39Z</time>
      </trkpt>
      <trkpt lat="46.75535" lon="4.82035">
        <ele>183.75</ele>
        <time>2021-07-18T16:55:50Z</time>
      </trkpt>
      <trkpt lat="46.75531" lon="4.82388">
        <ele>184.23</ele>
        <time>2021-07-18T16:56:02Z</time>
      </trkpt>
      <trkpt lat="46.75529" lon="4.82466">
        <ele>182.79</ele>
        <time>2021-07-18T16:56:06Z</time>
      </trkpt>
      <trkpt lat="46.75528" lon="4.82477">
        <ele>182.79</ele>
        <time>2021-07-18T16:56:07Z</time>
      </trkpt>
      <trkpt lat="46.75523" lon="4.82492">
        <ele>182.79</ele>
        <time>2021-07-18T16:56:08Z</time>
      </trkpt>
      <trkpt lat="46.75517" lon="4.825">
        <ele>182.79</ele>
        <time>2021-07-18T16:56:09Z</time>
      </trkpt>
      <trkpt lat="46.75514" lon="4.82511">
        <ele>182.79</ele>
        <time>2021-07-18T16:56:10Z</time>
      </trkpt>
      <trkpt lat="46.75512" lon="4.82524">
        <ele>182.79</ele>
        <time>2021-07-18T16:56:11Z</time>
      </trkpt>
      <trkpt lat="46.75514" lon="4.82533">
        <ele>182.31</ele>
        <time>2021-07-18T16:56:12Z</time>
      </trkpt>
      <trkpt lat="46.75517" lon="4.82543">
        <ele>182.31</ele>
        <time>2021-07-18T16:56:13Z</time>
      </trkpt>
      <trkpt lat="46.75533" lon="4.82556">
        <ele>182.31</ele>
        <time>2021-07-18T16:56:14Z</time>
      </trkpt>
      <trkpt lat="46.75533" lon="4.82556">
        <ele>181.83</ele>
        <time>2021-07-18T16:56:15Z</time>
      </trkpt>
      <trkpt lat="46.75539" lon="4.82567">
        <ele>181.83</ele>
        <time>2021-07-18T16:56:16Z</time>
      </trkpt>
      <trkpt lat="46.75545" lon="4.82579">
        <ele>181.83</ele>
        <time>2021-07-18T16:56:17Z</time>
      </trkpt>
      <trkpt lat="46.75552" lon="4.82592">
        <ele>181.83</ele>
        <time>2021-07-18T16:56:18Z</time>
      </trkpt>
      <trkpt lat="46.75556" lon="4.82608">
        <ele>182.31</ele>
        <time>2021-07-18T16:56:19Z</time>
      </trkpt>
      <trkpt lat="46.75607" lon="4.82809">
        <ele>186.63</ele>
        <time>2021-07-18T16:56:29Z</time>
      </trkpt>
      <trkpt lat="46.75656" lon="4.83045">
        <ele>187.59</ele>
        <time>2021-07-18T16:56:40Z</time>
      </trkpt>
      <trkpt lat="46.75656" lon="4.8306">
        <ele>187.11</ele>
        <time>2021-07-18T16:56:41Z</time>
      </trkpt>
      <trkpt lat="46.75654" lon="4.83086">
        <ele>187.11</ele>
        <time>2021-07-18T16:56:42Z</time>
      </trkpt>
      <trkpt lat="46.75654" lon="4.83086">
        <ele>185.67</ele>
        <time>2021-07-18T16:56:43Z</time>
      </trkpt>
      <trkpt lat="46.75649" lon="4.83098">
        <ele>185.67</ele>
        <time>2021-07-18T16:56:44Z</time>
      </trkpt>
      <trkpt lat="46.75643" lon="4.83109">
        <ele>186.15</ele>
        <time>2021-07-18T16:56:45Z</time>
      </trkpt>
      <trkpt lat="46.75633" lon="4.83115">
        <ele>186.15</ele>
        <time>2021-07-18T16:56:46Z</time>
      </trkpt>
      <trkpt lat="46.75621" lon="4.83121">
        <ele>185.67</ele>
        <time>2021-07-18T16:56:47Z</time>
      </trkpt>
      <trkpt lat="46.75591" lon="4.83139">
        <ele>183.75</ele>
        <time>2021-07-18T16:56:50Z</time>
      </trkpt>
      <trkpt lat="46.75582" lon="4.83145">
        <ele>182.31</ele>
        <time>2021-07-18T16:56:51Z</time>
      </trkpt>
      <trkpt lat="46.75574" lon="4.83154">
        <ele>181.35</ele>
        <time>2021-07-18T16:56:52Z</time>
      </trkpt>
      <trkpt lat="46.75567" lon="4.83164">
        <ele>180.87</ele>
        <time>2021-07-18T16:56:53Z</time>
      </trkpt>
      <trkpt lat="46.75562" lon="4.83179">
        <ele>180.38</ele>
        <time>2021-07-18T16:56:54Z</time>
      </trkpt>
      <trkpt lat="46.75556" lon="4.83194">
        <ele>180.38</ele>
        <time>2021-07-18T16:56:55Z</time>
      </trkpt>
      <trkpt lat="46.7555" lon="4.83209">
        <ele>180.87</ele>
        <time>2021-07-18T16:56:56Z</time>
      </trkpt>
      <trkpt lat="46.75542" lon="4.83243">
        <ele>179.42</ele>
        <time>2021-07-18T16:56:58Z</time>
      </trkpt>
      <trkpt lat="46.75528" lon="4.8327">
        <ele>178.46</ele>
        <time>2021-07-18T16:56:59Z</time>
      </trkpt>
      <trkpt lat="46.75528" lon="4.8327">
        <ele>177.5</ele>
        <time>2021-07-18T16:57:00Z</time>
      </trkpt>
      <trkpt lat="46.75507" lon="4.8329">
        <ele>177.98</ele>
        <time>2021-07-18T16:57:01Z</time>
      </trkpt>
      <trkpt lat="46.75498" lon="4.833">
        <ele>179.42</ele>
        <time>2021-07-18T16:57:02Z</time>
      </trkpt>
      <trkpt lat="46.75498" lon="4.833">
        <ele>180.38</ele>
        <time>2021-07-18T16:57:03Z</time>
      </trkpt>
      <trkpt lat="46.75485" lon="4.83313">
        <ele>179.9</ele>
        <time>2021-07-18T16:57:04Z</time>
      </trkpt>
      <trkpt lat="46.75472" lon="4.83314">
        <ele>179.42</ele>
        <time>2021-07-18T16:57:05Z</time>
      </trkpt>
      <trkpt lat="46.75385" lon="4.83326">
        <ele>178.94</ele>
        <time>2021-07-18T16:57:14Z</time>
      </trkpt>
      <trkpt lat="46.75371" lon="4.83327">
        <ele>180.38</ele>
        <time>2021-07-18T16:57:22Z</time>
      </trkpt>
      <trkpt lat="46.75364" lon="4.83328">
        <ele>180.87</ele>
        <time>2021-07-18T16:57:32Z</time>
      </trkpt>
      <trkpt lat="46.75338" lon="4.8333">
        <ele>180.38</ele>
        <time>2021-07-18T16:57:42Z</time>
      </trkpt>
      <trkpt lat="46.75258" lon="4.83316">
        <ele>180.38</ele>
        <time>2021-07-18T16:57:52Z</time>
      </trkpt>
      <trkpt lat="46.7525" lon="4.83313">
        <ele>180.38</ele>
        <time>2021-07-18T16:57:53Z</time>
      </trkpt>
      <trkpt lat="46.75242" lon="4.83309">
        <ele>180.87</ele>
        <time>2021-07-18T16:57:54Z</time>
      </trkpt>
      <trkpt lat="46.75233" lon="4.83305">
        <ele>181.83</ele>
        <time>2021-07-18T16:57:55Z</time>
      </trkpt>
      <trkpt lat="46.75226" lon="4.83301">
        <ele>181.83</ele>
        <time>2021-07-18T16:57:56Z</time>
      </trkpt>
      <trkpt lat="46.75218" lon="4.83295">
        <ele>181.83</ele>
        <time>2021-07-18T16:57:57Z</time>
      </trkpt>
      <trkpt lat="46.75212" lon="4.8329">
        <ele>181.83</ele>
        <time>2021-07-18T16:57:58Z</time>
      </trkpt>
      <trkpt lat="46.75207" lon="4.83277">
        <ele>181.35</ele>
        <time>2021-07-18T16:57:59Z</time>
      </trkpt>
      <trkpt lat="46.75202" lon="4.83263">
        <ele>181.35</ele>
        <time>2021-07-18T16:58:00Z</time>
      </trkpt>
      <trkpt lat="46.75201" lon="4.83248">
        <ele>182.31</ele>
        <time>2021-07-18T16:58:01Z</time>
      </trkpt>
      <trkpt lat="46.75202" lon="4.83233">
        <ele>181.35</ele>
        <time>2021-07-18T16:58:02Z</time>
      </trkpt>
      <trkpt lat="46.75204" lon="4.83219">
        <ele>180.38</ele>
        <time>2021-07-18T16:58:03Z</time>
      </trkpt>
      <trkpt lat="46.75213" lon="4.83205">
        <ele>180.38</ele>
        <time>2021-07-18T16:58:04Z</time>
      </trkpt>
      <trkpt lat="46.75222" lon="4.83195">
        <ele>180.38</ele>
        <time>2021-07-18T16:58:05Z</time>
      </trkpt>
      <trkpt lat="46.75234" lon="4.83184">
        <ele>179.42</ele>
        <time>2021-07-18T16:58:06Z</time>
      </trkpt>
      <trkpt lat="46.75246" lon="4.83178">
        <ele>178.46</ele>
        <time>2021-07-18T16:58:07Z</time>
      </trkpt>
      <trkpt lat="46.75397" lon="4.83098">
        <ele>180.87</ele>
        <time>2021-07-18T16:58:17Z</time>
      </trkpt>
      <trkpt lat="46.7569" lon="4.82962">
        <ele>179.9</ele>
        <time>2021-07-18T16:58:33Z</time>
      </trkpt>
      <trkpt lat="46.75922" lon="4.82825">
        <ele>184.23</ele>
        <time>2021-07-18T16:58:45Z</time>
      </trkpt>
      <trkpt lat="46.76291" lon="4.82589">
        <ele>188.56</ele>
        <time>2021-07-18T16:59:02Z</time>
      </trkpt>
      <trkpt lat="46.76692" lon="4.82333">
        <ele>194.32</ele>
        <time>2021-07-18T16:59:20Z</time>
      </trkpt>
      <trkpt lat="46.76923" lon="4.82184">
        <ele>196.25</ele>
        <time>2021-07-18T16:59:31Z</time>
      </trkpt>
      <trkpt lat="46.77211" lon="4.82009">
        <ele>195.28</ele>
        <time>2021-07-18T16:59:43Z</time>
      </trkpt>
      <trkpt lat="46.77447" lon="4.81949">
        <ele>193.36</ele>
        <time>2021-07-18T16:59:51Z</time>
      </trkpt>
      <trkpt lat="46.77771" lon="4.81956">
        <ele>193.84</ele>
        <time>2021-07-18T17:00:03Z</time>
      </trkpt>
      <trkpt lat="46.78161" lon="4.81975">
        <ele>185.19</ele>
        <time>2021-07-18T17:00:19Z</time>
      </trkpt>
      <trkpt lat="46.78685" lon="4.82001">
        <ele>181.83</ele>
        <time>2021-07-18T17:00:39Z</time>
      </trkpt>
      <trkpt lat="46.78936" lon="4.82051">
        <ele>180.87</ele>
        <time>2021-07-18T17:00:49Z</time>
      </trkpt>
      <trkpt lat="46.79207" lon="4.82157">
        <ele>185.67</ele>
        <time>2021-07-18T17:01:01Z</time>
      </trkpt>
      <trkpt lat="46.79652" lon="4.82338">
        <ele>187.59</ele>
        <time>2021-07-18T17:01:22Z</time>
      </trkpt>
      <trkpt lat="46.80032" lon="4.82479">
        <ele>186.63</ele>
        <time>2021-07-18T17:01:39Z</time>
      </trkpt>
      <trkpt lat="46.80458" lon="4.82575">
        <ele>178.46</ele>
        <time>2021-07-18T17:01:57Z</time>
      </trkpt>
      <trkpt lat="46.80959" lon="4.82686">
        <ele>180.38</ele>
        <time>2021-07-18T17:02:18Z</time>
      </trkpt>
      <trkpt lat="46.81503" lon="4.82822">
        <ele>182.79</ele>
        <time>2021-07-18T17:02:41Z</time>
      </trkpt>
      <trkpt lat="46.8189" lon="4.82919">
        <ele>184.71</ele>
        <time>2021-07-18T17:02:57Z</time>
      </trkpt>
      <trkpt lat="46.82443" lon="4.83058">
        <ele>184.23</ele>
        <time>2021-07-18T17:03:19Z</time>
      </trkpt>
      <trkpt lat="46.82867" lon="4.83151">
        <ele>186.63</ele>
        <time>2021-07-18T17:03:36Z</time>
      </trkpt>
      <trkpt lat="46.83343" lon="4.83215">
        <ele>188.56</ele>
        <time>2021-07-18T17:03:55Z</time>
      </trkpt>
      <trkpt lat="46.83785" lon="4.83205">
        <ele>189.04</ele>
        <time>2021-07-18T17:04:12Z</time>
      </trkpt>
      <trkpt lat="46.84236" lon="4.83134">
        <ele>191.92</ele>
        <time>2021-07-18T17:04:29Z</time>
      </trkpt>
      <trkpt lat="46.84685" lon="4.82993">
        <ele>196.25</ele>
        <time>2021-07-18T17:04:46Z</time>
      </trkpt>
      <trkpt lat="46.85201" lon="4.82756">
        <ele>198.65</ele>
        <time>2021-07-18T17:05:06Z</time>
      </trkpt>
      <trkpt lat="46.85733" lon="4.82478">
        <ele>202.49</ele>
        <time>2021-07-18T17:05:27Z</time>
      </trkpt>
      <trkpt lat="46.86236" lon="4.82229">
        <ele>209.22</ele>
        <time>2021-07-18T17:05:48Z</time>
      </trkpt>
      <trkpt lat="46.86725" lon="4.82035">
        <ele>211.63</ele>
        <time>2021-07-18T17:06:08Z</time>
      </trkpt>
      <trkpt lat="46.87139" lon="4.81933">
        <ele>213.55</ele>
        <time>2021-07-18T17:06:24Z</time>
      </trkpt>
      <trkpt lat="46.87573" lon="4.8189">
        <ele>219.32</ele>
        <time>2021-07-18T17:06:41Z</time>
      </trkpt>
      <trkpt lat="46.88015" lon="4.81905">
        <ele>222.68</ele>
        <time>2021-07-18T17:06:59Z</time>
      </trkpt>
      <trkpt lat="46.88456" lon="4.81978">
        <ele>224.12</ele>
        <time>2021-07-18T17:07:17Z</time>
      </trkpt>
      <trkpt lat="46.88789" lon="4.82059">
        <ele>221.72</ele>
        <time>2021-07-18T17:07:30Z</time>
      </trkpt>
      <trkpt lat="46.8929" lon="4.82191">
        <ele>213.55</ele>
        <time>2021-07-18T17:07:49Z</time>
      </trkpt>
      <trkpt lat="46.89701" lon="4.82255">
        <ele>212.59</ele>
        <time>2021-07-18T17:08:04Z</time>
      </trkpt>
      <trkpt lat="46.90077" lon="4.8224">
        <ele>218.36</ele>
        <time>2021-07-18T17:08:17Z</time>
      </trkpt>
      <trkpt lat="46.90465" lon="4.8216">
        <ele>230.37</ele>
        <time>2021-07-18T17:08:33Z</time>
      </trkpt>
      <trkpt lat="46.90862" lon="4.82058">
        <ele>233.74</ele>
        <time>2021-07-18T17:08:48Z</time>
      </trkpt>
      <trkpt lat="46.9132" lon="4.81958">
        <ele>230.85</ele>
        <time>2021-07-18T17:09:05Z</time>
      </trkpt>
      <trkpt lat="46.91771" lon="4.81901">
        <ele>223.16</ele>
        <time>2021-07-18T17:09:22Z</time>
      </trkpt>
      <trkpt lat="46.9219" lon="4.81906">
        <ele>210.19</ele>
        <time>2021-07-18T17:09:37Z</time>
      </trkpt>
      <trkpt lat="46.9255" lon="4.8196">
        <ele>204.42</ele>
        <time>2021-07-18T17:09:50Z</time>
      </trkpt>
      <trkpt lat="46.92969" lon="4.82074">
        <ele>202.01</ele>
        <time>2021-07-18T17:10:06Z</time>
      </trkpt>
      <trkpt lat="46.93435" lon="4.82266">
        <ele>202.01</ele>
        <time>2021-07-18T17:10:24Z</time>
      </trkpt>
      <trkpt lat="46.93948" lon="4.82528">
        <ele>199.13</ele>
        <time>2021-07-18T17:10:46Z</time>
      </trkpt>
      <trkpt lat="46.94543" lon="4.82853">
        <ele>199.13</ele>
        <time>2021-07-18T17:11:12Z</time>
      </trkpt>
      <trkpt lat="46.95042" lon="4.83124">
        <ele>201.05</ele>
        <time>2021-07-18T17:11:34Z</time>
      </trkpt>
      <trkpt lat="46.95443" lon="4.83341">
        <ele>201.53</ele>
        <time>2021-07-18T17:11:53Z</time>
      </trkpt>
      <trkpt lat="46.95797" lon="4.83521">
        <ele>202.49</ele>
        <time>2021-07-18T17:12:09Z</time>
      </trkpt>
      <trkpt lat="46.95924" lon="4.83604">
        <ele>204.42</ele>
        <time>2021-07-18T17:12:18Z</time>
      </trkpt>
      <trkpt lat="46.95943" lon="4.83626">
        <ele>204.9</ele>
        <time>2021-07-18T17:12:19Z</time>
      </trkpt>
      <trkpt lat="46.95943" lon="4.83626">
        <ele>205.38</ele>
        <time>2021-07-18T17:12:20Z</time>
      </trkpt>
      <trkpt lat="46.95957" lon="4.8365">
        <ele>204.9</ele>
        <time>2021-07-18T17:12:25Z</time>
      </trkpt>
      <trkpt lat="46.9597" lon="4.83671">
        <ele>204.42</ele>
        <time>2021-07-18T17:12:37Z</time>
      </trkpt>
      <trkpt lat="46.95975" lon="4.83679">
        <ele>204.42</ele>
        <time>2021-07-18T17:12:40Z</time>
      </trkpt>
      <trkpt lat="46.95978" lon="4.83684">
        <ele>203.94</ele>
        <time>2021-07-18T17:12:41Z</time>
      </trkpt>
      <trkpt lat="46.95984" lon="4.83692">
        <ele>203.94</ele>
        <time>2021-07-18T17:12:42Z</time>
      </trkpt>
      <trkpt lat="46.95996" lon="4.83697">
        <ele>204.42</ele>
        <time>2021-07-18T17:12:43Z</time>
      </trkpt>
      <trkpt lat="46.96003" lon="4.837">
        <ele>204.42</ele>
        <time>2021-07-18T17:12:44Z</time>
      </trkpt>
      <trkpt lat="46.96119" lon="4.83743">
        <ele>205.86</ele>
        <time>2021-07-18T17:13:03Z</time>
      </trkpt>
      <trkpt lat="46.96124" lon="4.83745">
        <ele>205.86</ele>
        <time>2021-07-18T17:13:04Z</time>
      </trkpt>
      <trkpt lat="46.96128" lon="4.83746">
        <ele>205.86</ele>
        <time>2021-07-18T17:13:05Z</time>
      </trkpt>
      <trkpt lat="46.96143" lon="4.83753">
        <ele>206.82</ele>
        <time>2021-07-18T17:13:10Z</time>
      </trkpt>
      <trkpt lat="46.96146" lon="4.83756">
        <ele>206.34</ele>
        <time>2021-07-18T17:13:11Z</time>
      </trkpt>
      <trkpt lat="46.96155" lon="4.83765">
        <ele>205.86</ele>
        <time>2021-07-18T17:13:14Z</time>
      </trkpt>
      <trkpt lat="46.96155" lon="4.83765">
        <ele>206.34</ele>
        <time>2021-07-18T17:13:15Z</time>
      </trkpt>
      <trkpt lat="46.96155" lon="4.83765">
        <ele>205.86</ele>
        <time>2021-07-18T17:13:16Z</time>
      </trkpt>
      <trkpt lat="46.96155" lon="4.83765">
        <ele>205.86</ele>
        <time>2021-07-18T17:13:17Z</time>
      </trkpt>
      <trkpt lat="46.96163" lon="4.83798">
        <ele>205.86</ele>
        <time>2021-07-18T17:13:18Z</time>
      </trkpt>
      <trkpt lat="46.96163" lon="4.83798">
        <ele>205.86</ele>
        <time>2021-07-18T17:13:19Z</time>
      </trkpt>
      <trkpt lat="46.96166" lon="4.83801">
        <ele>205.86</ele>
        <time>2021-07-18T17:13:20Z</time>
      </trkpt>
      <trkpt lat="46.96196" lon="4.83795">
        <ele>205.86</ele>
        <time>2021-07-18T17:13:30Z</time>
      </trkpt>
      <trkpt lat="46.96217" lon="4.83802">
        <ele>206.34</ele>
        <time>2021-07-18T17:13:40Z</time>
      </trkpt>
      <trkpt lat="46.9622" lon="4.83803">
        <ele>206.82</ele>
        <time>2021-07-18T17:18:01Z</time>
      </trkpt>
      <trkpt lat="46.9622" lon="4.83803">
        <ele>206.82</ele>
        <time>2021-07-18T17:20:26Z</time>
      </trkpt>
      <trkpt lat="46.9622" lon="4.83803">
        <ele>206.34</ele>
        <time>2021-07-18T17:20:42Z</time>
      </trkpt>
      <trkpt lat="46.9622" lon="4.83803">
        <ele>205.38</ele>
        <time>2021-07-18T17:21:36Z</time>
      </trkpt>
      <trkpt lat="46.9622" lon="4.83803">
        <ele>204.9</ele>
        <time>2021-07-18T17:22:30Z</time>
      </trkpt>
      <trkpt lat="46.9622" lon="4.83803">
        <ele>204.42</ele>
        <time>2021-07-18T17:23:46Z</time>
      </trkpt>
      <trkpt lat="46.96236" lon="4.83808">
        <ele>203.94</ele>
        <time>2021-07-18T17:24:28Z</time>
      </trkpt>
      <trkpt lat="46.96256" lon="4.83764">
        <ele>205.86</ele>
        <time>2021-07-18T17:24:42Z</time>
      </trkpt>
      <trkpt lat="46.96262" lon="4.83734">
        <ele>206.82</ele>
        <time>2021-07-18T17:24:53Z</time>
      </trkpt>
      <trkpt lat="46.96273" lon="4.83732">
        <ele>206.82</ele>
        <time>2021-07-18T17:24:58Z</time>
      </trkpt>
      <trkpt lat="46.96328" lon="4.83754">
        <ele>206.34</ele>
        <time>2021-07-18T17:25:10Z</time>
      </trkpt>
      <trkpt lat="46.96339" lon="4.83758">
        <ele>206.34</ele>
        <time>2021-07-18T17:25:12Z</time>
      </trkpt>
      <trkpt lat="46.9636" lon="4.83791">
        <ele>206.82</ele>
        <time>2021-07-18T17:25:20Z</time>
      </trkpt>
      <trkpt lat="46.96363" lon="4.83793">
        <ele>206.34</ele>
        <time>2021-07-18T17:25:22Z</time>
      </trkpt>
      <trkpt lat="46.96394" lon="4.83785">
        <ele>205.86</ele>
        <time>2021-07-18T17:25:30Z</time>
      </trkpt>
      <trkpt lat="46.965" lon="4.83793">
        <ele>204.42</ele>
        <time>2021-07-18T17:25:39Z</time>
      </trkpt>
      <trkpt lat="46.96632" lon="4.83825">
        <ele>203.94</ele>
        <time>2021-07-18T17:25:48Z</time>
      </trkpt>
      <trkpt lat="46.96802" lon="4.8389">
        <ele>206.34</ele>
        <time>2021-07-18T17:25:57Z</time>
      </trkpt>
      <trkpt lat="46.97121" lon="4.84035">
        <ele>207.78</ele>
        <time>2021-07-18T17:26:12Z</time>
      </trkpt>
      <trkpt lat="46.97544" lon="4.84287">
        <ele>206.82</ele>
        <time>2021-07-18T17:26:30Z</time>
      </trkpt>
      <trkpt lat="46.97917" lon="4.84554">
        <ele>207.78</ele>
        <time>2021-07-18T17:26:48Z</time>
      </trkpt>
      <trkpt lat="46.98398" lon="4.8491">
        <ele>210.19</ele>
        <time>2021-07-18T17:27:10Z</time>
      </trkpt>
      <trkpt lat="46.9886" lon="4.85252">
        <ele>210.67</ele>
        <time>2021-07-18T17:27:31Z</time>
      </trkpt>
      <trkpt lat="46.99313" lon="4.8556">
        <ele>208.26</ele>
        <time>2021-07-18T17:27:51Z</time>
      </trkpt>
      <trkpt lat="46.99889" lon="4.85899">
        <ele>206.34</ele>
        <time>2021-07-18T17:28:15Z</time>
      </trkpt>
      <trkpt lat="47.00372" lon="4.86161">
        <ele>206.34</ele>
        <time>2021-07-18T17:28:35Z</time>
      </trkpt>
      <trkpt lat="47.00792" lon="4.86386">
        <ele>208.26</ele>
        <time>2021-07-18T17:28:53Z</time>
      </trkpt>
      <trkpt lat="47.01277" lon="4.86646">
        <ele>208.26</ele>
        <time>2021-07-18T17:29:15Z</time>
      </trkpt>
      <trkpt lat="47.01699" lon="4.86867">
        <ele>209.22</ele>
        <time>2021-07-18T17:29:33Z</time>
      </trkpt>
      <trkpt lat="47.02232" lon="4.8715">
        <ele>209.22</ele>
        <time>2021-07-18T17:29:55Z</time>
      </trkpt>
      <trkpt lat="47.02787" lon="4.87491">
        <ele>210.19</ele>
        <time>2021-07-18T17:30:18Z</time>
      </trkpt>
      <trkpt lat="47.03253" lon="4.87845">
        <ele>210.67</ele>
        <time>2021-07-18T17:30:38Z</time>
      </trkpt>
      <trkpt lat="47.03608" lon="4.88156">
        <ele>210.67</ele>
        <time>2021-07-18T17:30:54Z</time>
      </trkpt>
      <trkpt lat="47.04028" lon="4.88577">
        <ele>209.7</ele>
        <time>2021-07-18T17:31:14Z</time>
      </trkpt>
      <trkpt lat="47.04469" lon="4.89099">
        <ele>208.26</ele>
        <time>2021-07-18T17:31:36Z</time>
      </trkpt>
      <trkpt lat="47.04933" lon="4.89721">
        <ele>208.26</ele>
        <time>2021-07-18T17:31:59Z</time>
      </trkpt>
      <trkpt lat="47.05367" lon="4.90317">
        <ele>207.78</ele>
        <time>2021-07-18T17:32:23Z</time>
      </trkpt>
      <trkpt lat="47.05641" lon="4.90662">
        <ele>210.67</ele>
        <time>2021-07-18T17:32:38Z</time>
      </trkpt>
      <trkpt lat="47.0588" lon="4.91006">
        <ele>218.84</ele>
        <time>2021-07-18T17:32:53Z</time>
      </trkpt>
      <trkpt lat="47.0597" lon="4.91212">
        <ele>223.16</ele>
        <time>2021-07-18T17:33:01Z</time>
      </trkpt>
      <trkpt lat="47.06017" lon="4.91459">
        <ele>223.64</ele>
        <time>2021-07-18T17:33:09Z</time>
      </trkpt>
      <trkpt lat="47.06011" lon="4.91731">
        <ele>224.12</ele>
        <time>2021-07-18T17:33:17Z</time>
      </trkpt>
      <trkpt lat="47.05953" lon="4.91978">
        <ele>221.72</ele>
        <time>2021-07-18T17:33:24Z</time>
      </trkpt>
      <trkpt lat="47.05774" lon="4.92495">
        <ele>218.36</ele>
        <time>2021-07-18T17:33:38Z</time>
      </trkpt>
      <trkpt lat="47.05557" lon="4.93117">
        <ele>215.47</ele>
        <time>2021-07-18T17:33:54Z</time>
      </trkpt>
      <trkpt lat="47.05328" lon="4.93776">
        <ele>215.95</ele>
        <time>2021-07-18T17:34:12Z</time>
      </trkpt>
      <trkpt lat="47.05008" lon="4.94723">
        <ele>211.63</ele>
        <time>2021-07-18T17:34:38Z</time>
      </trkpt>
      <trkpt lat="47.0485" lon="4.95329">
        <ele>207.78</ele>
        <time>2021-07-18T17:34:54Z</time>
      </trkpt>
      <trkpt lat="47.04738" lon="4.9594">
        <ele>208.26</ele>
        <time>2021-07-18T17:35:10Z</time>
      </trkpt>
      <trkpt lat="47.04669" lon="4.96517">
        <ele>206.82</ele>
        <time>2021-07-18T17:35:25Z</time>
      </trkpt>
      <trkpt lat="47.04636" lon="4.97167">
        <ele>203.94</ele>
        <time>2021-07-18T17:35:42Z</time>
      </trkpt>
      <trkpt lat="47.04613" lon="4.98019">
        <ele>199.13</ele>
        <time>2021-07-18T17:36:04Z</time>
      </trkpt>
      <trkpt lat="47.04554" lon="4.98725">
        <ele>197.21</ele>
        <time>2021-07-18T17:36:22Z</time>
      </trkpt>
      <trkpt lat="47.04497" lon="4.99423">
        <ele>194.8</ele>
        <time>2021-07-18T17:36:40Z</time>
      </trkpt>
      <trkpt lat="47.04487" lon="4.99988">
        <ele>193.84</ele>
        <time>2021-07-18T17:36:55Z</time>
      </trkpt>
      <trkpt lat="47.04512" lon="5.00566">
        <ele>198.17</ele>
        <time>2021-07-18T17:37:11Z</time>
      </trkpt>
      <trkpt lat="47.04565" lon="5.01342">
        <ele>203.94</ele>
        <time>2021-07-18T17:37:32Z</time>
      </trkpt>
      <trkpt lat="47.04602" lon="5.02074">
        <ele>207.3</ele>
        <time>2021-07-18T17:37:51Z</time>
      </trkpt>
      <trkpt lat="47.04588" lon="5.02751">
        <ele>208.26</ele>
        <time>2021-07-18T17:38:07Z</time>
      </trkpt>
      <trkpt lat="47.04537" lon="5.03355">
        <ele>205.86</ele>
        <time>2021-07-18T17:38:23Z</time>
      </trkpt>
      <trkpt lat="47.04429" lon="5.04042">
        <ele>201.05</ele>
        <time>2021-07-18T17:38:40Z</time>
      </trkpt>
      <trkpt lat="47.04297" lon="5.04623">
        <ele>195.28</ele>
        <time>2021-07-18T17:38:55Z</time>
      </trkpt>
      <trkpt lat="47.04136" lon="5.05158">
        <ele>198.17</ele>
        <time>2021-07-18T17:39:10Z</time>
      </trkpt>
      <trkpt lat="47.03933" lon="5.05689">
        <ele>202.49</ele>
        <time>2021-07-18T17:39:26Z</time>
      </trkpt>
      <trkpt lat="47.0361" lon="5.06439">
        <ele>206.82</ele>
        <time>2021-07-18T17:39:49Z</time>
      </trkpt>
      <trkpt lat="47.03413" lon="5.06958">
        <ele>208.26</ele>
        <time>2021-07-18T17:40:04Z</time>
      </trkpt>
      <trkpt lat="47.03253" lon="5.07507">
        <ele>207.78</ele>
        <time>2021-07-18T17:40:19Z</time>
      </trkpt>
      <trkpt lat="47.03143" lon="5.08045">
        <ele>205.86</ele>
        <time>2021-07-18T17:40:33Z</time>
      </trkpt>
      <trkpt lat="47.03068" lon="5.08695">
        <ele>203.46</ele>
        <time>2021-07-18T17:40:49Z</time>
      </trkpt>
      <trkpt lat="47.03045" lon="5.09213">
        <ele>207.3</ele>
        <time>2021-07-18T17:41:02Z</time>
      </trkpt>
      <trkpt lat="47.03057" lon="5.09786">
        <ele>206.34</ele>
        <time>2021-07-18T17:41:17Z</time>
      </trkpt>
      <trkpt lat="47.03103" lon="5.10474">
        <ele>200.57</ele>
        <time>2021-07-18T17:41:35Z</time>
      </trkpt>
      <trkpt lat="47.03119" lon="5.11078">
        <ele>193.36</ele>
        <time>2021-07-18T17:41:50Z</time>
      </trkpt>
      <trkpt lat="47.03101" lon="5.11903">
        <ele>183.27</ele>
        <time>2021-07-18T17:42:10Z</time>
      </trkpt>
      <trkpt lat="47.0309" lon="5.12578">
        <ele>181.83</ele>
        <time>2021-07-18T17:42:27Z</time>
      </trkpt>
      <trkpt lat="47.03095" lon="5.13287">
        <ele>181.35</ele>
        <time>2021-07-18T17:42:46Z</time>
      </trkpt>
      <trkpt lat="47.03124" lon="5.14163">
        <ele>184.23</ele>
        <time>2021-07-18T17:43:09Z</time>
      </trkpt>
      <trkpt lat="47.03161" lon="5.14822">
        <ele>188.08</ele>
        <time>2021-07-18T17:43:28Z</time>
      </trkpt>
      <trkpt lat="47.03204" lon="5.15565">
        <ele>190.96</ele>
        <time>2021-07-18T17:43:48Z</time>
      </trkpt>
      <trkpt lat="47.03229" lon="5.16306">
        <ele>187.11</ele>
        <time>2021-07-18T17:44:08Z</time>
      </trkpt>
      <trkpt lat="47.03239" lon="5.17034">
        <ele>182.79</ele>
        <time>2021-07-18T17:44:28Z</time>
      </trkpt>
      <trkpt lat="47.03241" lon="5.17766">
        <ele>186.15</ele>
        <time>2021-07-18T17:44:45Z</time>
      </trkpt>
      <trkpt lat="47.0328" lon="5.18375">
        <ele>189.52</ele>
        <time>2021-07-18T17:45:01Z</time>
      </trkpt>
      <trkpt lat="47.03342" lon="5.18854">
        <ele>189.52</ele>
        <time>2021-07-18T17:45:15Z</time>
      </trkpt>
      <trkpt lat="47.03457" lon="5.19416">
        <ele>188.08</ele>
        <time>2021-07-18T17:45:30Z</time>
      </trkpt>
      <trkpt lat="47.03607" lon="5.19929">
        <ele>188.56</ele>
        <time>2021-07-18T17:45:44Z</time>
      </trkpt>
      <trkpt lat="47.03795" lon="5.20428">
        <ele>190.48</ele>
        <time>2021-07-18T17:45:58Z</time>
      </trkpt>
      <trkpt lat="47.04015" lon="5.20881">
        <ele>189.04</ele>
        <time>2021-07-18T17:46:12Z</time>
      </trkpt>
      <trkpt lat="47.04262" lon="5.21303">
        <ele>191.92</ele>
        <time>2021-07-18T17:46:26Z</time>
      </trkpt>
      <trkpt lat="47.04633" lon="5.21929">
        <ele>190.48</ele>
        <time>2021-07-18T17:46:46Z</time>
      </trkpt>
      <trkpt lat="47.04836" lon="5.22343">
        <ele>190.48</ele>
        <time>2021-07-18T17:47:00Z</time>
      </trkpt>
      <trkpt lat="47.05017" lon="5.22804">
        <ele>185.19</ele>
        <time>2021-07-18T17:47:14Z</time>
      </trkpt>
      <trkpt lat="47.05188" lon="5.23363">
        <ele>185.67</ele>
        <time>2021-07-18T17:47:30Z</time>
      </trkpt>
      <trkpt lat="47.05412" lon="5.24172">
        <ele>184.71</ele>
        <time>2021-07-18T17:47:53Z</time>
      </trkpt>
      <trkpt lat="47.05579" lon="5.2467">
        <ele>187.59</ele>
        <time>2021-07-18T17:48:08Z</time>
      </trkpt>
      <trkpt lat="47.05811" lon="5.25281">
        <ele>185.67</ele>
        <time>2021-07-18T17:48:27Z</time>
      </trkpt>
      <trkpt lat="47.06045" lon="5.25998">
        <ele>186.15</ele>
        <time>2021-07-18T17:48:48Z</time>
      </trkpt>
      <trkpt lat="47.06167" lon="5.26483">
        <ele>186.63</ele>
        <time>2021-07-18T17:49:03Z</time>
      </trkpt>
      <trkpt lat="47.06279" lon="5.27086">
        <ele>189.04</ele>
        <time>2021-07-18T17:49:20Z</time>
      </trkpt>
      <trkpt lat="47.06361" lon="5.27806">
        <ele>192.88</ele>
        <time>2021-07-18T17:49:39Z</time>
      </trkpt>
      <trkpt lat="47.06395" lon="5.28381">
        <ele>191.44</ele>
        <time>2021-07-18T17:49:55Z</time>
      </trkpt>
      <trkpt lat="47.06438" lon="5.2915">
        <ele>190.48</ele>
        <time>2021-07-18T17:50:14Z</time>
      </trkpt>
      <trkpt lat="47.06501" lon="5.29811">
        <ele>187.59</ele>
        <time>2021-07-18T17:50:29Z</time>
      </trkpt>
      <trkpt lat="47.06592" lon="5.30383">
        <ele>189.52</ele>
        <time>2021-07-18T17:50:44Z</time>
      </trkpt>
      <trkpt lat="47.06711" lon="5.30927">
        <ele>188.08</ele>
        <time>2021-07-18T17:50:58Z</time>
      </trkpt>
      <trkpt lat="47.0688" lon="5.31499">
        <ele>188.56</ele>
        <time>2021-07-18T17:51:14Z</time>
      </trkpt>
      <trkpt lat="47.07097" lon="5.32074">
        <ele>188.56</ele>
        <time>2021-07-18T17:51:31Z</time>
      </trkpt>
      <trkpt lat="47.07345" lon="5.32604">
        <ele>189.04</ele>
        <time>2021-07-18T17:51:48Z</time>
      </trkpt>
      <trkpt lat="47.07591" lon="5.33038">
        <ele>190</ele>
        <time>2021-07-18T17:52:03Z</time>
      </trkpt>
      <trkpt lat="47.0787" lon="5.33449">
        <ele>193.36</ele>
        <time>2021-07-18T17:52:18Z</time>
      </trkpt>
      <trkpt lat="47.08195" lon="5.33846">
        <ele>192.4</ele>
        <time>2021-07-18T17:52:33Z</time>
      </trkpt>
      <trkpt lat="47.086" lon="5.34275">
        <ele>195.77</ele>
        <time>2021-07-18T17:52:52Z</time>
      </trkpt>
      <trkpt lat="47.09025" lon="5.34721">
        <ele>199.61</ele>
        <time>2021-07-18T17:53:13Z</time>
      </trkpt>
      <trkpt lat="47.09363" lon="5.35125">
        <ele>201.05</ele>
        <time>2021-07-18T17:53:30Z</time>
      </trkpt>
      <trkpt lat="47.09646" lon="5.35562">
        <ele>202.98</ele>
        <time>2021-07-18T17:53:46Z</time>
      </trkpt>
      <trkpt lat="47.09973" lon="5.36144">
        <ele>204.9</ele>
        <time>2021-07-18T17:54:05Z</time>
      </trkpt>
      <trkpt lat="47.10279" lon="5.36657">
        <ele>205.38</ele>
        <time>2021-07-18T17:54:22Z</time>
      </trkpt>
      <trkpt lat="47.10563" lon="5.37038">
        <ele>206.34</ele>
        <time>2021-07-18T17:54:36Z</time>
      </trkpt>
      <trkpt lat="47.10919" lon="5.3744">
        <ele>200.09</ele>
        <time>2021-07-18T17:54:52Z</time>
      </trkpt>
      <trkpt lat="47.11357" lon="5.37918">
        <ele>194.8</ele>
        <time>2021-07-18T17:55:11Z</time>
      </trkpt>
      <trkpt lat="47.11699" lon="5.38313">
        <ele>198.65</ele>
        <time>2021-07-18T17:55:29Z</time>
      </trkpt>
      <trkpt lat="47.11978" lon="5.38697">
        <ele>201.53</ele>
        <time>2021-07-18T17:55:44Z</time>
      </trkpt>
      <trkpt lat="47.12248" lon="5.39171">
        <ele>203.46</ele>
        <time>2021-07-18T17:56:00Z</time>
      </trkpt>
      <trkpt lat="47.12456" lon="5.39621">
        <ele>204.9</ele>
        <time>2021-07-18T17:56:14Z</time>
      </trkpt>
      <trkpt lat="47.12658" lon="5.40168">
        <ele>205.86</ele>
        <time>2021-07-18T17:56:30Z</time>
      </trkpt>
      <trkpt lat="47.12805" lon="5.40727">
        <ele>206.82</ele>
        <time>2021-07-18T17:56:45Z</time>
      </trkpt>
      <trkpt lat="47.12908" lon="5.41322">
        <ele>203.46</ele>
        <time>2021-07-18T17:57:00Z</time>
      </trkpt>
      <trkpt lat="47.12962" lon="5.41906">
        <ele>199.61</ele>
        <time>2021-07-18T17:57:14Z</time>
      </trkpt>
      <trkpt lat="47.12996" lon="5.4267">
        <ele>206.82</ele>
        <time>2021-07-18T17:57:32Z</time>
      </trkpt>
      <trkpt lat="47.13024" lon="5.43411">
        <ele>211.15</ele>
        <time>2021-07-18T17:57:50Z</time>
      </trkpt>
      <trkpt lat="47.13077" lon="5.4414">
        <ele>208.26</ele>
        <time>2021-07-18T17:58:08Z</time>
      </trkpt>
      <trkpt lat="47.13146" lon="5.44613">
        <ele>207.3</ele>
        <time>2021-07-18T17:58:20Z</time>
      </trkpt>
      <trkpt lat="47.1327" lon="5.45177">
        <ele>212.11</ele>
        <time>2021-07-18T17:58:35Z</time>
      </trkpt>
      <trkpt lat="47.13431" lon="5.45823">
        <ele>217.88</ele>
        <time>2021-07-18T17:58:53Z</time>
      </trkpt>
      <trkpt lat="47.13535" lon="5.46317">
        <ele>222.2</ele>
        <time>2021-07-18T17:59:06Z</time>
      </trkpt>
      <trkpt lat="47.13589" lon="5.46767">
        <ele>223.16</ele>
        <time>2021-07-18T17:59:17Z</time>
      </trkpt>
      <trkpt lat="47.13608" lon="5.47284">
        <ele>219.8</ele>
        <time>2021-07-18T17:59:29Z</time>
      </trkpt>
      <trkpt lat="47.13583" lon="5.47782">
        <ele>220.76</ele>
        <time>2021-07-18T17:59:41Z</time>
      </trkpt>
      <trkpt lat="47.13544" lon="5.48268">
        <ele>232.78</ele>
        <time>2021-07-18T17:59:54Z</time>
      </trkpt>
      <trkpt lat="47.13553" lon="5.48735">
        <ele>247.2</ele>
        <time>2021-07-18T18:00:07Z</time>
      </trkpt>
      <trkpt lat="47.13612" lon="5.49165">
        <ele>258.73</ele>
        <time>2021-07-18T18:00:19Z</time>
      </trkpt>
      <trkpt lat="47.13733" lon="5.49717">
        <ele>259.69</ele>
        <time>2021-07-18T18:00:34Z</time>
      </trkpt>
      <trkpt lat="47.13817" lon="5.50214">
        <ele>259.21</ele>
        <time>2021-07-18T18:00:47Z</time>
      </trkpt>
      <trkpt lat="47.13849" lon="5.5068">
        <ele>259.21</ele>
        <time>2021-07-18T18:00:59Z</time>
      </trkpt>
      <trkpt lat="47.1383" lon="5.5117">
        <ele>253.93</ele>
        <time>2021-07-18T18:01:11Z</time>
      </trkpt>
      <trkpt lat="47.13755" lon="5.5177">
        <ele>251.04</ele>
        <time>2021-07-18T18:01:26Z</time>
      </trkpt>
      <trkpt lat="47.13661" lon="5.52459">
        <ele>245.75</ele>
        <time>2021-07-18T18:01:43Z</time>
      </trkpt>
      <trkpt lat="47.13628" lon="5.53024">
        <ele>239.99</ele>
        <time>2021-07-18T18:01:57Z</time>
      </trkpt>
      <trkpt lat="47.13644" lon="5.53545">
        <ele>234.7</ele>
        <time>2021-07-18T18:02:10Z</time>
      </trkpt>
      <trkpt lat="47.13705" lon="5.54029">
        <ele>228.93</ele>
        <time>2021-07-18T18:02:22Z</time>
      </trkpt>
      <trkpt lat="47.13813" lon="5.5454">
        <ele>222.68</ele>
        <time>2021-07-18T18:02:35Z</time>
      </trkpt>
      <trkpt lat="47.13976" lon="5.55107">
        <ele>217.4</ele>
        <time>2021-07-18T18:02:50Z</time>
      </trkpt>
      <trkpt lat="47.14217" lon="5.55833">
        <ele>216.91</ele>
        <time>2021-07-18T18:03:10Z</time>
      </trkpt>
      <trkpt lat="47.14434" lon="5.56502">
        <ele>223.64</ele>
        <time>2021-07-18T18:03:29Z</time>
      </trkpt>
      <trkpt lat="47.14607" lon="5.57107">
        <ele>231.81</ele>
        <time>2021-07-18T18:03:47Z</time>
      </trkpt>
      <trkpt lat="47.14757" lon="5.57799">
        <ele>241.43</ele>
        <time>2021-07-18T18:04:07Z</time>
      </trkpt>
      <trkpt lat="47.14835" lon="5.58388">
        <ele>245.75</ele>
        <time>2021-07-18T18:04:23Z</time>
      </trkpt>
      <trkpt lat="47.149" lon="5.59089">
        <ele>244.79</ele>
        <time>2021-07-18T18:04:41Z</time>
      </trkpt>
      <trkpt lat="47.14978" lon="5.59532">
        <ele>235.66</ele>
        <time>2021-07-18T18:04:52Z</time>
      </trkpt>
      <trkpt lat="47.15096" lon="5.5992">
        <ele>228.45</ele>
        <time>2021-07-18T18:05:02Z</time>
      </trkpt>
      <trkpt lat="47.15244" lon="5.60253">
        <ele>224.12</ele>
        <time>2021-07-18T18:05:11Z</time>
      </trkpt>
      <trkpt lat="47.15439" lon="5.60578">
        <ele>220.28</ele>
        <time>2021-07-18T18:05:21Z</time>
      </trkpt>
      <trkpt lat="47.15697" lon="5.60885">
        <ele>224.12</ele>
        <time>2021-07-18T18:05:33Z</time>
      </trkpt>
      <trkpt lat="47.15981" lon="5.61205">
        <ele>230.37</ele>
        <time>2021-07-18T18:05:47Z</time>
      </trkpt>
      <trkpt lat="47.16184" lon="5.61529">
        <ele>237.1</ele>
        <time>2021-07-18T18:05:59Z</time>
      </trkpt>
      <trkpt lat="47.1634" lon="5.61876">
        <ele>237.58</ele>
        <time>2021-07-18T18:06:10Z</time>
      </trkpt>
      <trkpt lat="47.16454" lon="5.62246">
        <ele>232.3</ele>
        <time>2021-07-18T18:06:20Z</time>
      </trkpt>
      <trkpt lat="47.16529" lon="5.62652">
        <ele>230.37</ele>
        <time>2021-07-18T18:06:30Z</time>
      </trkpt>
      <trkpt lat="47.16571" lon="5.63166">
        <ele>226.05</ele>
        <time>2021-07-18T18:06:42Z</time>
      </trkpt>
      <trkpt lat="47.16589" lon="5.63782">
        <ele>231.81</ele>
        <time>2021-07-18T18:06:57Z</time>
      </trkpt>
      <trkpt lat="47.16624" lon="5.64367">
        <ele>240.95</ele>
        <time>2021-07-18T18:07:12Z</time>
      </trkpt>
      <trkpt lat="47.16696" lon="5.64771">
        <ele>247.68</ele>
        <time>2021-07-18T18:07:23Z</time>
      </trkpt>
      <trkpt lat="47.16809" lon="5.65125">
        <ele>246.72</ele>
        <time>2021-07-18T18:07:33Z</time>
      </trkpt>
      <trkpt lat="47.17021" lon="5.65581">
        <ele>237.58</ele>
        <time>2021-07-18T18:07:46Z</time>
      </trkpt>
      <trkpt lat="47.17352" lon="5.66265">
        <ele>228.45</ele>
        <time>2021-07-18T18:08:05Z</time>
      </trkpt>
      <trkpt lat="47.17534" lon="5.66702">
        <ele>229.41</ele>
        <time>2021-07-18T18:08:17Z</time>
      </trkpt>
      <trkpt lat="47.17607" lon="5.67026">
        <ele>231.33</ele>
        <time>2021-07-18T18:08:25Z</time>
      </trkpt>
      <trkpt lat="47.17695" lon="5.67519">
        <ele>235.18</ele>
        <time>2021-07-18T18:08:37Z</time>
      </trkpt>
      <trkpt lat="47.17793" lon="5.67818">
        <ele>237.1</ele>
        <time>2021-07-18T18:08:45Z</time>
      </trkpt>
      <trkpt lat="47.17945" lon="5.68112">
        <ele>238.54</ele>
        <time>2021-07-18T18:08:54Z</time>
      </trkpt>
      <trkpt lat="47.18203" lon="5.68591">
        <ele>239.51</ele>
        <time>2021-07-18T18:09:08Z</time>
      </trkpt>
      <trkpt lat="47.18289" lon="5.68889">
        <ele>239.02</ele>
        <time>2021-07-18T18:09:17Z</time>
      </trkpt>
      <trkpt lat="47.18353" lon="5.69281">
        <ele>242.87</ele>
        <time>2021-07-18T18:09:26Z</time>
      </trkpt>
      <trkpt lat="47.18421" lon="5.69673">
        <ele>246.72</ele>
        <time>2021-07-18T18:09:37Z</time>
      </trkpt>
      <trkpt lat="47.18559" lon="5.70114">
        <ele>248.16</ele>
        <time>2021-07-18T18:09:49Z</time>
      </trkpt>
      <trkpt lat="47.18617" lon="5.70396">
        <ele>246.72</ele>
        <time>2021-07-18T18:09:56Z</time>
      </trkpt>
      <trkpt lat="47.18633" lon="5.70732">
        <ele>245.75</ele>
        <time>2021-07-18T18:10:04Z</time>
      </trkpt>
      <trkpt lat="47.18593" lon="5.71253">
        <ele>243.83</ele>
        <time>2021-07-18T18:10:16Z</time>
      </trkpt>
      <trkpt lat="47.18608" lon="5.71595">
        <ele>244.31</ele>
        <time>2021-07-18T18:10:24Z</time>
      </trkpt>
      <trkpt lat="47.18674" lon="5.71953">
        <ele>247.68</ele>
        <time>2021-07-18T18:10:33Z</time>
      </trkpt>
      <trkpt lat="47.18734" lon="5.72329">
        <ele>253.93</ele>
        <time>2021-07-18T18:10:43Z</time>
      </trkpt>
      <trkpt lat="47.18737" lon="5.72696">
        <ele>259.21</ele>
        <time>2021-07-18T18:10:52Z</time>
      </trkpt>
      <trkpt lat="47.1869" lon="5.73094">
        <ele>264.98</ele>
        <time>2021-07-18T18:11:04Z</time>
      </trkpt>
      <trkpt lat="47.18629" lon="5.73595">
        <ele>261.14</ele>
        <time>2021-07-18T18:11:17Z</time>
      </trkpt>
      <trkpt lat="47.18631" lon="5.73928">
        <ele>255.85</ele>
        <time>2021-07-18T18:11:25Z</time>
      </trkpt>
      <trkpt lat="47.18686" lon="5.74263">
        <ele>252.96</ele>
        <time>2021-07-18T18:11:33Z</time>
      </trkpt>
      <trkpt lat="47.18784" lon="5.74576">
        <ele>255.37</ele>
        <time>2021-07-18T18:11:41Z</time>
      </trkpt>
      <trkpt lat="47.1902" lon="5.75144">
        <ele>263.54</ele>
        <time>2021-07-18T18:11:57Z</time>
      </trkpt>
      <trkpt lat="47.19189" lon="5.75625">
        <ele>265.46</ele>
        <time>2021-07-18T18:12:10Z</time>
      </trkpt>
      <trkpt lat="47.19302" lon="5.76142">
        <ele>263.54</ele>
        <time>2021-07-18T18:12:23Z</time>
      </trkpt>
      <trkpt lat="47.19356" lon="5.76621">
        <ele>262.58</ele>
        <time>2021-07-18T18:12:35Z</time>
      </trkpt>
      <trkpt lat="47.19365" lon="5.77138">
        <ele>265.46</ele>
        <time>2021-07-18T18:12:48Z</time>
      </trkpt>
      <trkpt lat="47.19335" lon="5.77746">
        <ele>265.94</ele>
        <time>2021-07-18T18:13:03Z</time>
      </trkpt>
      <trkpt lat="47.19267" lon="5.78474">
        <ele>271.23</ele>
        <time>2021-07-18T18:13:21Z</time>
      </trkpt>
      <trkpt lat="47.19242" lon="5.78994">
        <ele>277</ele>
        <time>2021-07-18T18:13:34Z</time>
      </trkpt>
      <trkpt lat="47.19269" lon="5.79352">
        <ele>279.4</ele>
        <time>2021-07-18T18:13:43Z</time>
      </trkpt>
      <trkpt lat="47.1935" lon="5.79691">
        <ele>282.28</ele>
        <time>2021-07-18T18:13:52Z</time>
      </trkpt>
      <trkpt lat="47.19478" lon="5.79996">
        <ele>284.69</ele>
        <time>2021-07-18T18:14:01Z</time>
      </trkpt>
      <trkpt lat="47.19729" lon="5.80469">
        <ele>286.13</ele>
        <time>2021-07-18T18:14:16Z</time>
      </trkpt>
      <trkpt lat="47.19825" lon="5.80759">
        <ele>284.69</ele>
        <time>2021-07-18T18:14:24Z</time>
      </trkpt>
      <trkpt lat="47.19868" lon="5.81048">
        <ele>281.8</ele>
        <time>2021-07-18T18:14:31Z</time>
      </trkpt>
      <trkpt lat="47.1987" lon="5.81437">
        <ele>277</ele>
        <time>2021-07-18T18:14:40Z</time>
      </trkpt>
      <trkpt lat="47.19879" lon="5.81855">
        <ele>272.67</ele>
        <time>2021-07-18T18:14:50Z</time>
      </trkpt>
      <trkpt lat="47.19936" lon="5.82156">
        <ele>271.71</ele>
        <time>2021-07-18T18:14:58Z</time>
      </trkpt>
      <trkpt lat="47.20036" lon="5.82414">
        <ele>268.83</ele>
        <time>2021-07-18T18:15:06Z</time>
      </trkpt>
      <trkpt lat="47.20205" lon="5.82697">
        <ele>267.38</ele>
        <time>2021-07-18T18:15:16Z</time>
      </trkpt>
      <trkpt lat="47.20469" lon="5.83011">
        <ele>264.5</ele>
        <time>2021-07-18T18:15:29Z</time>
      </trkpt>
      <trkpt lat="47.20723" lon="5.83286">
        <ele>265.94</ele>
        <time>2021-07-18T18:15:41Z</time>
      </trkpt>
      <trkpt lat="47.21022" lon="5.83663">
        <ele>271.71</ele>
        <time>2021-07-18T18:15:55Z</time>
      </trkpt>
      <trkpt lat="47.21173" lon="5.83929">
        <ele>271.71</ele>
        <time>2021-07-18T18:16:05Z</time>
      </trkpt>
      <trkpt lat="47.21286" lon="5.84229">
        <ele>271.23</ele>
        <time>2021-07-18T18:16:14Z</time>
      </trkpt>
      <trkpt lat="47.21348" lon="5.84563">
        <ele>270.75</ele>
        <time>2021-07-18T18:16:23Z</time>
      </trkpt>
      <trkpt lat="47.21374" lon="5.84845">
        <ele>271.23</ele>
        <time>2021-07-18T18:16:31Z</time>
      </trkpt>
      <trkpt lat="47.21383" lon="5.85199">
        <ele>274.11</ele>
        <time>2021-07-18T18:16:42Z</time>
      </trkpt>
      <trkpt lat="47.21386" lon="5.85244">
        <ele>274.59</ele>
        <time>2021-07-18T18:16:46Z</time>
      </trkpt>
      <trkpt lat="47.2139" lon="5.85278">
        <ele>275.07</ele>
        <time>2021-07-18T18:16:54Z</time>
      </trkpt>
      <trkpt lat="47.21398" lon="5.85361">
        <ele>274.59</ele>
        <time>2021-07-18T18:17:03Z</time>
      </trkpt>
      <trkpt lat="47.21404" lon="5.85415">
        <ele>274.59</ele>
        <time>2021-07-18T18:17:08Z</time>
      </trkpt>
      <trkpt lat="47.21405" lon="5.85421">
        <ele>275.07</ele>
        <time>2021-07-18T18:17:10Z</time>
      </trkpt>
      <trkpt lat="47.21401" lon="5.85429">
        <ele>275.07</ele>
        <time>2021-07-18T18:17:11Z</time>
      </trkpt>
      <trkpt lat="47.21391" lon="5.85451">
        <ele>276.04</ele>
        <time>2021-07-18T18:17:19Z</time>
      </trkpt>
      <trkpt lat="47.21391" lon="5.85451">
        <ele>277.96</ele>
        <time>2021-07-18T18:21:33Z</time>
      </trkpt>
      <trkpt lat="47.21391" lon="5.85451">
        <ele>277.48</ele>
        <time>2021-07-18T18:21:42Z</time>
      </trkpt>
      <trkpt lat="47.21391" lon="5.85451">
        <ele>277.48</ele>
        <time>2021-07-18T18:21:43Z</time>
      </trkpt>
      <trkpt lat="47.2139" lon="5.85452">
        <ele>277</ele>
        <time>2021-07-18T18:21:44Z</time>
      </trkpt>
      <trkpt lat="47.21389" lon="5.85454">
        <ele>277</ele>
        <time>2021-07-18T18:21:45Z</time>
      </trkpt>
      <trkpt lat="47.21389" lon="5.85456">
        <ele>277</ele>
        <time>2021-07-18T18:21:46Z</time>
      </trkpt>
      <trkpt lat="47.21388" lon="5.85458">
        <ele>277</ele>
        <time>2021-07-18T18:21:47Z</time>
      </trkpt>
      <trkpt lat="47.21386" lon="5.85461">
        <ele>276.52</ele>
        <time>2021-07-18T18:21:48Z</time>
      </trkpt>
      <trkpt lat="47.21385" lon="5.85464">
        <ele>276.52</ele>
        <time>2021-07-18T18:21:49Z</time>
      </trkpt>
      <trkpt lat="47.21383" lon="5.85467">
        <ele>276.04</ele>
        <time>2021-07-18T18:21:50Z</time>
      </trkpt>
      <trkpt lat="47.21352" lon="5.85534">
        <ele>275.07</ele>
        <time>2021-07-18T18:22:02Z</time>
      </trkpt>
      <trkpt lat="47.21337" lon="5.85567">
        <ele>273.63</ele>
        <time>2021-07-18T18:22:08Z</time>
      </trkpt>
      <trkpt lat="47.21335" lon="5.85573">
        <ele>273.63</ele>
        <time>2021-07-18T18:22:09Z</time>
      </trkpt>
      <trkpt lat="47.21334" lon="5.8558">
        <ele>273.63</ele>
        <time>2021-07-18T18:22:10Z</time>
      </trkpt>
      <trkpt lat="47.21332" lon="5.85588">
        <ele>273.15</ele>
        <time>2021-07-18T18:22:11Z</time>
      </trkpt>
      <trkpt lat="47.21333" lon="5.85595">
        <ele>273.15</ele>
        <time>2021-07-18T18:22:12Z</time>
      </trkpt>
      <trkpt lat="47.21334" lon="5.85601">
        <ele>272.67</ele>
        <time>2021-07-18T18:22:13Z</time>
      </trkpt>
      <trkpt lat="47.21339" lon="5.85607">
        <ele>272.19</ele>
        <time>2021-07-18T18:22:15Z</time>
      </trkpt>
      <trkpt lat="47.21349" lon="5.85616">
        <ele>272.19</ele>
        <time>2021-07-18T18:22:16Z</time>
      </trkpt>
      <trkpt lat="47.21353" lon="5.85615">
        <ele>272.19</ele>
        <time>2021-07-18T18:22:17Z</time>
      </trkpt>
      <trkpt lat="47.21359" lon="5.85614">
        <ele>272.19</ele>
        <time>2021-07-18T18:22:18Z</time>
      </trkpt>
      <trkpt lat="47.21365" lon="5.85612">
        <ele>271.71</ele>
        <time>2021-07-18T18:22:19Z</time>
      </trkpt>
      <trkpt lat="47.2137" lon="5.85605">
        <ele>272.19</ele>
        <time>2021-07-18T18:22:20Z</time>
      </trkpt>
      <trkpt lat="47.21373" lon="5.85597">
        <ele>272.19</ele>
        <time>2021-07-18T18:22:21Z</time>
      </trkpt>
      <trkpt lat="47.21377" lon="5.8559">
        <ele>272.19</ele>
        <time>2021-07-18T18:22:22Z</time>
      </trkpt>
      <trkpt lat="47.21407" lon="5.85528">
        <ele>271.71</ele>
        <time>2021-07-18T18:22:33Z</time>
      </trkpt>
      <trkpt lat="47.2141" lon="5.85521">
        <ele>272.67</ele>
        <time>2021-07-18T18:22:34Z</time>
      </trkpt>
      <trkpt lat="47.21415" lon="5.85514">
        <ele>273.63</ele>
        <time>2021-07-18T18:22:35Z</time>
      </trkpt>
      <trkpt lat="47.21421" lon="5.8551">
        <ele>273.63</ele>
        <time>2021-07-18T18:22:36Z</time>
      </trkpt>
      <trkpt lat="47.21428" lon="5.85509">
        <ele>273.63</ele>
        <time>2021-07-18T18:22:37Z</time>
      </trkpt>
      <trkpt lat="47.21435" lon="5.85509">
        <ele>273.63</ele>
        <time>2021-07-18T18:22:38Z</time>
      </trkpt>
      <trkpt lat="47.21441" lon="5.85514">
        <ele>274.11</ele>
        <time>2021-07-18T18:22:39Z</time>
      </trkpt>
      <trkpt lat="47.21446" lon="5.8552">
        <ele>274.59</ele>
        <time>2021-07-18T18:22:40Z</time>
      </trkpt>
      <trkpt lat="47.21451" lon="5.85529">
        <ele>274.59</ele>
        <time>2021-07-18T18:22:41Z</time>
      </trkpt>
      <trkpt lat="47.21455" lon="5.8554">
        <ele>275.07</ele>
        <time>2021-07-18T18:22:42Z</time>
      </trkpt>
      <trkpt lat="47.21501" lon="5.85677">
        <ele>274.59</ele>
        <time>2021-07-18T18:22:51Z</time>
      </trkpt>
      <trkpt lat="47.21589" lon="5.85855">
        <ele>271.23</ele>
        <time>2021-07-18T18:22:59Z</time>
      </trkpt>
      <trkpt lat="47.21699" lon="5.86091">
        <ele>265.46</ele>
        <time>2021-07-18T18:23:09Z</time>
      </trkpt>
      <trkpt lat="47.21835" lon="5.86424">
        <ele>255.85</ele>
        <time>2021-07-18T18:23:20Z</time>
      </trkpt>
      <trkpt lat="47.21911" lon="5.8675">
        <ele>247.68</ele>
        <time>2021-07-18T18:23:29Z</time>
      </trkpt>
      <trkpt lat="47.22009" lon="5.87289">
        <ele>237.1</ele>
        <time>2021-07-18T18:23:43Z</time>
      </trkpt>
      <trkpt lat="47.22127" lon="5.87684">
        <ele>240.95</ele>
        <time>2021-07-18T18:23:54Z</time>
      </trkpt>
      <trkpt lat="47.22278" lon="5.8801">
        <ele>250.08</ele>
        <time>2021-07-18T18:24:04Z</time>
      </trkpt>
      <trkpt lat="47.22416" lon="5.88193">
        <ele>259.21</ele>
        <time>2021-07-18T18:24:13Z</time>
      </trkpt>
      <trkpt lat="47.22619" lon="5.88366">
        <ele>270.27</ele>
        <time>2021-07-18T18:24:23Z</time>
      </trkpt>
      <trkpt lat="47.22831" lon="5.88556">
        <ele>274.59</ele>
        <time>2021-07-18T18:24:33Z</time>
      </trkpt>
      <trkpt lat="47.22985" lon="5.88769">
        <ele>270.27</ele>
        <time>2021-07-18T18:24:41Z</time>
      </trkpt>
      <trkpt lat="47.232" lon="5.89128">
        <ele>263.54</ele>
        <time>2021-07-18T18:24:53Z</time>
      </trkpt>
      <trkpt lat="47.23409" lon="5.89325">
        <ele>261.14</ele>
        <time>2021-07-18T18:25:01Z</time>
      </trkpt>
      <trkpt lat="47.23585" lon="5.89414">
        <ele>258.73</ele>
        <time>2021-07-18T18:25:09Z</time>
      </trkpt>
      <trkpt lat="47.23796" lon="5.8945">
        <ele>261.62</ele>
        <time>2021-07-18T18:25:17Z</time>
      </trkpt>
      <trkpt lat="47.24104" lon="5.8944">
        <ele>267.38</ele>
        <time>2021-07-18T18:25:29Z</time>
      </trkpt>
      <trkpt lat="47.24303" lon="5.89493">
        <ele>280.84</ele>
        <time>2021-07-18T18:25:37Z</time>
      </trkpt>
      <trkpt lat="47.24493" lon="5.89614">
        <ele>285.65</ele>
        <time>2021-07-18T18:25:45Z</time>
      </trkpt>
      <trkpt lat="47.24664" lon="5.89808">
        <ele>282.28</ele>
        <time>2021-07-18T18:25:53Z</time>
      </trkpt>
      <trkpt lat="47.24806" lon="5.90065">
        <ele>278.92</ele>
        <time>2021-07-18T18:26:01Z</time>
      </trkpt>
      <trkpt lat="47.24967" lon="5.9042">
        <ele>267.38</ele>
        <time>2021-07-18T18:26:11Z</time>
      </trkpt>
      <trkpt lat="47.25128" lon="5.90644">
        <ele>257.77</ele>
        <time>2021-07-18T18:26:19Z</time>
      </trkpt>
      <trkpt lat="47.25384" lon="5.90882">
        <ele>245.75</ele>
        <time>2021-07-18T18:26:30Z</time>
      </trkpt>
      <trkpt lat="47.25592" lon="5.91131">
        <ele>239.99</ele>
        <time>2021-07-18T18:26:40Z</time>
      </trkpt>
      <trkpt lat="47.25782" lon="5.91453">
        <ele>237.1</ele>
        <time>2021-07-18T18:26:51Z</time>
      </trkpt>
      <trkpt lat="47.26046" lon="5.91923">
        <ele>235.66</ele>
        <time>2021-07-18T18:27:07Z</time>
      </trkpt>
      <trkpt lat="47.26211" lon="5.92104">
        <ele>235.18</ele>
        <time>2021-07-18T18:27:15Z</time>
      </trkpt>
      <trkpt lat="47.26475" lon="5.92294">
        <ele>233.26</ele>
        <time>2021-07-18T18:27:26Z</time>
      </trkpt>
      <trkpt lat="47.26763" lon="5.92527">
        <ele>237.1</ele>
        <time>2021-07-18T18:27:39Z</time>
      </trkpt>
      <trkpt lat="47.26993" lon="5.92798">
        <ele>244.79</ele>
        <time>2021-07-18T18:27:51Z</time>
      </trkpt>
      <trkpt lat="47.27158" lon="5.9308">
        <ele>249.6</ele>
        <time>2021-07-18T18:28:01Z</time>
      </trkpt>
      <trkpt lat="47.27259" lon="5.93357">
        <ele>245.75</ele>
        <time>2021-07-18T18:28:09Z</time>
      </trkpt>
      <trkpt lat="47.27399" lon="5.93927">
        <ele>248.64</ele>
        <time>2021-07-18T18:28:23Z</time>
      </trkpt>
      <trkpt lat="47.27523" lon="5.94285">
        <ele>257.77</ele>
        <time>2021-07-18T18:28:33Z</time>
      </trkpt>
      <trkpt lat="47.27697" lon="5.94725">
        <ele>265.94</ele>
        <time>2021-07-18T18:28:47Z</time>
      </trkpt>
      <trkpt lat="47.27762" lon="5.95052">
        <ele>269.79</ele>
        <time>2021-07-18T18:28:56Z</time>
      </trkpt>
      <trkpt lat="47.27769" lon="5.95383">
        <ele>279.4</ele>
        <time>2021-07-18T18:29:05Z</time>
      </trkpt>
      <trkpt lat="47.27724" lon="5.95704">
        <ele>289.97</ele>
        <time>2021-07-18T18:29:14Z</time>
      </trkpt>
      <trkpt lat="47.27589" lon="5.96283">
        <ele>305.36</ele>
        <time>2021-07-18T18:29:31Z</time>
      </trkpt>
      <trkpt lat="47.27505" lon="5.96708">
        <ele>312.57</ele>
        <time>2021-07-18T18:29:43Z</time>
      </trkpt>
      <trkpt lat="47.27493" lon="5.97016">
        <ele>312.57</ele>
        <time>2021-07-18T18:29:51Z</time>
      </trkpt>
      <trkpt lat="47.27532" lon="5.97336">
        <ele>310.64</ele>
        <time>2021-07-18T18:29:59Z</time>
      </trkpt>
      <trkpt lat="47.27623" lon="5.97631">
        <ele>312.09</ele>
        <time>2021-07-18T18:30:07Z</time>
      </trkpt>
      <trkpt lat="47.27773" lon="5.98086">
        <ele>319.3</ele>
        <time>2021-07-18T18:30:19Z</time>
      </trkpt>
      <trkpt lat="47.27828" lon="5.98411">
        <ele>323.14</ele>
        <time>2021-07-18T18:30:29Z</time>
      </trkpt>
      <trkpt lat="47.27922" lon="5.99">
        <ele>330.83</ele>
        <time>2021-07-18T18:30:46Z</time>
      </trkpt>
      <trkpt lat="47.28021" lon="5.9945">
        <ele>338.04</ele>
        <time>2021-07-18T18:30:58Z</time>
      </trkpt>
      <trkpt lat="47.28133" lon="5.99744">
        <ele>343.81</ele>
        <time>2021-07-18T18:31:08Z</time>
      </trkpt>
      <trkpt lat="47.28287" lon="6.00012">
        <ele>349.1</ele>
        <time>2021-07-18T18:31:16Z</time>
      </trkpt>
      <trkpt lat="47.28482" lon="6.00302">
        <ele>353.42</ele>
        <time>2021-07-18T18:31:27Z</time>
      </trkpt>
      <trkpt lat="47.28597" lon="6.00576">
        <ele>356.31</ele>
        <time>2021-07-18T18:31:35Z</time>
      </trkpt>
      <trkpt lat="47.28721" lon="6.00976">
        <ele>360.63</ele>
        <time>2021-07-18T18:31:46Z</time>
      </trkpt>
      <trkpt lat="47.28857" lon="6.01243">
        <ele>362.55</ele>
        <time>2021-07-18T18:31:54Z</time>
      </trkpt>
      <trkpt lat="47.29054" lon="6.01485">
        <ele>358.71</ele>
        <time>2021-07-18T18:32:03Z</time>
      </trkpt>
      <trkpt lat="47.2941" lon="6.01875">
        <ele>358.23</ele>
        <time>2021-07-18T18:32:18Z</time>
      </trkpt>
      <trkpt lat="47.29607" lon="6.02129">
        <ele>364.96</ele>
        <time>2021-07-18T18:32:29Z</time>
      </trkpt>
      <trkpt lat="47.29724" lon="6.02374">
        <ele>372.65</ele>
        <time>2021-07-18T18:32:37Z</time>
      </trkpt>
      <trkpt lat="47.29821" lon="6.02716">
        <ele>382.74</ele>
        <time>2021-07-18T18:32:47Z</time>
      </trkpt>
      <trkpt lat="47.29927" lon="6.03007">
        <ele>392.84</ele>
        <time>2021-07-18T18:32:56Z</time>
      </trkpt>
      <trkpt lat="47.30079" lon="6.0326">
        <ele>393.32</ele>
        <time>2021-07-18T18:33:05Z</time>
      </trkpt>
      <trkpt lat="47.30294" lon="6.0357">
        <ele>393.32</ele>
        <time>2021-07-18T18:33:16Z</time>
      </trkpt>
      <trkpt lat="47.30412" lon="6.03858">
        <ele>395.72</ele>
        <time>2021-07-18T18:33:23Z</time>
      </trkpt>
      <trkpt lat="47.30481" lon="6.04138">
        <ele>396.2</ele>
        <time>2021-07-18T18:33:31Z</time>
      </trkpt>
      <trkpt lat="47.30519" lon="6.04482">
        <ele>388.51</ele>
        <time>2021-07-18T18:33:39Z</time>
      </trkpt>
      <trkpt lat="47.30533" lon="6.04933">
        <ele>383.7</ele>
        <time>2021-07-18T18:33:50Z</time>
      </trkpt>
      <trkpt lat="47.3056" lon="6.05408">
        <ele>383.22</ele>
        <time>2021-07-18T18:34:02Z</time>
      </trkpt>
      <trkpt lat="47.30632" lon="6.05703">
        <ele>380.82</ele>
        <time>2021-07-18T18:34:10Z</time>
      </trkpt>
      <trkpt lat="47.30758" lon="6.06014">
        <ele>381.3</ele>
        <time>2021-07-18T18:34:19Z</time>
      </trkpt>
      <trkpt lat="47.31088" lon="6.06714">
        <ele>376.97</ele>
        <time>2021-07-18T18:34:38Z</time>
      </trkpt>
      <trkpt lat="47.31343" lon="6.07338">
        <ele>375.53</ele>
        <time>2021-07-18T18:34:56Z</time>
      </trkpt>
      <trkpt lat="47.31538" lon="6.07931">
        <ele>377.45</ele>
        <time>2021-07-18T18:35:12Z</time>
      </trkpt>
      <trkpt lat="47.31713" lon="6.08587">
        <ele>378.42</ele>
        <time>2021-07-18T18:35:29Z</time>
      </trkpt>
      <trkpt lat="47.31866" lon="6.09317">
        <ele>382.26</ele>
        <time>2021-07-18T18:35:48Z</time>
      </trkpt>
      <trkpt lat="47.32018" lon="6.10009">
        <ele>384.18</ele>
        <time>2021-07-18T18:36:06Z</time>
      </trkpt>
      <trkpt lat="47.32162" lon="6.10455">
        <ele>375.53</ele>
        <time>2021-07-18T18:36:18Z</time>
      </trkpt>
      <trkpt lat="47.32336" lon="6.10938">
        <ele>362.07</ele>
        <time>2021-07-18T18:36:31Z</time>
      </trkpt>
      <trkpt lat="47.32456" lon="6.11346">
        <ele>351.02</ele>
        <time>2021-07-18T18:36:42Z</time>
      </trkpt>
      <trkpt lat="47.32579" lon="6.1193">
        <ele>340.44</ele>
        <time>2021-07-18T18:36:57Z</time>
      </trkpt>
      <trkpt lat="47.3271" lon="6.1236">
        <ele>336.6</ele>
        <time>2021-07-18T18:37:08Z</time>
      </trkpt>
      <trkpt lat="47.329" lon="6.12892">
        <ele>328.43</ele>
        <time>2021-07-18T18:37:24Z</time>
      </trkpt>
      <trkpt lat="47.33003" lon="6.13313">
        <ele>322.18</ele>
        <time>2021-07-18T18:37:35Z</time>
      </trkpt>
      <trkpt lat="47.33116" lon="6.13945">
        <ele>315.93</ele>
        <time>2021-07-18T18:37:51Z</time>
      </trkpt>
      <trkpt lat="47.33231" lon="6.14358">
        <ele>311.6</ele>
        <time>2021-07-18T18:38:02Z</time>
      </trkpt>
      <trkpt lat="47.33455" lon="6.14965">
        <ele>302.47</ele>
        <time>2021-07-18T18:38:19Z</time>
      </trkpt>
      <trkpt lat="47.33604" lon="6.15444">
        <ele>298.15</ele>
        <time>2021-07-18T18:38:32Z</time>
      </trkpt>
      <trkpt lat="47.337" lon="6.15904">
        <ele>297.18</ele>
        <time>2021-07-18T18:38:44Z</time>
      </trkpt>
      <trkpt lat="47.3376" lon="6.16397">
        <ele>293.82</ele>
        <time>2021-07-18T18:38:56Z</time>
      </trkpt>
      <trkpt lat="47.33779" lon="6.16895">
        <ele>288.53</ele>
        <time>2021-07-18T18:39:08Z</time>
      </trkpt>
      <trkpt lat="47.33751" lon="6.175">
        <ele>283.25</ele>
        <time>2021-07-18T18:39:22Z</time>
      </trkpt>
      <trkpt lat="47.33717" lon="6.18281">
        <ele>281.32</ele>
        <time>2021-07-18T18:39:40Z</time>
      </trkpt>
      <trkpt lat="47.33738" lon="6.18777">
        <ele>289.49</ele>
        <time>2021-07-18T18:39:52Z</time>
      </trkpt>
      <trkpt lat="47.33788" lon="6.19557">
        <ele>304.88</ele>
        <time>2021-07-18T18:40:12Z</time>
      </trkpt>
      <trkpt lat="47.33829" lon="6.20274">
        <ele>309.68</ele>
        <time>2021-07-18T18:40:30Z</time>
      </trkpt>
      <trkpt lat="47.33818" lon="6.20842">
        <ele>313.53</ele>
        <time>2021-07-18T18:40:44Z</time>
      </trkpt>
      <trkpt lat="47.33784" lon="6.2164">
        <ele>319.3</ele>
        <time>2021-07-18T18:41:04Z</time>
      </trkpt>
      <trkpt lat="47.33801" lon="6.22174">
        <ele>317.37</ele>
        <time>2021-07-18T18:41:17Z</time>
      </trkpt>
      <trkpt lat="47.3386" lon="6.22674">
        <ele>313.53</ele>
        <time>2021-07-18T18:41:29Z</time>
      </trkpt>
      <trkpt lat="47.33961" lon="6.23155">
        <ele>316.41</ele>
        <time>2021-07-18T18:41:41Z</time>
      </trkpt>
      <trkpt lat="47.34104" lon="6.23658">
        <ele>325.54</ele>
        <time>2021-07-18T18:41:55Z</time>
      </trkpt>
      <trkpt lat="47.34305" lon="6.24341">
        <ele>338.04</ele>
        <time>2021-07-18T18:42:15Z</time>
      </trkpt>
      <trkpt lat="47.34404" lon="6.24818">
        <ele>350.54</ele>
        <time>2021-07-18T18:42:29Z</time>
      </trkpt>
      <trkpt lat="47.34467" lon="6.25354">
        <ele>360.15</ele>
        <time>2021-07-18T18:42:44Z</time>
      </trkpt>
      <trkpt lat="47.34479" lon="6.25838">
        <ele>361.59</ele>
        <time>2021-07-18T18:42:57Z</time>
      </trkpt>
      <trkpt lat="47.34445" lon="6.26386">
        <ele>364</ele>
        <time>2021-07-18T18:43:11Z</time>
      </trkpt>
      <trkpt lat="47.34377" lon="6.26796">
        <ele>364.96</ele>
        <time>2021-07-18T18:43:23Z</time>
      </trkpt>
      <trkpt lat="47.34267" lon="6.27188">
        <ele>366.88</ele>
        <time>2021-07-18T18:43:34Z</time>
      </trkpt>
      <trkpt lat="47.34059" lon="6.27748">
        <ele>371.21</ele>
        <time>2021-07-18T18:43:50Z</time>
      </trkpt>
      <trkpt lat="47.33981" lon="6.28118">
        <ele>372.65</ele>
        <time>2021-07-18T18:43:59Z</time>
      </trkpt>
      <trkpt lat="47.33962" lon="6.28425">
        <ele>370.24</ele>
        <time>2021-07-18T18:44:08Z</time>
      </trkpt>
      <trkpt lat="47.33986" lon="6.28751">
        <ele>363.04</ele>
        <time>2021-07-18T18:44:16Z</time>
      </trkpt>
      <trkpt lat="47.34069" lon="6.29117">
        <ele>351.5</ele>
        <time>2021-07-18T18:44:25Z</time>
      </trkpt>
      <trkpt lat="47.34207" lon="6.29505">
        <ele>343.33</ele>
        <time>2021-07-18T18:44:35Z</time>
      </trkpt>
      <trkpt lat="47.34393" lon="6.29897">
        <ele>341.89</ele>
        <time>2021-07-18T18:44:46Z</time>
      </trkpt>
      <trkpt lat="47.34638" lon="6.30303">
        <ele>350.06</ele>
        <time>2021-07-18T18:44:59Z</time>
      </trkpt>
      <trkpt lat="47.3477" lon="6.30558">
        <ele>358.23</ele>
        <time>2021-07-18T18:45:07Z</time>
      </trkpt>
      <trkpt lat="47.3485" lon="6.30803">
        <ele>364.96</ele>
        <time>2021-07-18T18:45:14Z</time>
      </trkpt>
      <trkpt lat="47.34948" lon="6.31153">
        <ele>377.94</ele>
        <time>2021-07-18T18:45:24Z</time>
      </trkpt>
      <trkpt lat="47.35064" lon="6.31384">
        <ele>390.43</ele>
        <time>2021-07-18T18:45:32Z</time>
      </trkpt>
      <trkpt lat="47.35216" lon="6.31556">
        <ele>402.45</ele>
        <time>2021-07-18T18:45:40Z</time>
      </trkpt>
      <trkpt lat="47.35391" lon="6.31656">
        <ele>414.95</ele>
        <time>2021-07-18T18:45:48Z</time>
      </trkpt>
      <trkpt lat="47.35619" lon="6.31721">
        <ele>421.68</ele>
        <time>2021-07-18T18:45:58Z</time>
      </trkpt>
      <trkpt lat="47.35821" lon="6.31815">
        <ele>428.89</ele>
        <time>2021-07-18T18:46:07Z</time>
      </trkpt>
      <trkpt lat="47.36004" lon="6.31978">
        <ele>435.61</ele>
        <time>2021-07-18T18:46:16Z</time>
      </trkpt>
      <trkpt lat="47.36196" lon="6.32244">
        <ele>447.63</ele>
        <time>2021-07-18T18:46:27Z</time>
      </trkpt>
      <trkpt lat="47.36464" lon="6.32621">
        <ele>456.76</ele>
        <time>2021-07-18T18:46:42Z</time>
      </trkpt>
      <trkpt lat="47.36721" lon="6.32952">
        <ele>453.4</ele>
        <time>2021-07-18T18:46:55Z</time>
      </trkpt>
      <trkpt lat="47.36842" lon="6.33192">
        <ele>446.19</ele>
        <time>2021-07-18T18:47:02Z</time>
      </trkpt>
      <trkpt lat="47.36985" lon="6.33543">
        <ele>437.54</ele>
        <time>2021-07-18T18:47:12Z</time>
      </trkpt>
      <trkpt lat="47.37188" lon="6.33938">
        <ele>429.85</ele>
        <time>2021-07-18T18:47:23Z</time>
      </trkpt>
      <trkpt lat="47.3727" lon="6.34202">
        <ele>425.04</ele>
        <time>2021-07-18T18:47:31Z</time>
      </trkpt>
      <trkpt lat="47.37364" lon="6.34665">
        <ele>427.44</ele>
        <time>2021-07-18T18:47:43Z</time>
      </trkpt>
      <trkpt lat="47.37417" lon="6.35133">
        <ele>433.69</ele>
        <time>2021-07-18T18:47:55Z</time>
      </trkpt>
      <trkpt lat="47.37429" lon="6.35721">
        <ele>441.86</ele>
        <time>2021-07-18T18:48:09Z</time>
      </trkpt>
      <trkpt lat="47.37397" lon="6.36314">
        <ele>444.75</ele>
        <time>2021-07-18T18:48:25Z</time>
      </trkpt>
      <trkpt lat="47.37378" lon="6.36875">
        <ele>430.81</ele>
        <time>2021-07-18T18:48:39Z</time>
      </trkpt>
      <trkpt lat="47.37404" lon="6.37399">
        <ele>425.04</ele>
        <time>2021-07-18T18:48:51Z</time>
      </trkpt>
      <trkpt lat="47.3744" lon="6.3788">
        <ele>429.85</ele>
        <time>2021-07-18T18:49:04Z</time>
      </trkpt>
      <trkpt lat="47.37449" lon="6.38446">
        <ele>437.54</ele>
        <time>2021-07-18T18:49:18Z</time>
      </trkpt>
      <trkpt lat="47.37467" lon="6.38915">
        <ele>439.46</ele>
        <time>2021-07-18T18:49:30Z</time>
      </trkpt>
      <trkpt lat="47.37538" lon="6.39263">
        <ele>441.38</ele>
        <time>2021-07-18T18:49:39Z</time>
      </trkpt>
      <trkpt lat="47.37659" lon="6.39572">
        <ele>444.75</ele>
        <time>2021-07-18T18:49:48Z</time>
      </trkpt>
      <trkpt lat="47.37881" lon="6.39963">
        <ele>444.75</ele>
        <time>2021-07-18T18:50:00Z</time>
      </trkpt>
      <trkpt lat="47.38068" lon="6.40349">
        <ele>435.61</ele>
        <time>2021-07-18T18:50:12Z</time>
      </trkpt>
      <trkpt lat="47.38185" lon="6.40715">
        <ele>426</ele>
        <time>2021-07-18T18:50:23Z</time>
      </trkpt>
      <trkpt lat="47.38277" lon="6.41182">
        <ele>416.87</ele>
        <time>2021-07-18T18:50:34Z</time>
      </trkpt>
      <trkpt lat="47.38306" lon="6.41582">
        <ele>403.89</ele>
        <time>2021-07-18T18:50:45Z</time>
      </trkpt>
      <trkpt lat="47.38324" lon="6.42083">
        <ele>393.32</ele>
        <time>2021-07-18T18:50:57Z</time>
      </trkpt>
      <trkpt lat="47.38392" lon="6.42383">
        <ele>400.05</ele>
        <time>2021-07-18T18:51:04Z</time>
      </trkpt>
      <trkpt lat="47.38488" lon="6.42596">
        <ele>411.1</ele>
        <time>2021-07-18T18:51:12Z</time>
      </trkpt>
      <trkpt lat="47.38654" lon="6.42806">
        <ele>420.23</ele>
        <time>2021-07-18T18:51:20Z</time>
      </trkpt>
      <trkpt lat="47.38814" lon="6.42916">
        <ele>423.12</ele>
        <time>2021-07-18T18:51:28Z</time>
      </trkpt>
      <trkpt lat="47.39047" lon="6.42976">
        <ele>420.71</ele>
        <time>2021-07-18T18:51:36Z</time>
      </trkpt>
      <trkpt lat="47.39234" lon="6.43034">
        <ele>421.68</ele>
        <time>2021-07-18T18:51:44Z</time>
      </trkpt>
      <trkpt lat="47.39398" lon="6.4317">
        <ele>424.56</ele>
        <time>2021-07-18T18:51:51Z</time>
      </trkpt>
      <trkpt lat="47.39556" lon="6.43393">
        <ele>428.89</ele>
        <time>2021-07-18T18:51:59Z</time>
      </trkpt>
      <trkpt lat="47.39697" lon="6.43577">
        <ele>433.21</ele>
        <time>2021-07-18T18:52:06Z</time>
      </trkpt>
      <trkpt lat="47.39901" lon="6.43723">
        <ele>429.85</ele>
        <time>2021-07-18T18:52:14Z</time>
      </trkpt>
      <trkpt lat="47.4007" lon="6.4387">
        <ele>427.44</ele>
        <time>2021-07-18T18:52:21Z</time>
      </trkpt>
      <trkpt lat="47.40205" lon="6.44082">
        <ele>426.48</ele>
        <time>2021-07-18T18:52:28Z</time>
      </trkpt>
      <trkpt lat="47.40369" lon="6.44344">
        <ele>428.4</ele>
        <time>2021-07-18T18:52:37Z</time>
      </trkpt>
      <trkpt lat="47.40591" lon="6.44675">
        <ele>427.92</ele>
        <time>2021-07-18T18:52:49Z</time>
      </trkpt>
      <trkpt lat="47.40699" lon="6.44946">
        <ele>419.75</ele>
        <time>2021-07-18T18:52:57Z</time>
      </trkpt>
      <trkpt lat="47.40758" lon="6.45245">
        <ele>411.1</ele>
        <time>2021-07-18T18:53:05Z</time>
      </trkpt>
      <trkpt lat="47.4077" lon="6.45538">
        <ele>401.97</ele>
        <time>2021-07-18T18:53:13Z</time>
      </trkpt>
      <trkpt lat="47.40729" lon="6.45887">
        <ele>395.24</ele>
        <time>2021-07-18T18:53:23Z</time>
      </trkpt>
      <trkpt lat="47.40648" lon="6.4627">
        <ele>387.07</ele>
        <time>2021-07-18T18:53:34Z</time>
      </trkpt>
      <trkpt lat="47.40581" lon="6.46681">
        <ele>369.76</ele>
        <time>2021-07-18T18:53:45Z</time>
      </trkpt>
      <trkpt lat="47.40578" lon="6.4698">
        <ele>358.23</ele>
        <time>2021-07-18T18:53:53Z</time>
      </trkpt>
      <trkpt lat="47.40626" lon="6.47282">
        <ele>347.17</ele>
        <time>2021-07-18T18:54:01Z</time>
      </trkpt>
      <trkpt lat="47.40724" lon="6.47595">
        <ele>335.64</ele>
        <time>2021-07-18T18:54:10Z</time>
      </trkpt>
      <trkpt lat="47.40787" lon="6.47892">
        <ele>326.02</ele>
        <time>2021-07-18T18:54:18Z</time>
      </trkpt>
      <trkpt lat="47.40788" lon="6.48163">
        <ele>316.41</ele>
        <time>2021-07-18T18:54:25Z</time>
      </trkpt>
      <trkpt lat="47.40735" lon="6.48423">
        <ele>314.49</ele>
        <time>2021-07-18T18:54:32Z</time>
      </trkpt>
      <trkpt lat="47.40617" lon="6.4875">
        <ele>317.85</ele>
        <time>2021-07-18T18:54:42Z</time>
      </trkpt>
      <trkpt lat="47.40571" lon="6.48996">
        <ele>322.66</ele>
        <time>2021-07-18T18:54:49Z</time>
      </trkpt>
      <trkpt lat="47.40574" lon="6.49286">
        <ele>326.02</ele>
        <time>2021-07-18T18:54:56Z</time>
      </trkpt>
      <trkpt lat="47.4062" lon="6.49506">
        <ele>325.54</ele>
        <time>2021-07-18T18:55:03Z</time>
      </trkpt>
      <trkpt lat="47.40715" lon="6.49733">
        <ele>324.58</ele>
        <time>2021-07-18T18:55:10Z</time>
      </trkpt>
      <trkpt lat="47.41034" lon="6.50353">
        <ele>317.37</ele>
        <time>2021-07-18T18:55:30Z</time>
      </trkpt>
      <trkpt lat="47.41143" lon="6.50634">
        <ele>309.2</ele>
        <time>2021-07-18T18:55:38Z</time>
      </trkpt>
      <trkpt lat="47.41203" lon="6.50948">
        <ele>297.67</ele>
        <time>2021-07-18T18:55:46Z</time>
      </trkpt>
      <trkpt lat="47.41219" lon="6.51336">
        <ele>291.9</ele>
        <time>2021-07-18T18:55:56Z</time>
      </trkpt>
      <trkpt lat="47.41183" lon="6.51889">
        <ele>291.9</ele>
        <time>2021-07-18T18:56:09Z</time>
      </trkpt>
      <trkpt lat="47.41107" lon="6.52424">
        <ele>301.99</ele>
        <time>2021-07-18T18:56:24Z</time>
      </trkpt>
      <trkpt lat="47.41015" lon="6.53046">
        <ele>301.03</ele>
        <time>2021-07-18T18:56:40Z</time>
      </trkpt>
      <trkpt lat="47.40982" lon="6.53592">
        <ele>305.84</ele>
        <time>2021-07-18T18:56:53Z</time>
      </trkpt>
      <trkpt lat="47.41001" lon="6.54168">
        <ele>312.09</ele>
        <time>2021-07-18T18:57:06Z</time>
      </trkpt>
      <trkpt lat="47.4105" lon="6.54596">
        <ele>326.5</ele>
        <time>2021-07-18T18:57:18Z</time>
      </trkpt>
      <trkpt lat="47.41156" lon="6.55258">
        <ele>348.13</ele>
        <time>2021-07-18T18:57:36Z</time>
      </trkpt>
      <trkpt lat="47.41204" lon="6.55713">
        <ele>361.11</ele>
        <time>2021-07-18T18:57:49Z</time>
      </trkpt>
      <trkpt lat="47.41208" lon="6.56256">
        <ele>367.36</ele>
        <time>2021-07-18T18:58:04Z</time>
      </trkpt>
      <trkpt lat="47.41209" lon="6.56772">
        <ele>372.17</ele>
        <time>2021-07-18T18:58:17Z</time>
      </trkpt>
      <trkpt lat="47.4126" lon="6.57144">
        <ele>371.21</ele>
        <time>2021-07-18T18:58:26Z</time>
      </trkpt>
      <trkpt lat="47.41365" lon="6.5751">
        <ele>362.55</ele>
        <time>2021-07-18T18:58:35Z</time>
      </trkpt>
      <trkpt lat="47.41571" lon="6.58033">
        <ele>351.98</ele>
        <time>2021-07-18T18:58:48Z</time>
      </trkpt>
      <trkpt lat="47.41799" lon="6.58598">
        <ele>351.02</ele>
        <time>2021-07-18T18:59:05Z</time>
      </trkpt>
      <trkpt lat="47.41921" lon="6.58973">
        <ele>361.11</ele>
        <time>2021-07-18T18:59:15Z</time>
      </trkpt>
      <trkpt lat="47.41961" lon="6.59255">
        <ele>364.96</ele>
        <time>2021-07-18T18:59:24Z</time>
      </trkpt>
      <trkpt lat="47.41955" lon="6.59567">
        <ele>359.67</ele>
        <time>2021-07-18T18:59:32Z</time>
      </trkpt>
      <trkpt lat="47.41883" lon="6.60171">
        <ele>343.81</ele>
        <time>2021-07-18T18:59:47Z</time>
      </trkpt>
      <trkpt lat="47.41775" lon="6.61056">
        <ele>329.87</ele>
        <time>2021-07-18T19:00:09Z</time>
      </trkpt>
      <trkpt lat="47.41695" lon="6.61735">
        <ele>344.77</ele>
        <time>2021-07-18T19:00:26Z</time>
      </trkpt>
      <trkpt lat="47.41676" lon="6.62117">
        <ele>361.11</ele>
        <time>2021-07-18T19:00:38Z</time>
      </trkpt>
      <trkpt lat="47.41691" lon="6.62443">
        <ele>372.17</ele>
        <time>2021-07-18T19:00:48Z</time>
      </trkpt>
      <trkpt lat="47.41746" lon="6.62846">
        <ele>384.18</ele>
        <time>2021-07-18T19:01:01Z</time>
      </trkpt>
      <trkpt lat="47.41854" lon="6.63271">
        <ele>392.36</ele>
        <time>2021-07-18T19:01:14Z</time>
      </trkpt>
      <trkpt lat="47.41987" lon="6.63606">
        <ele>400.05</ele>
        <time>2021-07-18T19:01:26Z</time>
      </trkpt>
      <trkpt lat="47.42176" lon="6.63973">
        <ele>400.53</ele>
        <time>2021-07-18T19:01:38Z</time>
      </trkpt>
      <trkpt lat="47.42445" lon="6.6444">
        <ele>378.9</ele>
        <time>2021-07-18T19:01:53Z</time>
      </trkpt>
      <trkpt lat="47.42634" lon="6.64857">
        <ele>359.67</ele>
        <time>2021-07-18T19:02:05Z</time>
      </trkpt>
      <trkpt lat="47.42769" lon="6.65265">
        <ele>348.13</ele>
        <time>2021-07-18T19:02:16Z</time>
      </trkpt>
      <trkpt lat="47.42851" lon="6.6569">
        <ele>336.12</ele>
        <time>2021-07-18T19:02:27Z</time>
      </trkpt>
      <trkpt lat="47.42882" lon="6.66074">
        <ele>330.83</ele>
        <time>2021-07-18T19:02:37Z</time>
      </trkpt>
      <trkpt lat="47.42847" lon="6.66323">
        <ele>330.83</ele>
        <time>2021-07-18T19:02:44Z</time>
      </trkpt>
      <trkpt lat="47.42779" lon="6.66545">
        <ele>331.31</ele>
        <time>2021-07-18T19:02:51Z</time>
      </trkpt>
      <trkpt lat="47.42682" lon="6.6676">
        <ele>330.35</ele>
        <time>2021-07-18T19:03:00Z</time>
      </trkpt>
      <trkpt lat="47.42611" lon="6.66914">
        <ele>331.31</ele>
        <time>2021-07-18T19:03:09Z</time>
      </trkpt>
      <trkpt lat="47.42571" lon="6.67003">
        <ele>331.79</ele>
        <time>2021-07-18T19:03:17Z</time>
      </trkpt>
      <trkpt lat="47.42568" lon="6.6701">
        <ele>331.79</ele>
        <time>2021-07-18T19:03:18Z</time>
      </trkpt>
      <trkpt lat="47.42564" lon="6.67017">
        <ele>331.79</ele>
        <time>2021-07-18T19:03:19Z</time>
      </trkpt>
      <trkpt lat="47.4254" lon="6.67067">
        <ele>330.83</ele>
        <time>2021-07-18T19:03:30Z</time>
      </trkpt>
      <trkpt lat="47.42538" lon="6.67071">
        <ele>330.35</ele>
        <time>2021-07-18T19:03:42Z</time>
      </trkpt>
      <trkpt lat="47.42532" lon="6.67085">
        <ele>330.83</ele>
        <time>2021-07-18T19:04:20Z</time>
      </trkpt>
      <trkpt lat="47.42529" lon="6.67093">
        <ele>330.83</ele>
        <time>2021-07-18T19:04:32Z</time>
      </trkpt>
      <trkpt lat="47.42523" lon="6.67104">
        <ele>330.35</ele>
        <time>2021-07-18T19:04:53Z</time>
      </trkpt>
      <trkpt lat="47.42483" lon="6.6719">
        <ele>332.75</ele>
        <time>2021-07-18T19:05:01Z</time>
      </trkpt>
      <trkpt lat="47.42387" lon="6.67408">
        <ele>333.71</ele>
        <time>2021-07-18T19:05:12Z</time>
      </trkpt>
      <trkpt lat="47.42312" lon="6.67665">
        <ele>334.2</ele>
        <time>2021-07-18T19:05:22Z</time>
      </trkpt>
      <trkpt lat="47.42272" lon="6.6797">
        <ele>336.12</ele>
        <time>2021-07-18T19:05:32Z</time>
      </trkpt>
      <trkpt lat="47.4228" lon="6.6827">
        <ele>338.04</ele>
        <time>2021-07-18T19:05:41Z</time>
      </trkpt>
      <trkpt lat="47.42339" lon="6.68577">
        <ele>342.85</ele>
        <time>2021-07-18T19:05:50Z</time>
      </trkpt>
      <trkpt lat="47.42436" lon="6.68786">
        <ele>345.73</ele>
        <time>2021-07-18T19:05:57Z</time>
      </trkpt>
      <trkpt lat="47.42553" lon="6.68921">
        <ele>350.06</ele>
        <time>2021-07-18T19:06:03Z</time>
      </trkpt>
      <trkpt lat="47.42767" lon="6.69048">
        <ele>356.79</ele>
        <time>2021-07-18T19:06:12Z</time>
      </trkpt>
      <trkpt lat="47.42911" lon="6.69176">
        <ele>365.44</ele>
        <time>2021-07-18T19:06:19Z</time>
      </trkpt>
      <trkpt lat="47.43008" lon="6.6933">
        <ele>373.61</ele>
        <time>2021-07-18T19:06:25Z</time>
      </trkpt>
      <trkpt lat="47.43071" lon="6.69547">
        <ele>380.34</ele>
        <time>2021-07-18T19:06:32Z</time>
      </trkpt>
      <trkpt lat="47.43164" lon="6.69905">
        <ele>392.36</ele>
        <time>2021-07-18T19:06:44Z</time>
      </trkpt>
      <trkpt lat="47.43276" lon="6.70087">
        <ele>401.97</ele>
        <time>2021-07-18T19:06:52Z</time>
      </trkpt>
      <trkpt lat="47.43459" lon="6.70379">
        <ele>412.54</ele>
        <time>2021-07-18T19:07:04Z</time>
      </trkpt>
      <trkpt lat="47.43512" lon="6.70589">
        <ele>418.79</ele>
        <time>2021-07-18T19:07:11Z</time>
      </trkpt>
      <trkpt lat="47.43515" lon="6.70815">
        <ele>424.08</ele>
        <time>2021-07-18T19:07:18Z</time>
      </trkpt>
      <trkpt lat="47.43466" lon="6.71209">
        <ele>431.77</ele>
        <time>2021-07-18T19:07:30Z</time>
      </trkpt>
      <trkpt lat="47.4345" lon="6.7155">
        <ele>438.98</ele>
        <time>2021-07-18T19:07:40Z</time>
      </trkpt>
      <trkpt lat="47.43486" lon="6.71823">
        <ele>442.82</ele>
        <time>2021-07-18T19:07:48Z</time>
      </trkpt>
      <trkpt lat="47.43577" lon="6.72109">
        <ele>450.03</ele>
        <time>2021-07-18T19:07:57Z</time>
      </trkpt>
      <trkpt lat="47.43719" lon="6.72356">
        <ele>456.76</ele>
        <time>2021-07-18T19:08:05Z</time>
      </trkpt>
      <trkpt lat="47.43862" lon="6.7251">
        <ele>460.13</ele>
        <time>2021-07-18T19:08:13Z</time>
      </trkpt>
      <trkpt lat="47.44142" lon="6.72805">
        <ele>460.61</ele>
        <time>2021-07-18T19:08:26Z</time>
      </trkpt>
      <trkpt lat="47.44289" lon="6.73054">
        <ele>456.28</ele>
        <time>2021-07-18T19:08:34Z</time>
      </trkpt>
      <trkpt lat="47.44391" lon="6.73363">
        <ele>448.59</ele>
        <time>2021-07-18T19:08:42Z</time>
      </trkpt>
      <trkpt lat="47.44456" lon="6.73727">
        <ele>435.61</ele>
        <time>2021-07-18T19:08:51Z</time>
      </trkpt>
      <trkpt lat="47.44548" lon="6.74078">
        <ele>421.19</ele>
        <time>2021-07-18T19:09:00Z</time>
      </trkpt>
      <trkpt lat="47.44681" lon="6.74347">
        <ele>409.66</ele>
        <time>2021-07-18T19:09:08Z</time>
      </trkpt>
      <trkpt lat="47.44847" lon="6.74558">
        <ele>399.08</ele>
        <time>2021-07-18T19:09:16Z</time>
      </trkpt>
      <trkpt lat="47.45078" lon="6.74823">
        <ele>388.03</ele>
        <time>2021-07-18T19:09:27Z</time>
      </trkpt>
      <trkpt lat="47.45215" lon="6.75078">
        <ele>373.61</ele>
        <time>2021-07-18T19:09:35Z</time>
      </trkpt>
      <trkpt lat="47.4539" lon="6.75432">
        <ele>355.34</ele>
        <time>2021-07-18T19:09:46Z</time>
      </trkpt>
      <trkpt lat="47.45544" lon="6.75593">
        <ele>351.5</ele>
        <time>2021-07-18T19:09:53Z</time>
      </trkpt>
      <trkpt lat="47.45832" lon="6.75835">
        <ele>347.17</ele>
        <time>2021-07-18T19:10:05Z</time>
      </trkpt>
      <trkpt lat="47.45971" lon="6.76035">
        <ele>344.29</ele>
        <time>2021-07-18T19:10:12Z</time>
      </trkpt>
      <trkpt lat="47.46122" lon="6.76319">
        <ele>345.73</ele>
        <time>2021-07-18T19:10:21Z</time>
      </trkpt>
      <trkpt lat="47.46257" lon="6.7649">
        <ele>349.58</ele>
        <time>2021-07-18T19:10:28Z</time>
      </trkpt>
      <trkpt lat="47.46472" lon="6.76642">
        <ele>356.31</ele>
        <time>2021-07-18T19:10:37Z</time>
      </trkpt>
      <trkpt lat="47.46681" lon="6.76821">
        <ele>362.55</ele>
        <time>2021-07-18T19:10:46Z</time>
      </trkpt>
      <trkpt lat="47.46791" lon="6.77006">
        <ele>361.11</ele>
        <time>2021-07-18T19:10:52Z</time>
      </trkpt>
      <trkpt lat="47.46917" lon="6.77322">
        <ele>351.02</ele>
        <time>2021-07-18T19:11:01Z</time>
      </trkpt>
      <trkpt lat="47.47033" lon="6.77536">
        <ele>351.02</ele>
        <time>2021-07-18T19:11:08Z</time>
      </trkpt>
      <trkpt lat="47.47263" lon="6.77819">
        <ele>350.54</ele>
        <time>2021-07-18T19:11:19Z</time>
      </trkpt>
      <trkpt lat="47.47537" lon="6.78169">
        <ele>349.58</ele>
        <time>2021-07-18T19:11:32Z</time>
      </trkpt>
      <trkpt lat="47.47696" lon="6.78463">
        <ele>350.54</ele>
        <time>2021-07-18T19:11:41Z</time>
      </trkpt>
      <trkpt lat="47.47847" lon="6.7886">
        <ele>351.98</ele>
        <time>2021-07-18T19:11:52Z</time>
      </trkpt>
      <trkpt lat="47.48065" lon="6.79495">
        <ele>348.62</ele>
        <time>2021-07-18T19:12:09Z</time>
      </trkpt>
      <trkpt lat="47.48292" lon="6.80139">
        <ele>336.12</ele>
        <time>2021-07-18T19:12:27Z</time>
      </trkpt>
      <trkpt lat="47.48415" lon="6.80478">
        <ele>332.27</ele>
        <time>2021-07-18T19:12:38Z</time>
      </trkpt>
      <trkpt lat="47.48571" lon="6.80895">
        <ele>326.02</ele>
        <time>2021-07-18T19:12:51Z</time>
      </trkpt>
      <trkpt lat="47.48698" lon="6.81113">
        <ele>329.39</ele>
        <time>2021-07-18T19:12:59Z</time>
      </trkpt>
      <trkpt lat="47.48856" lon="6.81288">
        <ele>338.52</ele>
        <time>2021-07-18T19:13:07Z</time>
      </trkpt>
      <trkpt lat="47.49056" lon="6.8142">
        <ele>348.62</ele>
        <time>2021-07-18T19:13:16Z</time>
      </trkpt>
      <trkpt lat="47.49314" lon="6.81514">
        <ele>356.79</ele>
        <time>2021-07-18T19:13:27Z</time>
      </trkpt>
      <trkpt lat="47.4955" lon="6.81591">
        <ele>356.79</ele>
        <time>2021-07-18T19:13:37Z</time>
      </trkpt>
      <trkpt lat="47.49797" lon="6.81733">
        <ele>349.1</ele>
        <time>2021-07-18T19:13:48Z</time>
      </trkpt>
      <trkpt lat="47.50005" lon="6.81924">
        <ele>339.48</ele>
        <time>2021-07-18T19:13:59Z</time>
      </trkpt>
      <trkpt lat="47.50226" lon="6.82239">
        <ele>328.43</ele>
        <time>2021-07-18T19:14:09Z</time>
      </trkpt>
      <trkpt lat="47.50409" lon="6.82595">
        <ele>326.99</ele>
        <time>2021-07-18T19:14:22Z</time>
      </trkpt>
      <trkpt lat="47.50534" lon="6.82908">
        <ele>322.66</ele>
        <time>2021-07-18T19:14:32Z</time>
      </trkpt>
      <trkpt lat="47.50603" lon="6.83106">
        <ele>323.14</ele>
        <time>2021-07-18T19:14:39Z</time>
      </trkpt>
      <trkpt lat="47.50752" lon="6.83527">
        <ele>320.74</ele>
        <time>2021-07-18T19:14:52Z</time>
      </trkpt>
      <trkpt lat="47.50919" lon="6.83995">
        <ele>322.18</ele>
        <time>2021-07-18T19:15:08Z</time>
      </trkpt>
      <trkpt lat="47.51097" lon="6.84387">
        <ele>322.66</ele>
        <time>2021-07-18T19:15:21Z</time>
      </trkpt>
      <trkpt lat="47.51312" lon="6.84722">
        <ele>324.58</ele>
        <time>2021-07-18T19:15:33Z</time>
      </trkpt>
      <trkpt lat="47.51481" lon="6.84923">
        <ele>325.54</ele>
        <time>2021-07-18T19:15:44Z</time>
      </trkpt>
      <trkpt lat="47.51714" lon="6.85142">
        <ele>323.62</ele>
        <time>2021-07-18T19:15:57Z</time>
      </trkpt>
      <trkpt lat="47.52002" lon="6.85352">
        <ele>324.58</ele>
        <time>2021-07-18T19:16:11Z</time>
      </trkpt>
      <trkpt lat="47.5235" lon="6.85567">
        <ele>325.54</ele>
        <time>2021-07-18T19:16:25Z</time>
      </trkpt>
      <trkpt lat="47.52647" lon="6.8573">
        <ele>326.99</ele>
        <time>2021-07-18T19:16:38Z</time>
      </trkpt>
      <trkpt lat="47.53027" lon="6.85913">
        <ele>326.5</ele>
        <time>2021-07-18T19:16:53Z</time>
      </trkpt>
      <trkpt lat="47.53521" lon="6.86109">
        <ele>327.95</ele>
        <time>2021-07-18T19:17:13Z</time>
      </trkpt>
      <trkpt lat="47.54045" lon="6.86272">
        <ele>328.43</ele>
        <time>2021-07-18T19:17:34Z</time>
      </trkpt>
      <trkpt lat="47.54584" lon="6.86389">
        <ele>330.35</ele>
        <time>2021-07-18T19:17:55Z</time>
      </trkpt>
      <trkpt lat="47.55053" lon="6.86449">
        <ele>335.64</ele>
        <time>2021-07-18T19:18:13Z</time>
      </trkpt>
      <trkpt lat="47.55457" lon="6.86447">
        <ele>335.64</ele>
        <time>2021-07-18T19:18:28Z</time>
      </trkpt>
      <trkpt lat="47.55778" lon="6.86394">
        <ele>335.16</ele>
        <time>2021-07-18T19:18:40Z</time>
      </trkpt>
      <trkpt lat="47.56089" lon="6.86274">
        <ele>336.6</ele>
        <time>2021-07-18T19:18:51Z</time>
      </trkpt>
      <trkpt lat="47.56388" lon="6.8609">
        <ele>336.6</ele>
        <time>2021-07-18T19:19:04Z</time>
      </trkpt>
      <trkpt lat="47.56772" lon="6.85814">
        <ele>337.56</ele>
        <time>2021-07-18T19:19:20Z</time>
      </trkpt>
      <trkpt lat="47.5698" lon="6.85731">
        <ele>338.52</ele>
        <time>2021-07-18T19:19:28Z</time>
      </trkpt>
      <trkpt lat="47.57226" lon="6.85709">
        <ele>339.96</ele>
        <time>2021-07-18T19:19:37Z</time>
      </trkpt>
      <trkpt lat="47.57471" lon="6.85769">
        <ele>339</ele>
        <time>2021-07-18T19:19:46Z</time>
      </trkpt>
      <trkpt lat="47.57736" lon="6.85817">
        <ele>340.44</ele>
        <time>2021-07-18T19:19:56Z</time>
      </trkpt>
      <trkpt lat="47.57951" lon="6.85777">
        <ele>338.04</ele>
        <time>2021-07-18T19:20:04Z</time>
      </trkpt>
      <trkpt lat="47.58175" lon="6.85667">
        <ele>340.92</ele>
        <time>2021-07-18T19:20:13Z</time>
      </trkpt>
      <trkpt lat="47.58382" lon="6.85604">
        <ele>340.92</ele>
        <time>2021-07-18T19:20:21Z</time>
      </trkpt>
      <trkpt lat="47.58586" lon="6.85609">
        <ele>342.37</ele>
        <time>2021-07-18T19:20:29Z</time>
      </trkpt>
      <trkpt lat="47.58814" lon="6.85684">
        <ele>343.81</ele>
        <time>2021-07-18T19:20:38Z</time>
      </trkpt>
      <trkpt lat="47.59059" lon="6.85752">
        <ele>349.58</ele>
        <time>2021-07-18T19:20:48Z</time>
      </trkpt>
      <trkpt lat="47.59295" lon="6.85744">
        <ele>348.62</ele>
        <time>2021-07-18T19:20:57Z</time>
      </trkpt>
      <trkpt lat="47.59556" lon="6.85651">
        <ele>352.94</ele>
        <time>2021-07-18T19:21:07Z</time>
      </trkpt>
      <trkpt lat="47.59793" lon="6.85578">
        <ele>356.79</ele>
        <time>2021-07-18T19:21:16Z</time>
      </trkpt>
      <trkpt lat="47.59994" lon="6.85588">
        <ele>359.67</ele>
        <time>2021-07-18T19:21:24Z</time>
      </trkpt>
      <trkpt lat="47.60205" lon="6.85643">
        <ele>364.48</ele>
        <time>2021-07-18T19:21:34Z</time>
      </trkpt>
      <trkpt lat="47.60486" lon="6.85695">
        <ele>369.28</ele>
        <time>2021-07-18T19:21:47Z</time>
      </trkpt>
      <trkpt lat="47.60595" lon="6.85693">
        <ele>364</ele>
        <time>2021-07-18T19:21:54Z</time>
      </trkpt>
      <trkpt lat="47.60819" lon="6.85663">
        <ele>364.96</ele>
        <time>2021-07-18T19:22:07Z</time>
      </trkpt>
      <trkpt lat="47.61075" lon="6.85637">
        <ele>373.13</ele>
        <time>2021-07-18T19:22:21Z</time>
      </trkpt>
      <trkpt lat="47.61339" lon="6.8565">
        <ele>366.88</ele>
        <time>2021-07-18T19:22:35Z</time>
      </trkpt>
      <trkpt lat="47.61656" lon="6.8573">
        <ele>359.67</ele>
        <time>2021-07-18T19:22:50Z</time>
      </trkpt>
      <trkpt lat="47.61849" lon="6.85817">
        <ele>353.9</ele>
        <time>2021-07-18T19:23:02Z</time>
      </trkpt>
      <trkpt lat="47.62079" lon="6.85962">
        <ele>348.62</ele>
        <time>2021-07-18T19:23:17Z</time>
      </trkpt>
      <trkpt lat="47.62277" lon="6.86119">
        <ele>349.58</ele>
        <time>2021-07-18T19:23:29Z</time>
      </trkpt>
      <trkpt lat="47.62588" lon="6.86384">
        <ele>360.63</ele>
        <time>2021-07-18T19:23:44Z</time>
      </trkpt>
      <trkpt lat="47.62792" lon="6.86592">
        <ele>372.17</ele>
        <time>2021-07-18T19:23:55Z</time>
      </trkpt>
      <trkpt lat="47.62956" lon="6.8685">
        <ele>377.45</ele>
        <time>2021-07-18T19:24:05Z</time>
      </trkpt>
      <trkpt lat="47.63082" lon="6.87146">
        <ele>383.22</ele>
        <time>2021-07-18T19:24:15Z</time>
      </trkpt>
      <trkpt lat="47.6322" lon="6.8751">
        <ele>387.55</ele>
        <time>2021-07-18T19:24:28Z</time>
      </trkpt>
      <trkpt lat="47.63357" lon="6.87747">
        <ele>389.95</ele>
        <time>2021-07-18T19:24:37Z</time>
      </trkpt>
      <trkpt lat="47.63598" lon="6.88078">
        <ele>390.91</ele>
        <time>2021-07-18T19:24:51Z</time>
      </trkpt>
      <trkpt lat="47.6384" lon="6.88316">
        <ele>390.91</ele>
        <time>2021-07-18T19:25:01Z</time>
      </trkpt>
      <trkpt lat="47.64052" lon="6.88549">
        <ele>394.28</ele>
        <time>2021-07-18T19:25:11Z</time>
      </trkpt>
      <trkpt lat="47.64188" lon="6.88789">
        <ele>394.28</ele>
        <time>2021-07-18T19:25:19Z</time>
      </trkpt>
      <trkpt lat="47.6428" lon="6.89066">
        <ele>391.87</ele>
        <time>2021-07-18T19:25:27Z</time>
      </trkpt>
      <trkpt lat="47.64326" lon="6.8939">
        <ele>386.59</ele>
        <time>2021-07-18T19:25:34Z</time>
      </trkpt>
      <trkpt lat="47.64364" lon="6.89863">
        <ele>377.94</ele>
        <time>2021-07-18T19:25:45Z</time>
      </trkpt>
      <trkpt lat="47.64419" lon="6.90294">
        <ele>370.73</ele>
        <time>2021-07-18T19:25:57Z</time>
      </trkpt>
      <trkpt lat="47.6452" lon="6.90744">
        <ele>365.92</ele>
        <time>2021-07-18T19:26:09Z</time>
      </trkpt>
      <trkpt lat="47.64701" lon="6.91302">
        <ele>363.52</ele>
        <time>2021-07-18T19:26:24Z</time>
      </trkpt>
      <trkpt lat="47.64883" lon="6.91832">
        <ele>358.71</ele>
        <time>2021-07-18T19:26:39Z</time>
      </trkpt>
      <trkpt lat="47.65054" lon="6.92323">
        <ele>355.83</ele>
        <time>2021-07-18T19:26:53Z</time>
      </trkpt>
      <trkpt lat="47.6527" lon="6.9294">
        <ele>349.58</ele>
        <time>2021-07-18T19:27:09Z</time>
      </trkpt>
      <trkpt lat="47.655" lon="6.93588">
        <ele>348.62</ele>
        <time>2021-07-18T19:27:28Z</time>
      </trkpt>
      <trkpt lat="47.65735" lon="6.94167">
        <ele>356.31</ele>
        <time>2021-07-18T19:27:45Z</time>
      </trkpt>
      <trkpt lat="47.65906" lon="6.94519">
        <ele>361.11</ele>
        <time>2021-07-18T19:27:57Z</time>
      </trkpt>
      <trkpt lat="47.66099" lon="6.94854">
        <ele>370.73</ele>
        <time>2021-07-18T19:28:09Z</time>
      </trkpt>
      <trkpt lat="47.66311" lon="6.95185">
        <ele>373.13</ele>
        <time>2021-07-18T19:28:21Z</time>
      </trkpt>
      <trkpt lat="47.66396" lon="6.95315">
        <ele>372.17</ele>
        <time>2021-07-18T19:28:27Z</time>
      </trkpt>
      <trkpt lat="47.66415" lon="6.95344">
        <ele>371.69</ele>
        <time>2021-07-18T19:28:29Z</time>
      </trkpt>
      <trkpt lat="47.66421" lon="6.95354">
        <ele>370.24</ele>
        <time>2021-07-18T19:28:30Z</time>
      </trkpt>
      <trkpt lat="47.66418" lon="6.95377">
        <ele>369.28</ele>
        <time>2021-07-18T19:28:31Z</time>
      </trkpt>
      <trkpt lat="47.66422" lon="6.95389">
        <ele>368.8</ele>
        <time>2021-07-18T19:28:32Z</time>
      </trkpt>
      <trkpt lat="47.66424" lon="6.95403">
        <ele>367.84</ele>
        <time>2021-07-18T19:28:33Z</time>
      </trkpt>
      <trkpt lat="47.66425" lon="6.95415">
        <ele>367.36</ele>
        <time>2021-07-18T19:28:34Z</time>
      </trkpt>
      <trkpt lat="47.66428" lon="6.95439">
        <ele>365.44</ele>
        <time>2021-07-18T19:28:36Z</time>
      </trkpt>
      <trkpt lat="47.66431" lon="6.95452">
        <ele>364.96</ele>
        <time>2021-07-18T19:28:37Z</time>
      </trkpt>
      <trkpt lat="47.66435" lon="6.9546">
        <ele>364</ele>
        <time>2021-07-18T19:28:39Z</time>
      </trkpt>
      <trkpt lat="47.66475" lon="6.95524">
        <ele>360.63</ele>
        <time>2021-07-18T19:28:51Z</time>
      </trkpt>
      <trkpt lat="47.66505" lon="6.9557">
        <ele>359.67</ele>
        <time>2021-07-18T19:29:04Z</time>
      </trkpt>
      <trkpt lat="47.66536" lon="6.956">
        <ele>362.07</ele>
        <time>2021-07-18T19:29:16Z</time>
      </trkpt>
      <trkpt lat="47.66562" lon="6.95608">
        <ele>363.04</ele>
        <time>2021-07-18T19:29:26Z</time>
      </trkpt>
      <trkpt lat="47.66601" lon="6.9567">
        <ele>366.4</ele>
        <time>2021-07-18T19:29:33Z</time>
      </trkpt>
      <trkpt lat="47.66676" lon="6.95787">
        <ele>366.88</ele>
        <time>2021-07-18T19:29:41Z</time>
      </trkpt>
      <trkpt lat="47.66783" lon="6.95991">
        <ele>364.96</ele>
        <time>2021-07-18T19:29:50Z</time>
      </trkpt>
      <trkpt lat="47.66935" lon="6.96339">
        <ele>365.92</ele>
        <time>2021-07-18T19:30:02Z</time>
      </trkpt>
      <trkpt lat="47.67177" lon="6.96977">
        <ele>367.84</ele>
        <time>2021-07-18T19:30:22Z</time>
      </trkpt>
      <trkpt lat="47.67363" lon="6.97483">
        <ele>369.28</ele>
        <time>2021-07-18T19:30:39Z</time>
      </trkpt>
      <trkpt lat="47.67451" lon="6.97737">
        <ele>367.84</ele>
        <time>2021-07-18T19:30:49Z</time>
      </trkpt>
      <trkpt lat="47.67527" lon="6.97972">
        <ele>366.88</ele>
        <time>2021-07-18T19:31:00Z</time>
      </trkpt>
      <trkpt lat="47.67582" lon="6.98152">
        <ele>366.4</ele>
        <time>2021-07-18T19:31:13Z</time>
      </trkpt>
      <trkpt lat="47.67591" lon="6.98181">
        <ele>365.44</ele>
        <time>2021-07-18T19:31:19Z</time>
      </trkpt>
      <trkpt lat="47.67594" lon="6.98192">
        <ele>364.96</ele>
        <time>2021-07-18T19:31:20Z</time>
      </trkpt>
      <trkpt lat="47.676" lon="6.98208">
        <ele>364.48</ele>
        <time>2021-07-18T19:31:21Z</time>
      </trkpt>
      <trkpt lat="47.67622" lon="6.98281">
        <ele>363.52</ele>
        <time>2021-07-18T19:31:27Z</time>
      </trkpt>
      <trkpt lat="47.67669" lon="6.98449">
        <ele>364</ele>
        <time>2021-07-18T19:31:35Z</time>
      </trkpt>
      <trkpt lat="47.67761" lon="6.98755">
        <ele>364.48</ele>
        <time>2021-07-18T19:31:45Z</time>
      </trkpt>
      <trkpt lat="47.67882" lon="6.99139">
        <ele>367.84</ele>
        <time>2021-07-18T19:31:58Z</time>
      </trkpt>
      <trkpt lat="47.68059" lon="6.99674">
        <ele>369.28</ele>
        <time>2021-07-18T19:32:13Z</time>
      </trkpt>
      <trkpt lat="47.68342" lon="7.00451">
        <ele>370.73</ele>
        <time>2021-07-18T19:32:34Z</time>
      </trkpt>
      <trkpt lat="47.68533" lon="7.00851">
        <ele>367.36</ele>
        <time>2021-07-18T19:32:46Z</time>
      </trkpt>
      <trkpt lat="47.68766" lon="7.01232">
        <ele>365.92</ele>
        <time>2021-07-18T19:32:59Z</time>
      </trkpt>
      <trkpt lat="47.6901" lon="7.01543">
        <ele>367.36</ele>
        <time>2021-07-18T19:33:11Z</time>
      </trkpt>
      <trkpt lat="47.69354" lon="7.01905">
        <ele>369.76</ele>
        <time>2021-07-18T19:33:26Z</time>
      </trkpt>
      <trkpt lat="47.69747" lon="7.023">
        <ele>375.53</ele>
        <time>2021-07-18T19:33:43Z</time>
      </trkpt>
      <trkpt lat="47.70034" lon="7.0263">
        <ele>381.78</ele>
        <time>2021-07-18T19:33:57Z</time>
      </trkpt>
      <trkpt lat="47.70303" lon="7.03012">
        <ele>387.07</ele>
        <time>2021-07-18T19:34:12Z</time>
      </trkpt>
      <trkpt lat="47.70517" lon="7.0338">
        <ele>397.16</ele>
        <time>2021-07-18T19:34:25Z</time>
      </trkpt>
      <trkpt lat="47.70751" lon="7.03846">
        <ele>399.57</ele>
        <time>2021-07-18T19:34:40Z</time>
      </trkpt>
      <trkpt lat="47.71012" lon="7.04436">
        <ele>396.68</ele>
        <time>2021-07-18T19:34:58Z</time>
      </trkpt>
      <trkpt lat="47.71133" lon="7.04832">
        <ele>392.36</ele>
        <time>2021-07-18T19:35:09Z</time>
      </trkpt>
      <trkpt lat="47.71213" lon="7.05256">
        <ele>388.03</ele>
        <time>2021-07-18T19:35:20Z</time>
      </trkpt>
      <trkpt lat="47.71253" lon="7.05699">
        <ele>382.74</ele>
        <time>2021-07-18T19:35:31Z</time>
      </trkpt>
      <trkpt lat="47.71243" lon="7.06156">
        <ele>379.86</ele>
        <time>2021-07-18T19:35:42Z</time>
      </trkpt>
      <trkpt lat="47.71189" lon="7.06741">
        <ele>375.53</ele>
        <time>2021-07-18T19:35:56Z</time>
      </trkpt>
      <trkpt lat="47.71089" lon="7.07673">
        <ele>362.07</ele>
        <time>2021-07-18T19:36:18Z</time>
      </trkpt>
      <trkpt lat="47.71025" lon="7.08309">
        <ele>350.06</ele>
        <time>2021-07-18T19:36:33Z</time>
      </trkpt>
      <trkpt lat="47.70992" lon="7.08939">
        <ele>330.35</ele>
        <time>2021-07-18T19:36:48Z</time>
      </trkpt>
      <trkpt lat="47.70986" lon="7.09619">
        <ele>316.41</ele>
        <time>2021-07-18T19:37:04Z</time>
      </trkpt>
      <trkpt lat="47.71012" lon="7.10265">
        <ele>309.2</ele>
        <time>2021-07-18T19:37:19Z</time>
      </trkpt>
      <trkpt lat="47.71066" lon="7.10877">
        <ele>306.8</ele>
        <time>2021-07-18T19:37:36Z</time>
      </trkpt>
      <trkpt lat="47.71169" lon="7.11677">
        <ele>310.16</ele>
        <time>2021-07-18T19:37:57Z</time>
      </trkpt>
      <trkpt lat="47.71289" lon="7.12359">
        <ele>313.53</ele>
        <time>2021-07-18T19:38:15Z</time>
      </trkpt>
      <trkpt lat="47.71412" lon="7.1291">
        <ele>315.45</ele>
        <time>2021-07-18T19:38:30Z</time>
      </trkpt>
      <trkpt lat="47.71559" lon="7.13469">
        <ele>315.45</ele>
        <time>2021-07-18T19:38:45Z</time>
      </trkpt>
      <trkpt lat="47.71788" lon="7.14199">
        <ele>312.09</ele>
        <time>2021-07-18T19:39:05Z</time>
      </trkpt>
      <trkpt lat="47.72018" lon="7.14901">
        <ele>308.24</ele>
        <time>2021-07-18T19:39:24Z</time>
      </trkpt>
      <trkpt lat="47.72269" lon="7.15583">
        <ele>303.43</ele>
        <time>2021-07-18T19:39:43Z</time>
      </trkpt>
      <trkpt lat="47.72473" lon="7.16194">
        <ele>299.59</ele>
        <time>2021-07-18T19:40:00Z</time>
      </trkpt>
      <trkpt lat="47.72644" lon="7.16844">
        <ele>294.78</ele>
        <time>2021-07-18T19:40:17Z</time>
      </trkpt>
      <trkpt lat="47.72668" lon="7.16991">
        <ele>293.82</ele>
        <time>2021-07-18T19:40:23Z</time>
      </trkpt>
      <trkpt lat="47.72673" lon="7.17049">
        <ele>293.34</ele>
        <time>2021-07-18T19:40:25Z</time>
      </trkpt>
      <trkpt lat="47.72673" lon="7.17049">
        <ele>293.34</ele>
        <time>2021-07-18T19:40:26Z</time>
      </trkpt>
      <trkpt lat="47.72673" lon="7.17062">
        <ele>293.34</ele>
        <time>2021-07-18T19:40:27Z</time>
      </trkpt>
      <trkpt lat="47.7267" lon="7.17078">
        <ele>293.34</ele>
        <time>2021-07-18T19:40:28Z</time>
      </trkpt>
      <trkpt lat="47.72668" lon="7.17095">
        <ele>293.34</ele>
        <time>2021-07-18T19:40:29Z</time>
      </trkpt>
      <trkpt lat="47.72654" lon="7.17118">
        <ele>293.82</ele>
        <time>2021-07-18T19:40:30Z</time>
      </trkpt>
      <trkpt lat="47.72654" lon="7.17118">
        <ele>293.34</ele>
        <time>2021-07-18T19:40:31Z</time>
      </trkpt>
      <trkpt lat="47.72635" lon="7.17137">
        <ele>292.38</ele>
        <time>2021-07-18T19:40:32Z</time>
      </trkpt>
      <trkpt lat="47.72635" lon="7.17137">
        <ele>292.38</ele>
        <time>2021-07-18T19:40:34Z</time>
      </trkpt>
      <trkpt lat="47.72611" lon="7.17135">
        <ele>292.38</ele>
        <time>2021-07-18T19:40:35Z</time>
      </trkpt>
      <trkpt lat="47.72601" lon="7.17132">
        <ele>291.42</ele>
        <time>2021-07-18T19:40:36Z</time>
      </trkpt>
      <trkpt lat="47.72591" lon="7.17123">
        <ele>291.9</ele>
        <time>2021-07-18T19:40:37Z</time>
      </trkpt>
      <trkpt lat="47.72581" lon="7.17114">
        <ele>291.9</ele>
        <time>2021-07-18T19:40:38Z</time>
      </trkpt>
      <trkpt lat="47.72573" lon="7.17103">
        <ele>291.9</ele>
        <time>2021-07-18T19:40:39Z</time>
      </trkpt>
      <trkpt lat="47.72564" lon="7.17068">
        <ele>291.9</ele>
        <time>2021-07-18T19:40:40Z</time>
      </trkpt>
      <trkpt lat="47.72564" lon="7.17068">
        <ele>292.38</ele>
        <time>2021-07-18T19:40:41Z</time>
      </trkpt>
      <trkpt lat="47.72562" lon="7.1705">
        <ele>292.86</ele>
        <time>2021-07-18T19:40:42Z</time>
      </trkpt>
      <trkpt lat="47.72563" lon="7.17031">
        <ele>293.34</ele>
        <time>2021-07-18T19:40:43Z</time>
      </trkpt>
      <trkpt lat="47.72564" lon="7.17011">
        <ele>293.34</ele>
        <time>2021-07-18T19:40:44Z</time>
      </trkpt>
      <trkpt lat="47.72568" lon="7.16992">
        <ele>293.82</ele>
        <time>2021-07-18T19:40:45Z</time>
      </trkpt>
      <trkpt lat="47.72572" lon="7.16972">
        <ele>293.82</ele>
        <time>2021-07-18T19:40:46Z</time>
      </trkpt>
      <trkpt lat="47.72576" lon="7.16951">
        <ele>294.3</ele>
        <time>2021-07-18T19:40:47Z</time>
      </trkpt>
      <trkpt lat="47.72592" lon="7.16913">
        <ele>294.78</ele>
        <time>2021-07-18T19:40:48Z</time>
      </trkpt>
      <trkpt lat="47.72601" lon="7.16895">
        <ele>294.78</ele>
        <time>2021-07-18T19:40:49Z</time>
      </trkpt>
      <trkpt lat="47.72685" lon="7.16755">
        <ele>295.74</ele>
        <time>2021-07-18T19:40:58Z</time>
      </trkpt>
      <trkpt lat="47.7283" lon="7.16518">
        <ele>291.9</ele>
        <time>2021-07-18T19:41:10Z</time>
      </trkpt>
      <trkpt lat="47.7298" lon="7.16262">
        <ele>294.3</ele>
        <time>2021-07-18T19:41:21Z</time>
      </trkpt>
      <trkpt lat="47.73217" lon="7.15969">
        <ele>297.18</ele>
        <time>2021-07-18T19:41:34Z</time>
      </trkpt>
      <trkpt lat="47.7359" lon="7.15535">
        <ele>299.59</ele>
        <time>2021-07-18T19:41:53Z</time>
      </trkpt>
      <trkpt lat="47.73847" lon="7.1532">
        <ele>301.03</ele>
        <time>2021-07-18T19:42:05Z</time>
      </trkpt>
      <trkpt lat="47.74147" lon="7.15161">
        <ele>302.95</ele>
        <time>2021-07-18T19:42:18Z</time>
      </trkpt>
      <trkpt lat="47.74408" lon="7.15091">
        <ele>303.91</ele>
        <time>2021-07-18T19:42:29Z</time>
      </trkpt>
      <trkpt lat="47.74748" lon="7.1505">
        <ele>313.53</ele>
        <time>2021-07-18T19:42:43Z</time>
      </trkpt>
      <trkpt lat="47.7497" lon="7.15088">
        <ele>316.89</ele>
        <time>2021-07-18T19:42:52Z</time>
      </trkpt>
      <trkpt lat="47.75183" lon="7.15187">
        <ele>315.93</ele>
        <time>2021-07-18T19:43:01Z</time>
      </trkpt>
      <trkpt lat="47.75412" lon="7.15381">
        <ele>312.09</ele>
        <time>2021-07-18T19:43:10Z</time>
      </trkpt>
      <trkpt lat="47.7558" lon="7.15576">
        <ele>308.24</ele>
        <time>2021-07-18T19:43:19Z</time>
      </trkpt>
      <trkpt lat="47.75784" lon="7.15759">
        <ele>301.51</ele>
        <time>2021-07-18T19:43:28Z</time>
      </trkpt>
      <trkpt lat="47.76015" lon="7.15877">
        <ele>300.07</ele>
        <time>2021-07-18T19:43:37Z</time>
      </trkpt>
      <trkpt lat="47.7638" lon="7.15977">
        <ele>306.8</ele>
        <time>2021-07-18T19:43:50Z</time>
      </trkpt>
      <trkpt lat="47.76818" lon="7.16101">
        <ele>306.8</ele>
        <time>2021-07-18T19:44:08Z</time>
      </trkpt>
      <trkpt lat="47.77182" lon="7.16217">
        <ele>303.91</ele>
        <time>2021-07-18T19:44:23Z</time>
      </trkpt>
      <trkpt lat="47.77485" lon="7.16255">
        <ele>303.91</ele>
        <time>2021-07-18T19:44:35Z</time>
      </trkpt>
      <trkpt lat="47.77735" lon="7.16364">
        <ele>304.39</ele>
        <time>2021-07-18T19:44:45Z</time>
      </trkpt>
      <trkpt lat="47.78084" lon="7.16567">
        <ele>302.47</ele>
        <time>2021-07-18T19:45:00Z</time>
      </trkpt>
      <trkpt lat="47.78245" lon="7.16746">
        <ele>303.43</ele>
        <time>2021-07-18T19:45:08Z</time>
      </trkpt>
      <trkpt lat="47.78382" lon="7.16982">
        <ele>304.39</ele>
        <time>2021-07-18T19:45:16Z</time>
      </trkpt>
      <trkpt lat="47.78512" lon="7.17323">
        <ele>300.55</ele>
        <time>2021-07-18T19:45:26Z</time>
      </trkpt>
      <trkpt lat="47.7869" lon="7.17654">
        <ele>305.84</ele>
        <time>2021-07-18T19:45:36Z</time>
      </trkpt>
      <trkpt lat="47.78873" lon="7.17888">
        <ele>307.28</ele>
        <time>2021-07-18T19:45:47Z</time>
      </trkpt>
      <trkpt lat="47.79185" lon="7.18259">
        <ele>301.99</ele>
        <time>2021-07-18T19:46:04Z</time>
      </trkpt>
      <trkpt lat="47.79462" lon="7.18588">
        <ele>301.99</ele>
        <time>2021-07-18T19:46:18Z</time>
      </trkpt>
      <trkpt lat="47.79718" lon="7.18853">
        <ele>301.99</ele>
        <time>2021-07-18T19:46:30Z</time>
      </trkpt>
      <trkpt lat="47.79943" lon="7.18988">
        <ele>298.15</ele>
        <time>2021-07-18T19:46:39Z</time>
      </trkpt>
      <trkpt lat="47.80276" lon="7.19112">
        <ele>295.74</ele>
        <time>2021-07-18T19:46:52Z</time>
      </trkpt>
      <trkpt lat="47.80699" lon="7.19268">
        <ele>294.78</ele>
        <time>2021-07-18T19:47:09Z</time>
      </trkpt>
      <trkpt lat="47.81152" lon="7.19472">
        <ele>290.46</ele>
        <time>2021-07-18T19:47:28Z</time>
      </trkpt>
      <trkpt lat="47.81599" lon="7.19696">
        <ele>286.61</ele>
        <time>2021-07-18T19:47:48Z</time>
      </trkpt>
      <trkpt lat="47.8182" lon="7.19865">
        <ele>285.17</ele>
        <time>2021-07-18T19:47:58Z</time>
      </trkpt>
      <trkpt lat="47.82005" lon="7.20091">
        <ele>285.17</ele>
        <time>2021-07-18T19:48:07Z</time>
      </trkpt>
      <trkpt lat="47.82158" lon="7.20368">
        <ele>284.69</ele>
        <time>2021-07-18T19:48:16Z</time>
      </trkpt>
      <trkpt lat="47.82439" lon="7.20989">
        <ele>280.84</ele>
        <time>2021-07-18T19:48:35Z</time>
      </trkpt>
      <trkpt lat="47.82661" lon="7.21422">
        <ele>277</ele>
        <time>2021-07-18T19:48:49Z</time>
      </trkpt>
      <trkpt lat="47.82837" lon="7.21648">
        <ele>273.63</ele>
        <time>2021-07-18T19:48:58Z</time>
      </trkpt>
      <trkpt lat="47.83267" lon="7.22138">
        <ele>268.83</ele>
        <time>2021-07-18T19:49:19Z</time>
      </trkpt>
      <trkpt lat="47.83683" lon="7.22618">
        <ele>264.98</ele>
        <time>2021-07-18T19:49:39Z</time>
      </trkpt>
      <trkpt lat="47.84058" lon="7.23049">
        <ele>258.25</ele>
        <time>2021-07-18T19:49:56Z</time>
      </trkpt>
      <trkpt lat="47.84474" lon="7.23526">
        <ele>254.89</ele>
        <time>2021-07-18T19:50:15Z</time>
      </trkpt>
      <trkpt lat="47.84722" lon="7.23775">
        <ele>250.56</ele>
        <time>2021-07-18T19:50:26Z</time>
      </trkpt>
      <trkpt lat="47.84974" lon="7.23924">
        <ele>250.08</ele>
        <time>2021-07-18T19:50:36Z</time>
      </trkpt>
      <trkpt lat="47.85447" lon="7.2415">
        <ele>247.2</ele>
        <time>2021-07-18T19:50:55Z</time>
      </trkpt>
      <trkpt lat="47.8579" lon="7.24287">
        <ele>247.68</ele>
        <time>2021-07-18T19:51:09Z</time>
      </trkpt>
      <trkpt lat="47.86331" lon="7.24409">
        <ele>251.04</ele>
        <time>2021-07-18T19:51:31Z</time>
      </trkpt>
      <trkpt lat="47.86752" lon="7.24523">
        <ele>253.44</ele>
        <time>2021-07-18T19:51:49Z</time>
      </trkpt>
      <trkpt lat="47.87021" lon="7.24622">
        <ele>254.41</ele>
        <time>2021-07-18T19:52:02Z</time>
      </trkpt>
      <trkpt lat="47.87185" lon="7.24686">
        <ele>254.41</ele>
        <time>2021-07-18T19:52:12Z</time>
      </trkpt>
      <trkpt lat="47.87221" lon="7.247">
        <ele>252.96</ele>
        <time>2021-07-18T19:52:15Z</time>
      </trkpt>
      <trkpt lat="47.87231" lon="7.24709">
        <ele>252.96</ele>
        <time>2021-07-18T19:52:16Z</time>
      </trkpt>
      <trkpt lat="47.87241" lon="7.24717">
        <ele>253.93</ele>
        <time>2021-07-18T19:52:17Z</time>
      </trkpt>
      <trkpt lat="47.87251" lon="7.24726">
        <ele>253.93</ele>
        <time>2021-07-18T19:52:18Z</time>
      </trkpt>
      <trkpt lat="47.87256" lon="7.24746">
        <ele>253.93</ele>
        <time>2021-07-18T19:52:19Z</time>
      </trkpt>
      <trkpt lat="47.87266" lon="7.24771">
        <ele>253.93</ele>
        <time>2021-07-18T19:52:21Z</time>
      </trkpt>
      <trkpt lat="47.87276" lon="7.24781">
        <ele>253.44</ele>
        <time>2021-07-18T19:52:22Z</time>
      </trkpt>
      <trkpt lat="47.87295" lon="7.24795">
        <ele>253.44</ele>
        <time>2021-07-18T19:52:23Z</time>
      </trkpt>
      <trkpt lat="47.87295" lon="7.24795">
        <ele>253.44</ele>
        <time>2021-07-18T19:52:24Z</time>
      </trkpt>
      <trkpt lat="47.87304" lon="7.24793">
        <ele>253.44</ele>
        <time>2021-07-18T19:52:25Z</time>
      </trkpt>
      <trkpt lat="47.87314" lon="7.24792">
        <ele>253.93</ele>
        <time>2021-07-18T19:52:26Z</time>
      </trkpt>
      <trkpt lat="47.87324" lon="7.24788">
        <ele>253.93</ele>
        <time>2021-07-18T19:52:27Z</time>
      </trkpt>
      <trkpt lat="47.87331" lon="7.24784">
        <ele>253.44</ele>
        <time>2021-07-18T19:52:28Z</time>
      </trkpt>
      <trkpt lat="47.87348" lon="7.24777">
        <ele>252.48</ele>
        <time>2021-07-18T19:52:29Z</time>
      </trkpt>
      <trkpt lat="47.87357" lon="7.2478">
        <ele>252.96</ele>
        <time>2021-07-18T19:52:30Z</time>
      </trkpt>
      <trkpt lat="47.87368" lon="7.24784">
        <ele>253.44</ele>
        <time>2021-07-18T19:52:31Z</time>
      </trkpt>
      <trkpt lat="47.87381" lon="7.24788">
        <ele>252.96</ele>
        <time>2021-07-18T19:52:32Z</time>
      </trkpt>
      <trkpt lat="47.87396" lon="7.24793">
        <ele>253.44</ele>
        <time>2021-07-18T19:52:33Z</time>
      </trkpt>
      <trkpt lat="47.87567" lon="7.24887">
        <ele>252.48</ele>
        <time>2021-07-18T19:52:44Z</time>
      </trkpt>
      <trkpt lat="47.8785" lon="7.25044">
        <ele>250.56</ele>
        <time>2021-07-18T19:52:59Z</time>
      </trkpt>
      <trkpt lat="47.88203" lon="7.25258">
        <ele>250.08</ele>
        <time>2021-07-18T19:53:16Z</time>
      </trkpt>
      <trkpt lat="47.885" lon="7.25457">
        <ele>248.16</ele>
        <time>2021-07-18T19:53:31Z</time>
      </trkpt>
      <trkpt lat="47.88737" lon="7.25591">
        <ele>248.64</ele>
        <time>2021-07-18T19:53:43Z</time>
      </trkpt>
      <trkpt lat="47.88978" lon="7.25634">
        <ele>247.2</ele>
        <time>2021-07-18T19:53:54Z</time>
      </trkpt>
      <trkpt lat="47.89339" lon="7.2568">
        <ele>249.12</ele>
        <time>2021-07-18T19:54:10Z</time>
      </trkpt>
      <trkpt lat="47.89546" lon="7.25746">
        <ele>247.2</ele>
        <time>2021-07-18T19:54:19Z</time>
      </trkpt>
      <trkpt lat="47.9004" lon="7.25942">
        <ele>247.2</ele>
        <time>2021-07-18T19:54:40Z</time>
      </trkpt>
      <trkpt lat="47.90435" lon="7.26021">
        <ele>246.72</ele>
        <time>2021-07-18T19:54:56Z</time>
      </trkpt>
      <trkpt lat="47.90744" lon="7.26101">
        <ele>243.83</ele>
        <time>2021-07-18T19:55:09Z</time>
      </trkpt>
      <trkpt lat="47.91045" lon="7.26245">
        <ele>241.43</ele>
        <time>2021-07-18T19:55:21Z</time>
      </trkpt>
      <trkpt lat="47.91507" lon="7.26473">
        <ele>236.62</ele>
        <time>2021-07-18T19:55:41Z</time>
      </trkpt>
      <trkpt lat="47.91992" lon="7.26705">
        <ele>231.81</ele>
        <time>2021-07-18T19:56:00Z</time>
      </trkpt>
      <trkpt lat="47.92298" lon="7.26824">
        <ele>229.89</ele>
        <time>2021-07-18T19:56:12Z</time>
      </trkpt>
      <trkpt lat="47.92614" lon="7.27015">
        <ele>227.49</ele>
        <time>2021-07-18T19:56:25Z</time>
      </trkpt>
      <trkpt lat="47.92947" lon="7.27256">
        <ele>220.28</ele>
        <time>2021-07-18T19:56:39Z</time>
      </trkpt>
      <trkpt lat="47.9331" lon="7.2758">
        <ele>217.4</ele>
        <time>2021-07-18T19:56:55Z</time>
      </trkpt>
      <trkpt lat="47.93617" lon="7.27855">
        <ele>214.99</ele>
        <time>2021-07-18T19:57:08Z</time>
      </trkpt>
      <trkpt lat="47.93932" lon="7.28135">
        <ele>215.47</ele>
        <time>2021-07-18T19:57:24Z</time>
      </trkpt>
      <trkpt lat="47.94266" lon="7.28516">
        <ele>214.03</ele>
        <time>2021-07-18T19:57:41Z</time>
      </trkpt>
      <trkpt lat="47.94468" lon="7.28797">
        <ele>212.59</ele>
        <time>2021-07-18T19:57:52Z</time>
      </trkpt>
      <trkpt lat="47.94591" lon="7.291">
        <ele>209.7</ele>
        <time>2021-07-18T19:58:00Z</time>
      </trkpt>
      <trkpt lat="47.94664" lon="7.29436">
        <ele>206.34</ele>
        <time>2021-07-18T19:58:09Z</time>
      </trkpt>
      <trkpt lat="47.9478" lon="7.29943">
        <ele>207.78</ele>
        <time>2021-07-18T19:58:24Z</time>
      </trkpt>
      <trkpt lat="47.94897" lon="7.30231">
        <ele>207.3</ele>
        <time>2021-07-18T19:58:33Z</time>
      </trkpt>
      <trkpt lat="47.95036" lon="7.30447">
        <ele>206.82</ele>
        <time>2021-07-18T19:58:41Z</time>
      </trkpt>
      <trkpt lat="47.95229" lon="7.30626">
        <ele>206.82</ele>
        <time>2021-07-18T19:58:49Z</time>
      </trkpt>
      <trkpt lat="47.9542" lon="7.30722">
        <ele>205.86</ele>
        <time>2021-07-18T19:58:58Z</time>
      </trkpt>
      <trkpt lat="47.95827" lon="7.30833">
        <ele>209.7</ele>
        <time>2021-07-18T19:59:14Z</time>
      </trkpt>
      <trkpt lat="47.96062" lon="7.30876">
        <ele>210.19</ele>
        <time>2021-07-18T19:59:24Z</time>
      </trkpt>
      <trkpt lat="47.96247" lon="7.30855">
        <ele>207.3</ele>
        <time>2021-07-18T19:59:32Z</time>
      </trkpt>
      <trkpt lat="47.96426" lon="7.30761">
        <ele>206.82</ele>
        <time>2021-07-18T19:59:40Z</time>
      </trkpt>
      <trkpt lat="47.96636" lon="7.30568">
        <ele>206.34</ele>
        <time>2021-07-18T19:59:50Z</time>
      </trkpt>
      <trkpt lat="47.9704" lon="7.30157">
        <ele>206.82</ele>
        <time>2021-07-18T20:00:10Z</time>
      </trkpt>
      <trkpt lat="47.97312" lon="7.29875">
        <ele>205.86</ele>
        <time>2021-07-18T20:00:22Z</time>
      </trkpt>
      <trkpt lat="47.97519" lon="7.29647">
        <ele>206.34</ele>
        <time>2021-07-18T20:00:33Z</time>
      </trkpt>
      <trkpt lat="47.97675" lon="7.29518">
        <ele>206.34</ele>
        <time>2021-07-18T20:00:40Z</time>
      </trkpt>
      <trkpt lat="47.97893" lon="7.29449">
        <ele>209.22</ele>
        <time>2021-07-18T20:00:48Z</time>
      </trkpt>
      <trkpt lat="47.98245" lon="7.29361">
        <ele>223.16</ele>
        <time>2021-07-18T20:01:04Z</time>
      </trkpt>
      <trkpt lat="47.98583" lon="7.29298">
        <ele>221.72</ele>
        <time>2021-07-18T20:01:18Z</time>
      </trkpt>
      <trkpt lat="47.9881" lon="7.29349">
        <ele>212.59</ele>
        <time>2021-07-18T20:01:27Z</time>
      </trkpt>
      <trkpt lat="47.99084" lon="7.29393">
        <ele>204.9</ele>
        <time>2021-07-18T20:01:37Z</time>
      </trkpt>
      <trkpt lat="47.99429" lon="7.29387">
        <ele>200.57</ele>
        <time>2021-07-18T20:01:50Z</time>
      </trkpt>
      <trkpt lat="47.99765" lon="7.29434">
        <ele>200.09</ele>
        <time>2021-07-18T20:02:03Z</time>
      </trkpt>
      <trkpt lat="48.0016" lon="7.29512">
        <ele>200.09</ele>
        <time>2021-07-18T20:02:19Z</time>
      </trkpt>
      <trkpt lat="48.00371" lon="7.29631">
        <ele>197.69</ele>
        <time>2021-07-18T20:02:28Z</time>
      </trkpt>
      <trkpt lat="48.00538" lon="7.29802">
        <ele>197.69</ele>
        <time>2021-07-18T20:02:36Z</time>
      </trkpt>
      <trkpt lat="48.00917" lon="7.30279">
        <ele>197.21</ele>
        <time>2021-07-18T20:02:55Z</time>
      </trkpt>
      <trkpt lat="48.01207" lon="7.30655">
        <ele>204.42</ele>
        <time>2021-07-18T20:03:10Z</time>
      </trkpt>
      <trkpt lat="48.01454" lon="7.30961">
        <ele>208.26</ele>
        <time>2021-07-18T20:03:23Z</time>
      </trkpt>
      <trkpt lat="48.01789" lon="7.31309">
        <ele>209.7</ele>
        <time>2021-07-18T20:03:39Z</time>
      </trkpt>
      <trkpt lat="48.02013" lon="7.31517">
        <ele>211.15</ele>
        <time>2021-07-18T20:03:50Z</time>
      </trkpt>
      <trkpt lat="48.02176" lon="7.31567">
        <ele>213.07</ele>
        <time>2021-07-18T20:03:57Z</time>
      </trkpt>
      <trkpt lat="48.02316" lon="7.31533">
        <ele>212.11</ele>
        <time>2021-07-18T20:04:03Z</time>
      </trkpt>
      <trkpt lat="48.02494" lon="7.31412">
        <ele>206.82</ele>
        <time>2021-07-18T20:04:11Z</time>
      </trkpt>
      <trkpt lat="48.02637" lon="7.31346">
        <ele>202.98</ele>
        <time>2021-07-18T20:04:17Z</time>
      </trkpt>
      <trkpt lat="48.02776" lon="7.31364">
        <ele>199.61</ele>
        <time>2021-07-18T20:04:22Z</time>
      </trkpt>
      <trkpt lat="48.02816" lon="7.31394">
        <ele>197.69</ele>
        <time>2021-07-18T20:04:26Z</time>
      </trkpt>
      <trkpt lat="48.02824" lon="7.31405">
        <ele>197.21</ele>
        <time>2021-07-18T20:04:27Z</time>
      </trkpt>
      <trkpt lat="48.02831" lon="7.31416">
        <ele>197.69</ele>
        <time>2021-07-18T20:04:28Z</time>
      </trkpt>
      <trkpt lat="48.02836" lon="7.31436">
        <ele>197.21</ele>
        <time>2021-07-18T20:04:29Z</time>
      </trkpt>
      <trkpt lat="48.02836" lon="7.31436">
        <ele>196.25</ele>
        <time>2021-07-18T20:04:30Z</time>
      </trkpt>
      <trkpt lat="48.02837" lon="7.31449">
        <ele>195.28</ele>
        <time>2021-07-18T20:04:31Z</time>
      </trkpt>
      <trkpt lat="48.02833" lon="7.3146">
        <ele>194.32</ele>
        <time>2021-07-18T20:04:32Z</time>
      </trkpt>
      <trkpt lat="48.02829" lon="7.31474">
        <ele>193.84</ele>
        <time>2021-07-18T20:04:33Z</time>
      </trkpt>
      <trkpt lat="48.02822" lon="7.31496">
        <ele>192.88</ele>
        <time>2021-07-18T20:04:35Z</time>
      </trkpt>
      <trkpt lat="48.02822" lon="7.31503">
        <ele>192.4</ele>
        <time>2021-07-18T20:04:36Z</time>
      </trkpt>
      <trkpt lat="48.02823" lon="7.31509">
        <ele>191.92</ele>
        <time>2021-07-18T20:04:37Z</time>
      </trkpt>
      <trkpt lat="48.02823" lon="7.31515">
        <ele>191.92</ele>
        <time>2021-07-18T20:04:38Z</time>
      </trkpt>
      <trkpt lat="48.02824" lon="7.3152">
        <ele>191.44</ele>
        <time>2021-07-18T20:04:39Z</time>
      </trkpt>
      <trkpt lat="48.02829" lon="7.31533">
        <ele>191.44</ele>
        <time>2021-07-18T20:04:40Z</time>
      </trkpt>
      <trkpt lat="48.02829" lon="7.31533">
        <ele>191.44</ele>
        <time>2021-07-18T20:04:41Z</time>
      </trkpt>
      <trkpt lat="48.0283" lon="7.31538">
        <ele>191.44</ele>
        <time>2021-07-18T20:04:42Z</time>
      </trkpt>
      <trkpt lat="48.02831" lon="7.31541">
        <ele>191.92</ele>
        <time>2021-07-18T20:04:44Z</time>
      </trkpt>
      <trkpt lat="48.0284" lon="7.31535">
        <ele>192.4</ele>
        <time>2021-07-18T20:04:45Z</time>
      </trkpt>
      <trkpt lat="48.02851" lon="7.31523">
        <ele>192.88</ele>
        <time>2021-07-18T20:04:46Z</time>
      </trkpt>
      <trkpt lat="48.02912" lon="7.31464">
        <ele>188.56</ele>
        <time>2021-07-18T20:04:54Z</time>
      </trkpt>
      <trkpt lat="48.02999" lon="7.31378">
        <ele>198.65</ele>
        <time>2021-07-18T20:05:03Z</time>
      </trkpt>
      <trkpt lat="48.03074" lon="7.31286">
        <ele>199.61</ele>
        <time>2021-07-18T20:05:12Z</time>
      </trkpt>
      <trkpt lat="48.03148" lon="7.312">
        <ele>202.01</ele>
        <time>2021-07-18T20:05:19Z</time>
      </trkpt>
      <trkpt lat="48.0316" lon="7.31189">
        <ele>202.49</ele>
        <time>2021-07-18T20:05:20Z</time>
      </trkpt>
      <trkpt lat="48.03187" lon="7.31178">
        <ele>202.49</ele>
        <time>2021-07-18T20:05:21Z</time>
      </trkpt>
      <trkpt lat="48.032" lon="7.31175">
        <ele>202.01</ele>
        <time>2021-07-18T20:05:22Z</time>
      </trkpt>
      <trkpt lat="48.03212" lon="7.31173">
        <ele>201.53</ele>
        <time>2021-07-18T20:05:23Z</time>
      </trkpt>
      <trkpt lat="48.03225" lon="7.31172">
        <ele>202.49</ele>
        <time>2021-07-18T20:05:25Z</time>
      </trkpt>
      <trkpt lat="48.03238" lon="7.31173">
        <ele>202.98</ele>
        <time>2021-07-18T20:05:26Z</time>
      </trkpt>
      <trkpt lat="48.03397" lon="7.31184">
        <ele>204.42</ele>
        <time>2021-07-18T20:05:36Z</time>
      </trkpt>
      <trkpt lat="48.03629" lon="7.31151">
        <ele>205.38</ele>
        <time>2021-07-18T20:05:48Z</time>
      </trkpt>
      <trkpt lat="48.03867" lon="7.31119">
        <ele>211.15</ele>
        <time>2021-07-18T20:06:00Z</time>
      </trkpt>
      <trkpt lat="48.04041" lon="7.31132">
        <ele>204.9</ele>
        <time>2021-07-18T20:06:10Z</time>
      </trkpt>
      <trkpt lat="48.04136" lon="7.31137">
        <ele>203.94</ele>
        <time>2021-07-18T20:06:18Z</time>
      </trkpt>
      <trkpt lat="48.04143" lon="7.31138">
        <ele>203.46</ele>
        <time>2021-07-18T20:06:20Z</time>
      </trkpt>
      <trkpt lat="48.04149" lon="7.31138">
        <ele>202.98</ele>
        <time>2021-07-18T20:06:21Z</time>
      </trkpt>
      <trkpt lat="48.04153" lon="7.31138">
        <ele>202.01</ele>
        <time>2021-07-18T20:06:23Z</time>
      </trkpt>
      <trkpt lat="48.04156" lon="7.31145">
        <ele>202.01</ele>
        <time>2021-07-18T20:06:24Z</time>
      </trkpt>
      <trkpt lat="48.04163" lon="7.3114">
        <ele>202.01</ele>
        <time>2021-07-18T20:06:26Z</time>
      </trkpt>
      <trkpt lat="48.0416" lon="7.31134">
        <ele>201.53</ele>
        <time>2021-07-18T20:06:27Z</time>
      </trkpt>
      <trkpt lat="48.04162" lon="7.31129">
        <ele>201.53</ele>
        <time>2021-07-18T20:06:28Z</time>
      </trkpt>
      <trkpt lat="48.04162" lon="7.31129">
        <ele>202.49</ele>
        <time>2021-07-18T20:06:29Z</time>
      </trkpt>
      <trkpt lat="48.04164" lon="7.31123">
        <ele>202.49</ele>
        <time>2021-07-18T20:06:30Z</time>
      </trkpt>
      <trkpt lat="48.04166" lon="7.31116">
        <ele>202.49</ele>
        <time>2021-07-18T20:06:31Z</time>
      </trkpt>
      <trkpt lat="48.04171" lon="7.31101">
        <ele>202.01</ele>
        <time>2021-07-18T20:06:32Z</time>
      </trkpt>
      <trkpt lat="48.04198" lon="7.31019">
        <ele>205.38</ele>
        <time>2021-07-18T20:06:46Z</time>
      </trkpt>
      <trkpt lat="48.04202" lon="7.31008">
        <ele>205.86</ele>
        <time>2021-07-18T20:06:51Z</time>
      </trkpt>
      <trkpt lat="48.04202" lon="7.31008">
        <ele>205.86</ele>
        <time>2021-07-18T20:06:52Z</time>
      </trkpt>
      <trkpt lat="48.04203" lon="7.31003">
        <ele>205.86</ele>
        <time>2021-07-18T20:06:53Z</time>
      </trkpt>
      <trkpt lat="48.04203" lon="7.31003">
        <ele>205.86</ele>
        <time>2021-07-18T20:06:55Z</time>
      </trkpt>
      <trkpt lat="48.04159" lon="7.30982">
        <ele>207.3</ele>
        <time>2021-07-18T20:07:07Z</time>
      </trkpt>
      <trkpt lat="48.0414" lon="7.3098">
        <ele>208.26</ele>
        <time>2021-07-18T20:07:11Z</time>
      </trkpt>
      <trkpt lat="48.04113" lon="7.3097">
        <ele>210.67</ele>
        <time>2021-07-18T20:07:21Z</time>
      </trkpt>
      <trkpt lat="48.04089" lon="7.30962">
        <ele>212.11</ele>
        <time>2021-07-18T20:07:49Z</time>
      </trkpt>
      <trkpt lat="48.04079" lon="7.30951">
        <ele>213.07</ele>
        <time>2021-07-18T20:07:57Z</time>
      </trkpt>
      <trkpt lat="48.04079" lon="7.30943">
        <ele>213.07</ele>
        <time>2021-07-18T20:11:09Z</time>
      </trkpt>
      <trkpt lat="48.04079" lon="7.30942">
        <ele>213.07</ele>
        <time>2021-07-18T20:13:04Z</time>
      </trkpt>
      <trkpt lat="48.0408" lon="7.3093">
        <ele>213.55</ele>
        <time>2021-07-18T20:13:23Z</time>
      </trkpt>
      <trkpt lat="48.0408" lon="7.30927">
        <ele>213.55</ele>
        <time>2021-07-18T20:13:41Z</time>
      </trkpt>
      <trkpt lat="48.04083" lon="7.30896">
        <ele>214.03</ele>
        <time>2021-07-18T20:14:00Z</time>
      </trkpt>
      <trkpt lat="48.04082" lon="7.30868">
        <ele>214.03</ele>
        <time>2021-07-18T20:14:11Z</time>
      </trkpt>
      <trkpt lat="48.0408" lon="7.30865">
        <ele>214.03</ele>
        <time>2021-07-18T20:14:16Z</time>
      </trkpt>
      <trkpt lat="48.04076" lon="7.30848">
        <ele>214.51</ele>
        <time>2021-07-18T20:14:25Z</time>
      </trkpt>
      <trkpt lat="48.04076" lon="7.30847">
        <ele>214.03</ele>
        <time>2021-07-18T20:18:08Z</time>
      </trkpt>
    </trkseg>
  </trk>
</gpx>